[[{"header":{"parameterUnit":"m.s-1","parameterCategory":1,"la1":30.6,"la2":29.2853,"lo1":-89.7004,"lo2":-87.6739,"dx":0.0162,"dy":0.0183,"nx":112,"ny":82,"refTime":"2023-01-27T06:00:00:Z","depth":0,"parameterNumber":2,"parameterNumberName":"U-component_of_WINDS"},"data":[0.0,0.0,0.0,0.0,0.0,0.0,0.0,0.0,0.0,0.0,0.0,0.0,0.0,0.0,0.0,0.0,0.0,0.0,0.0,0.0,0.0,0.0,0.0,0.0,0.0,0.0,0.0,0.0,0.0,0.0,0.0,0.0,0.0,0.0,0.0,0.0,0.0,0.0,0.0,0.0,0.0,0.0,0.0,0.0,0.0,0.0,0.0,0.0,0.0,0.0,0.0,0.0,0.0,0.0,0.0,0.0,0.0,0.0,0.0,0.0,0.0,0.0,0.0,0.0,0.0,0.0,0.0,0.0,0.0,0.0,0.0,0.0,0.0,0.0,0.0,0.0,0.0,0.0,0.0,0.0,0.0,0.0,0.0,0.0,0.0,0.0,0.0,0.0,0.0,0.0,0.0,0.0775,0.1009,0.0942,0.0539,0.0506,0.0371,0.0034,0.0,0.0,0.0,0.0,0.0,0.0,0.0,0.0,0.0,0.0,0.0,0.0,0.0,0.0,0.0,0.0,0.0,0.0,0.0,0.0,0.0,0.0,0.0,0.0,0.0,0.0,0.0,0.0,0.0,0.0,0.0,0.0,0.0,0.0,0.0,0.0,0.0,0.0,0.0,0.0,0.0,0.0,0.0,0.0,0.0,0.0,0.0,0.0,0.0,0.0,0.0,0.0,0.0,0.0,0.0,0.0,0.0,0.0,0.0,0.0,0.0,0.0,0.0,0.0,0.0,0.0,0.0,0.0,0.0,0.0,0.0,0.0,0.0,0.0,0.0,0.0,0.0,0.0,0.0,0.0,0.0,0.0,0.0,0.0,0.0,0.0,0.0,0.0,0.0,0.0,0.0,0.0,0.0,0.0,0.0,0.0,0.0,0.0,0.0,0.0,0.0,0.0,0.0,0.0,0.0932,0.1045,0.1076,0.0942,0.0539,0.0506,0.0371,0.0034,0.0,0.0,0.0,0.0,0.0,0.0,0.0,0.0,0.0,0.0,0.0,0.0,0.0,0.0,0.0,0.0,0.0,0.0,0.0,0.0,0.0,0.0,0.0,0.0,0.0,0.0,0.0,0.0,0.0,0.0,0.0,0.0,0.0,0.0,0.0,0.0,0.0,0.0,0.0,0.0,0.0,0.0,0.0,0.0,0.0,0.0,0.0,0.0,0.0,0.0,0.0,0.0,0.0,0.0,0.0,0.0,0.0,0.0,0.0,0.0,0.0,0.0,0.0,0.0,0.0,0.0,0.0,0.0,0.0,0.0,0.0,0.0,0.0,0.0,0.0,0.0,0.0,0.0,0.0,0.0,0.0,0.0,0.0,0.0,0.0,0.0,0.0,0.0,0.0,0.0,0.0,0.0,0.0,0.0,0.0,0.0,0.0,0.0,0.0,0.0,0.0,0.0,0.0,0.089,0.1116,0.1102,0.1085,0.0942,0.0539,0.0506,0.0371,0.0034,-0.131,0.0,0.0,0.0,0.0,0.0,0.0,0.0,0.0,0.0,0.0,0.0,0.0,0.0,0.0,0.0,0.0,0.0,0.0,0.0,0.0,0.0,0.0,0.0,0.0,0.0,0.0,0.0,0.0,0.0,0.0,0.0,0.0,0.0,0.0,0.0,0.0,0.0,0.0,0.0,0.0,0.0,0.0,0.0,0.0,0.0,0.0,0.0,0.0,0.0,0.0,0.0,0.0,0.0,0.0,0.0,0.0,0.0,0.0,0.0,0.0,0.0,0.0,0.0,0.0,0.0,0.0,0.0,0.0,0.0,0.0,0.0,0.0,0.0,0.0,0.0,0.0,0.0,0.0,0.0,0.0,0.0,0.0,0.0,0.0,0.0,0.0,0.0,0.0,0.0,0.0,0.0,0.0,0.0,0.0,0.0,0.0,0.0,0.0,0.0,0.0,0.0,0.0,0.1157,0.114,0.1132,0.1076,0.0924,0.0545,0.0476,0.0339,0.0034,-0.131,0.0,0.0,0.0,0.0,0.0,0.0,0.0,0.0,0.0,0.0,0.0,0.0,0.0,0.0,0.0,0.0,0.0,0.0,0.0,0.0,0.0,0.0,0.0,0.0,0.0,0.0,0.0,0.0,0.0,0.0,0.0,0.0,0.0,0.0,0.0,0.0,0.0,0.0,0.0,0.0,0.0,0.0,0.0,0.0,0.0,0.0,0.0,0.0,0.0,0.0,0.0,0.0,0.0,0.0,0.0,0.0,0.0,0.0,0.0,0.0,0.0,0.0,0.0,0.0,0.0,0.0,0.0,0.0,0.0,0.0,0.0,0.0,0.0,0.0,0.0,0.0,0.0,0.0,0.0,0.0,0.0,0.0,0.0,0.0,0.0,0.0,0.0,0.0,0.0,0.0,0.0,0.0,0.0,0.0,0.0,0.0,0.0,0.0,0.0,0.0,0.0,0.0,0.1207,0.1195,0.1203,0.1016,0.0826,0.0595,0.0419,0.0207,0.0,-0.131,0.0,0.0,0.0,0.0,0.0,0.0,0.0,0.0,0.0,0.0,0.0,0.0,0.0,0.0,0.0,0.0,0.0,0.0,0.0,0.0,0.0,0.0,0.0,0.0,0.0,0.0,0.0,0.0,0.0,0.0,0.0,0.0,0.0,0.0,0.0,0.0,0.0,0.0,0.0,0.0,0.0,0.0,0.0,0.0,0.0,0.0,0.0,0.0,0.0,0.0,0.0,0.0,0.0,0.0,0.0,0.0,0.0,0.0,0.0,0.0,0.0,0.0,0.0,0.0,0.0,0.0,0.0,0.0,0.0,0.0,0.0,0.0,0.0,0.0,0.0,0.0,0.0,0.0,0.0,0.0,0.0,0.0,0.0,0.0,0.0,0.0,0.0,0.0,0.0,0.0,0.0,0.0,0.0,0.0,0.0,0.0,0.0,0.0,0.0,0.0,0.0,0.0,0.1224,0.1169,0.0,0.0957,0.0762,0.0431,0.0359,0.0213,0.0,0.0,0.0,0.0,0.0,0.0,0.0,0.0,0.0,0.0,0.0,0.0,0.0,0.0,0.0,0.0,0.0,0.0,0.0,0.0,0.0,0.0,0.0,0.0,0.0,0.0,0.0,0.0,0.0,0.0,0.0,0.0,0.0,0.0,0.0,0.0,0.0,0.0,0.0,0.0,0.0,0.0,0.0,0.0,0.0,0.0,0.0,0.0,0.0,0.0,0.0,0.0,0.0,0.0,0.0,0.0,0.0,0.0,0.0,0.0,0.0,0.0,0.0,0.0,0.0,0.0,0.0,0.0,0.0,0.0,0.0,0.0,0.0,0.0,0.0,0.0,0.0,0.0,0.0,0.0,0.0,0.0,0.0,0.0,0.0,0.0,0.0,0.0,0.0,0.0,0.0,0.0,0.0,0.0,0.0,0.0,0.0,0.0,0.0,0.0,0.0,0.0,0.0,0.1139,0.1084,0.0958,0.0,0.0755,0.0595,0.0332,0.0258,0.0146,0.0,0.0,0.0,0.0,0.0,0.0,0.0,0.0,0.0,0.0,0.0,0.0,0.0,0.0,0.0,0.0,0.0,0.0,0.0,0.0,0.0,0.0,0.0,0.0,0.0,0.0,0.0,0.0,0.0,0.0,0.0,0.0,0.0,0.0,0.0,0.0,0.0,0.0,0.0,0.0,0.0,0.0,0.0,0.0,0.0,0.0,0.0,0.0,0.0,0.0,0.0,0.0,0.0,0.0,0.0,0.0,0.0,0.0,0.0,0.0,0.0,0.0,0.0,0.0,0.0,0.0,0.0,0.0,0.0,0.0,0.0,0.0,0.0,0.0,0.0,0.0,0.0,0.0,0.0,0.0,0.0,0.0,0.0,0.0,0.0,0.0,0.0,0.0,0.0,0.0,0.0,0.0,0.0,0.0,0.0,0.0,0.0,0.0,0.0,0.0,0.0,0.0,0.0,0.0904,0.0707,0.0589,0.0589,0.0432,0.0311,0.0304,0.0114,0.0,0.0,0.0,0.0,0.0,0.0,0.0,0.0,0.0,0.0,0.0,0.0,0.0,0.0,0.0,0.0,0.0,0.0,0.0,0.0,0.0,0.0,0.0,0.0,0.0,0.0,0.0,0.0,0.0,0.0,0.0,0.0,0.0,0.0,0.0,0.0,0.0,0.0,0.0,0.0,0.0,0.0,0.0,0.0,0.0,0.0,0.0,0.0,0.0,0.0,0.0,0.0,0.0,0.0,0.0,0.0,0.0,0.0,0.0,0.0,0.0,0.0,0.0,0.0,0.0,0.0,0.0,0.0,0.0,0.0,0.0,0.0,0.0,0.0,0.0,0.0,0.0,0.0,0.0,0.0,0.0,0.0,0.0,0.0,0.0,0.0,0.0,0.0,0.0,0.0,0.0,0.0,0.0,0.0,0.0,0.0,0.0,0.0,0.0,0.0,0.0,0.0,0.0,0.0,0.0864,0.0864,0.0707,0.0432,0.0353,0.0235,0.0117,0.0039,0.0,0.0,0.0,0.0,0.0,0.0,0.0,0.0,0.0,0.0,0.0,0.0,0.0,0.0,0.0,0.0,0.0,0.0,0.0,0.0,0.0,0.0,0.0,0.0,0.0,0.0,0.0,0.0,0.0,0.0,0.0,0.0,0.0,0.0,0.0,0.0,0.0,0.0,0.0,0.0,0.0,0.0,0.0,0.0,0.0,0.0,0.0,0.0,0.0,0.0,0.0,0.0,0.0,0.0,0.0,0.0,0.0,0.0,0.0,0.0,0.0,0.0,0.0,0.0,0.0,0.0,0.0,0.0,0.0,0.0,0.0,0.0,0.0,0.0,0.0,0.0,0.0,0.0,0.0,0.0,0.0,0.0,0.0,0.0,0.0,0.0,0.0,0.0,0.0,0.0,0.0,0.0,0.0,0.0,0.0,0.0,0.0,0.0,0.0,0.0,0.0,0.0,0.0,0.0,0.0746,0.0628,0.0432,0.0196,0.0196,0.0118,0.0,0.0,0.0,0.0,0.0,0.0,0.0,0.0,0.0,0.0,0.0,0.0,0.0,0.0,0.0,0.0,0.0,0.0,0.0,0.0,0.0,0.0,0.0,0.0,0.0,0.0,0.0,0.0,0.0,0.0,0.0,0.0,0.0,0.0,0.0,0.0,0.0,0.0,0.0,0.0,0.0,0.0,0.0,0.0,0.0,0.0,0.0,0.0,0.0,0.0,0.0,0.0,0.0,0.0,0.0,0.0,0.0,0.0,0.0,0.0,0.0,0.0,0.0,0.0,0.0,0.0,0.0,0.0,0.0,0.0,0.0,0.0,0.0,0.0,0.0,0.0,0.0,0.0,0.0,0.0,0.0,0.0,0.0,0.0,0.0,0.0,0.0,0.0,0.0,0.0,0.0,0.0,0.0,0.0,0.0,0.0,0.0,0.0,0.0,0.0,0.0,0.0,0.0,0.0,0.0,0.0,0.0589,0.0275,0.0039,0.0,0.0,0.0,0.0,0.0,0.0,0.0,0.0,0.0,0.0,0.0,0.0,0.0,0.0,0.0,0.0,0.0,0.0,0.0,0.0,0.0,0.0,0.0,0.0,0.0,0.0,0.0,0.0,0.0,0.0,0.0,0.0,0.0,0.0,0.0,0.0,0.0,0.0,0.0,0.0,0.0,0.0,0.0,0.0,0.0,0.0,0.0,0.0,0.0,0.0,0.0,0.0,0.0,0.0,0.0,0.0,0.0,0.0,0.0,0.0,0.0,0.0,0.0,0.0,0.0,0.0,0.0,0.1296,0.0,0.0,0.0,0.0,0.0,0.0,0.0,0.0,0.0,0.0,0.0,0.0,0.0,0.0,0.0,0.0,0.0,0.0,0.0,0.0,0.0,0.0,0.0,0.0,0.0,0.0,0.0,0.0,0.0,0.0,0.0,0.0,0.0,0.0,0.0,0.0,0.0,0.0,0.0,0.0,0.0,0.0589,0.0393,0.0157,0.0,0.0,0.0,0.0,0.0,0.0,0.0,0.0,0.0,0.0,0.0,0.0,0.0,0.0,0.0,0.0,0.0,0.0,0.0,0.0,0.0,0.0,0.0,0.0,0.0,0.0,0.0,0.0,0.0,0.0,0.0,0.0,0.0,0.0,0.0,0.0,0.0,0.0,0.0,0.0,0.0,0.0,0.0,0.0,0.0,0.0,0.0,0.0,0.0,0.0,0.0,0.0,0.0,0.0,0.0,0.0,0.0,0.0,0.0,0.0,0.0,0.0,0.0,0.0,0.0,0.0,0.0,0.0,0.1296,0.0,0.0,0.0,0.0,0.0,0.0,0.0,0.0,0.0,0.0,0.0,0.0,0.0,0.0,0.0,0.0,0.0,0.0,0.0,0.0,0.0,0.0,0.0,0.0,0.0,0.0,0.0,0.0,0.0,0.0,0.0,0.0,0.0,0.0,0.0,0.0,0.0,0.0,0.0,0.0,0.0589,0.0353,0.0118,0.0,0.0,0.0,0.0,0.0,0.0,0.0,-0.1214,0.0,0.0,0.0,0.0,0.0,0.0,0.0,0.0,0.0,0.0,0.0,0.0,0.0,0.0,0.0,0.0,0.0,0.0,0.0,0.0,0.0,0.0,0.0,0.0,0.0,0.0,0.0,0.0,0.0,0.0,0.0,0.0,0.0,0.0,0.0,0.0,0.0,0.0,0.0,0.0,0.0,0.0,0.0,0.0,0.0,0.0,0.0,0.0,0.0,0.0,0.0,0.0,0.0,0.0,0.0,0.1296,0.1296,0.1296,0.1296,0.1296,0.1296,0.1296,0.0,0.0,0.0,0.0,0.0,0.0,0.0,0.0,0.0,0.0,0.0,0.0,0.0,0.0,0.0,0.0,0.0,0.0,0.0,0.0,0.0,0.0,0.0,0.0,0.0,0.1257,0.1218,0.0,0.0,0.0,0.0,0.0,0.0,0.0,0.0,0.0,0.0,0.0,0.0,0.051,0.0236,0.0,0.0,0.0,0.0,0.0,0.0,0.0,0.0,-0.0824,-0.1293,0.0,0.0,0.0,0.0,0.0,0.0,0.0,0.0,0.0,0.0,0.0,0.0,0.0,0.0,0.0,0.0,0.0,0.0,0.0,0.0,0.0,0.0,0.0,0.0,0.0,0.0,0.0,0.0,0.0,0.0,0.0,0.0,-0.5018,-0.5018,0.0,0.0,0.0,0.0,0.0,0.0,0.0,0.0,0.0,0.0,0.0,0.0,0.0,0.0,0.0,0.0746,0.1178,0.1296,0.1296,0.1296,0.1296,0.1296,0.1296,0.1296,0.1296,0.0,0.1296,0.1296,0.0,0.0,0.0,0.0,0.0,0.0,0.0,0.0,0.0,0.0,0.0,0.0,0.0,0.0,0.0,0.0,0.0,0.0,0.0,0.0,0.0,0.0,0.1296,0.1296,0.1139,0.0943,0.0,0.1139,0.1218,0.0982,0.0,0.0,0.0,0.0,0.0,0.0,0.0,0.0,0.0314,0.0157,0.0,0.0,0.0,0.0,0.0,0.0,0.0,0.0,-0.0824,-0.1293,-0.1293,-0.2192,0.0,0.0,0.0,0.0,0.0,0.0,0.0,0.0,0.0,0.0,0.0,0.0,0.0,0.0,0.0,0.0,0.0,0.0,0.0,0.0,0.0,0.0,0.0,0.0,0.0,0.0,0.0,0.0,0.0,-0.5018,-0.4976,-0.4859,-0.474,-0.4623,0.0,0.0,0.0,0.0,0.0,0.0,0.0,0.0,0.0,-0.1136,-0.0274,0.0353,0.0746,0.11,0.1296,0.1296,0.1296,0.1296,0.1296,0.1296,0.1296,0.1296,0.1296,0.1296,0.1296,0.1296,0.1296,0.1296,0.0,0.0,0.0,0.0,0.0,0.1296,0.1296,0.0,0.0,0.0,0.0,0.0,0.0,0.0,0.0,0.0,0.0,0.0,0.0,0.0,0.0,0.1296,0.11,0.0904,0.0904,0.0904,0.0864,0.0,0.0825,0.0786,0.0471,0.0,0.0,0.0,0.0,0.0,0.0275,0.0118,0.0,0.0,0.0,0.0,0.0,0.0,0.0,0.0,-0.0353,-0.0588,-0.0588,-0.1801,-0.2699,0.0,0.0,0.0,0.0,0.0,0.0,0.0,0.0,0.0,0.0,0.0,0.0,0.0,0.0,0.0,0.0,0.0,0.0,0.0,0.0,0.0,0.0,0.0,0.0,0.0,0.0,0.0,0.0,-0.5132,-0.4937,-0.474,-0.4659,-0.4467,0.0,0.0,0.0,0.0,0.0,0.0,-0.255,-0.1921,-0.1097,-0.0039,0.0628,0.106,0.1296,0.1296,0.1296,0.1296,0.1296,0.1296,0.1296,0.1296,0.1296,0.1296,0.1296,0.1296,0.1296,0.1296,0.1296,0.1296,0.1296,0.1296,0.0,0.1296,0.1296,0.1296,0.1296,0.1296,0.1296,0.1296,0.0,0.1296,0.1296,0.0,0.0,0.0,0.0,0.1296,0.1296,0.0,0.1296,0.1296,0.1061,0.0825,0.0825,0.0668,0.051,0.0,0.0628,0.0628,0.0275,0.0,0.0,0.0,0.0,0.0039,0.0196,0.0079,0.0,0.0,0.0,0.0,0.0,0.0,0.0,0.0,0.0,-0.0118,-0.0314,-0.1528,-0.2387,-0.2817,0.0,0.0,0.0,0.0,0.0,0.0,0.0,0.0,0.0,0.0,0.0,0.0,0.0,0.0,0.0,0.0,0.0,0.0,0.0,0.0,0.0,0.0,0.0,0.0,0.0,0.0,0.0,0.0,0.0,-0.474,-0.4543,0.0,0.0,0.0,0.0,-0.3802,-0.3802,-0.3411,-0.255,-0.247,-0.1685,-0.0039,0.0039,0.047,0.1296,0.1296,0.1296,0.1296,0.1296,0.1296,0.1296,0.1296,0.1296,0.1296,0.1296,0.1296,0.1296,0.1296,0.1296,0.1296,0.1296,0.1296,0.1296,0.1296,0.1296,0.1296,0.1296,0.1296,0.1296,0.1296,0.1296,0.1296,0.1296,0.1296,0.0,0.0,0.1296,0.1296,0.1296,0.1296,0.1296,0.1296,0.0943,0.0628,0.0628,0.0471,0.0314,0.0,0.0314,0.0275,0.0039,0.0,0.0,0.0,0.0,0.0,0.0,0.0,0.0,0.0,0.0,0.0,0.0,0.0,0.0,0.0,0.0,-0.0353,-0.1215,-0.1332,-0.2113,-0.3713,-0.383,0.0,0.0,0.0,0.0,0.0,0.0,0.0,0.0,0.0,0.0,0.0,0.0,0.0,0.0,0.0,0.0,0.0,0.0,0.0,0.0,0.0,0.0,0.0,0.0,0.0,0.0,0.0,0.0,-0.474,-0.454,0.0,0.0,-0.3921,-0.3802,-0.3802,-0.3802,-0.3214,-0.1803,-0.1724,-0.0941,0.0785,0.0824,0.0982,0.1296,0.1296,0.1296,0.1296,0.1296,0.1296,0.1296,0.1296,0.1296,0.1296,0.1296,0.1296,0.1296,0.1296,0.1296,0.1296,0.1296,0.1296,0.1296,0.1296,0.1296,0.1296,0.1296,0.1296,0.1296,0.1296,0.1296,0.1296,0.1296,0.1296,0.1296,0.1296,0.1296,0.1296,0.1296,0.1178,0.1061,0.1061,0.0707,0.0393,0.0393,0.0236,0.0118,0.0118,0.0196,0.0236,0.0039,0.0,0.0,0.0,0.0,0.0,0.0,0.0,0.0,0.0,0.0,0.0,0.0,0.0,0.0,0.0,-0.051,-0.098,-0.1293,-0.2348,-0.3207,-0.3791,-0.4304,-0.4701,0.0,0.0,0.0,0.0,0.0,0.0,0.0,0.0,0.0,0.0,0.0,0.0,0.0,0.0,0.0,0.0,0.0,0.0,0.0,0.0,0.0,0.0,0.0,0.0,0.0,0.0,-0.4937,-0.474,-0.4582,-0.4426,-0.4233,-0.4075,-0.3958,-0.3921,-0.3921,-0.3136,-0.141,-0.1293,-0.051,0.1257,0.1296,0.1296,0.1296,0.1296,0.1296,0.1296,0.1296,0.1296,0.1296,0.1296,0.1296,0.1296,0.1296,0.1296,0.1296,0.1296,0.1296,0.1296,0.1296,0.1296,0.1296,0.1296,0.1296,0.1296,0.1296,0.1296,0.1296,0.1296,0.1296,0.1298,0.1309,0.1312,0.1275,0.1205,0.1207,0.1167,0.1086,0.0926,0.0805,0.0805,0.056,0.0318,0.0318,0.0158,0.0,0.0,0.0118,0.0157,0.0039,0.0,0.0,0.0,0.0,0.0,0.0,0.0,-0.0118,-0.0392,-0.0432,-0.0549,-0.0823,-0.0862,-0.0862,-0.0862,-0.1371,-0.184,-0.2113,-0.3207,-0.391,-0.4185,-0.4776,-0.5132,-0.5212,0.0,0.0,0.0,0.0,0.0,0.0,0.0,0.0,0.0,0.0,0.0,0.0,0.0,0.0,0.0,0.0,0.0,0.0,0.0,0.0,0.0,0.0,0.0,-0.6318,-0.5515,-0.4937,-0.474,-0.4701,-0.4621,-0.4423,-0.4423,-0.4309,-0.4118,-0.4118,-0.3292,-0.1449,-0.1332,-0.051,0.1218,0.1296,0.1296,0.1296,0.1296,0.1296,0.1296,0.1296,0.1296,0.1296,0.1296,0.1296,0.1296,0.1296,0.1296,0.1296,0.1296,0.1296,0.1296,0.1296,0.1296,0.1296,0.1296,0.1296,0.1296,0.1296,0.1296,0.1296,0.1296,0.1297,0.1304,0.1294,0.1303,0.1228,0.1046,0.0969,0.0927,0.0674,0.059,0.059,0.059,0.0456,0.0285,0.0285,0.012,0.0,0.0,0.0,0.0,0.0,0.0,0.0,0.0,0.0,0.0,-0.0039,-0.0039,-0.0392,-0.1254,-0.1332,-0.1644,-0.2426,-0.2503,-0.2503,-0.2503,-0.2543,-0.2934,-0.3791,-0.383,-0.4226,-0.5018,-0.5207,-0.5401,-0.5598,0.0,0.0,0.0,0.0,0.0,0.0,0.0,0.0,0.0,0.0,0.0,0.0,0.0,0.0,0.0,0.0,0.0,0.0,0.0,0.0,0.0,0.0,-0.6472,-0.624,-0.5515,-0.4979,-0.4937,-0.4779,-0.4659,-0.4621,-0.4501,-0.4384,-0.4309,-0.4194,-0.3606,-0.2466,-0.1684,-0.0784,0.0314,0.0981,0.1296,0.1296,0.1296,0.1296,0.1296,0.1296,0.1296,0.1296,0.1296,0.1296,0.1296,0.1296,0.1296,0.1296,0.1296,0.1296,0.1296,0.1296,0.1296,0.1296,0.1296,0.1296,0.1296,0.1296,0.1296,0.1296,0.1296,0.1153,0.1009,0.1016,0.0906,0.0794,0.0715,0.0716,0.0674,0.0632,0.0505,0.0379,0.0379,0.021,0.0083,0.0083,0.0041,0.0,0.0,0.0,0.0,0.0,0.0,0.0,0.0,0.0,0.0,-0.0862,-0.0941,-0.1254,-0.2074,-0.2152,-0.227,-0.2464,-0.2621,-0.266,0.0,-0.3359,-0.3906,-0.4027,-0.4732,-0.5207,-0.5443,-0.5482,-0.5559,0.0,0.0,0.0,0.0,0.0,0.0,0.0,0.0,0.0,0.0,0.0,0.0,0.0,0.0,0.0,0.0,0.0,0.0,0.0,0.0,0.0,0.0,-0.7494,-0.6648,-0.6325,-0.5551,-0.5034,-0.5083,-0.4967,-0.4946,-0.4996,-0.4879,-0.4796,-0.4716,-0.448,-0.3915,-0.2984,-0.1896,-0.0924,-0.008,0.0837,0.131,0.1296,0.1296,0.1296,0.1296,0.1296,0.1296,0.1296,0.1296,0.1296,0.0,0.1296,0.1296,0.1296,0.1296,0.1296,0.0,0.0,0.0,0.0,0.0,0.1296,0.1296,0.1178,0.1139,0.1102,0.1034,0.0885,0.0776,0.0791,0.0719,0.0642,0.0561,0.0519,0.0476,0.039,0.026,0.0173,0.0173,0.0086,0.0,0.0,0.0,0.0,0.0,0.0,0.0,-0.0606,-0.0557,-0.0549,-0.0549,-0.0823,-0.1214,0.0,-0.1801,-0.2113,-0.2973,-0.3051,-0.3207,-0.3636,-0.3793,0.0,0.0,0.0,-0.4849,-0.4735,-0.5285,0.0,0.0,0.0,-0.5792,0.0,0.0,0.0,0.0,-0.5828,-0.5592,0.0,0.0,0.0,0.0,0.0,0.0,0.0,0.0,0.0,0.0,0.0,0.0,0.0,0.0,0.0,0.0,-0.7482,-0.7145,-0.6491,-0.5625,-0.5094,-0.5195,-0.5208,-0.5249,-0.5399,-0.541,-0.5327,-0.5157,-0.4868,-0.4283,-0.3317,0.0,0.0,0.0,0.0,0.1295,0.1307,0.1307,0.1307,0.1307,0.1303,0.1302,0.1302,0.1298,0.1296,0.1296,0.1296,0.1296,0.1297,0.13,0.1304,0.1306,0.1299,0.1296,0.1257,0.1257,0.1259,0.0,0.0,0.0,0.0,0.0649,0.0573,0.0579,0.0645,0.0654,0.057,0.0402,0.0359,0.0314,0.0045,0.0,0.0,0.0,0.0,0.0,0.0,-0.0086,-0.0169,-0.0169,-0.0927,-0.1554,-0.1554,-0.1503,-0.1461,-0.1461,-0.2091,0.0,-0.2681,-0.2675,-0.2984,-0.3886,0.0,0.0,-0.5243,-0.5359,-0.5437,-0.5598,-0.5637,-0.5637,-0.5676,-0.5676,-0.575,-0.5941,-0.5941,-0.606,-0.63,-0.63,-0.63,-0.63,-0.587,-0.5556,0.0,0.0,0.0,0.0,0.0,0.0,0.0,0.0,0.0,0.0,0.0,0.0,0.0,0.0,0.0,-0.8089,-0.7282,-0.6684,-0.6441,-0.5781,-0.535,-0.5372,-0.5375,-0.5383,-0.5407,-0.541,-0.5368,-0.5327,-0.4951,-0.462,-0.4409,-0.2435,0.0,-0.1085,0.046,0.1295,0.1289,0.1289,0.1289,0.1288,0.0,0.0,0.1293,0.1308,0.1296,0.1296,0.1296,0.1296,0.1298,0.1284,0.1308,0.1284,0.1317,0.1178,0.0982,0.0982,0.0875,0.0727,0.0687,0.0655,0.0665,0.0627,0.0508,0.0344,0.0391,0.0264,0.0,0.009,0.009,0.0045,0.0,0.0,0.0,0.0,0.0,0.0,0.0,-0.0614,-0.1123,-0.1123,-0.1914,-0.2603,-0.2603,-0.2583,-0.261,-0.261,-0.2734,-0.3065,-0.3725,-0.3705,-0.4023,-0.5074,-0.5064,-0.5162,-0.5518,-0.5709,-0.5747,-0.5598,-0.575,-0.5944,-0.6145,-0.6183,-0.618,-0.6219,-0.6219,-0.6261,-0.63,-0.63,-0.63,-0.63,-0.6222,-0.6025,0.0,0.0,0.0,0.0,0.0,0.0,0.0,0.0,0.0,0.0,0.0,-1.0966,0.0,0.0,-0.9089,-0.7571,-0.6926,-0.6436,-0.6031,-0.5672,-0.5461,-0.5461,-0.5461,-0.5483,-0.5545,-0.5551,-0.5551,-0.5551,-0.5249,-0.5031,-0.5031,-0.3251,-0.2028,-0.1579,-0.0128,0.0851,0.1305,0.1305,0.1305,0.1305,0.1291,0.1284,0.1284,0.1309,0.1303,0.1303,0.1303,0.1262,0.114,0.0989,0.0959,0.0966,0.0945,0.0936,0.0936,0.0814,0.0697,0.058,0.0497,0.0459,0.0422,0.0341,0.0216,0.0131,0.0132,0.0089,0.0,0.0,0.0,0.0,0.0,0.0,0.0,0.0,-0.0359,-0.0718,-0.0718,-0.1468,-0.2161,-0.2161,-0.2928,-0.3599,-0.3599,-0.399,-0.4132,-0.3579,-0.3859,-0.4279,-0.4696,-0.4775,-0.4992,-0.5527,-0.5673,-0.5792,-0.5993,-0.6194,-0.6277,-0.6157,-0.6165,-0.6244,-0.6405,-0.6337,-0.63,-0.63,-0.63,-0.63,-0.63,-0.63,-0.63,-0.6303,-0.6371,-0.6205,0.0,0.0,0.0,0.0,0.0,0.0,0.0,0.0,-1.157,-1.1354,-1.1305,-1.094,-0.9847,-0.9644,-0.9021,-0.7,-0.6707,-0.6424,-0.5626,-0.5529,-0.5543,-0.5543,-0.5543,-0.558,-0.568,-0.5688,-0.5688,-0.5688,-0.5508,-0.5416,-0.5416,-0.3979,-0.2839,-0.2093,-0.0742,0.0347,0.1024,0.1237,0.1323,0.1322,0.1316,0.1313,0.1313,0.1308,0.1305,0.1305,0.1263,0.114,0.0933,0.072,0.0637,0.0597,0.0597,0.0682,0.0852,0.0634,0.0507,0.0466,0.0297,0.0255,0.0214,0.0044,0.0,0.0,0.0,0.0,0.0,0.0,-0.0135,-0.0269,-0.0269,-0.0404,-0.0584,-0.0584,-0.1122,-0.1704,-0.1704,-0.2465,-0.3179,-0.3179,-0.3941,-0.4567,-0.4567,-0.5196,-0.5445,-0.4612,-0.5096,-0.5566,-0.5605,-0.5714,-0.5829,-0.5871,-0.6053,-0.6242,-0.6443,-0.6615,-0.6702,-0.6702,-0.6583,-0.6555,-0.6555,-0.6446,-0.6385,-0.6385,-0.6385,-0.6385,-0.6385,-0.6385,-0.6385,-0.6388,-0.6504,-0.6354,-1.2518,-1.2492,-1.2291,-1.2075,-1.1871,-1.1656,0.0,0.0,-1.1354,-1.1311,-1.1305,-1.0992,-1.0048,-0.9865,-0.9234,-0.7254,-0.7,-0.6699,-0.5651,-0.5602,-0.5667,-0.5667,-0.5667,-0.5675,-0.5688,-0.5688,-0.5688,-0.5688,-0.5508,-0.5416,-0.5416,-0.3979,-0.317,-0.3029,-0.1071,0.0045,0.0134,0.098,0.1381,0.1381,0.1398,0.1385,0.1384,0.1317,0.1305,0.1305,0.1095,0.0937,0.0737,0.0694,0.0702,0.0668,0.049,0.0445,0.0443,0.0384,0.0213,0.0043,0.0043,0.0044,0.0045,0.0,0.0,0.0,0.0,0.0,0.0,0.0,-0.0584,-0.1256,-0.1256,-0.1928,-0.2553,-0.2553,-0.2644,-0.2732,-0.2732,-0.3494,-0.4164,-0.4164,-0.4882,-0.5555,-0.5555,-0.5644,-0.5722,-0.5869,-0.5951,-0.6083,-0.6254,-0.6245,-0.6303,-0.6468,-0.6437,-0.6446,-0.6657,-0.6698,-0.6702,-0.6702,-0.6685,-0.6675,-0.6675,-0.6661,-0.6651,-0.6651,-0.6651,-0.6651,-0.6651,-0.6651,-0.6651,-0.6651,-0.6668,-0.6593,-1.204,-1.2124,-1.2075,0.0,-1.1527,-1.144,-1.1348,-1.1305,-1.1305,-1.1305,-1.1305,-1.0997,-1.0077,-0.9903,-0.9261,0.0,-0.7099,-0.6766,-0.575,-0.5656,-0.5688,-0.5688,-0.5688,-0.5688,-0.5688,-0.5688,-0.5688,-0.5688,-0.5644,-0.5552,-0.5552,-0.4877,-0.416,-0.3444,-0.255,-0.1432,0.0,0.0224,0.0717,0.1391,0.1289,0.1284,0.1372,0.1097,0.0961,0.0961,0.0743,0.0615,0.0532,0.0355,0.0312,0.0269,0.018,0.018,0.0179,0.0132,0.0088,0.0,0.0,0.0,0.0,0.0,0.0,0.0,0.0,-0.0359,-0.0808,-0.0808,-0.1524,-0.2285,-0.2285,-0.2598,-0.2911,-0.2911,-0.3315,-0.3717,-0.3717,-0.4433,-0.5104,-0.5104,-0.5419,-0.5688,-0.5688,-0.5822,-0.5994,-0.6257,-0.6171,-0.6171,-0.6387,-0.6521,-0.6661,-0.6873,-0.686,-0.6824,-0.6913,-0.6913,-0.6913,-0.6913,-0.6878,-0.6834,-0.6834,-0.6749,-0.6702,-0.6702,-0.6702,-0.6702,-0.6702,-0.6702,-0.6702,-0.6702,-0.6793,-0.68,-1.1951,0.0,0.0,-1.1564,-1.1392,-1.1305,-1.1305,-1.1305,-1.1305,-1.1305,-1.1305,-1.1084,-1.0429,-1.0299,-0.9685,-0.7797,-0.7492,-0.7051,-0.5863,-0.5688,-0.5688,-0.5688,-0.5688,-0.5688,-0.5688,-0.5688,-0.5688,-0.5688,-0.5688,-0.5688,-0.5688,-0.5508,-0.5013,-0.4115,-0.3757,-0.2594,-0.0538,-0.0492,0.0134,0.13,0.1076,0.1076,0.1211,0.0852,0.0673,0.0628,0.0448,0.0359,0.0269,0.009,0.0,0.0,0.0,0.0,-0.0045,-0.0269,-0.0225,0.0,0.0,0.0,-0.0045,-0.0314,-0.0404,-0.0449,-0.0718,-0.1256,-0.1793,-0.1793,-0.2509,-0.3269,-0.3269,-0.3494,-0.3673,-0.3673,-0.421,-0.4701,-0.4701,-0.524,-0.5688,-0.5688,-0.5688,-0.5733,-0.5777,-0.5952,-0.6171,-0.6476,-0.639,-0.6349,-0.6564,-0.6745,-0.6922,-0.7098,-0.7095,-0.7095,-0.7095,-0.7095,-0.7095,-0.7095,-0.7001,-0.6943,-0.6943,-0.6878,-0.682,-0.682,-0.682,-0.682,-0.682,-0.682,-0.682,-0.6824,-0.6893,-0.6943,0.0,0.0,-1.2,-1.2,-1.165,-1.1305,-1.1305,-1.1305,-1.1305,-1.1305,-1.1305,-1.1305,-1.1262,-1.1262,-1.0646,-0.8763,-0.8456,-0.7797,-0.5952,-0.5688,-0.5688,-0.5688,-0.5688,-0.5688,0.0,-0.5688,-0.5688,-0.5688,-0.5688,-0.5688,-0.5688,-0.5508,-0.5371,-0.5327,-0.4206,-0.2996,-0.1745,-0.1029,-0.009,0.1121,0.0852,0.0718,0.0718,0.0718,0.0583,0.0403,0.0403,0.0269,0.0,0.0,0.0,0.0,0.0,0.0,-0.009,-0.1032,-0.0763,0.0,0.0,0.0,-0.0135,-0.1077,-0.1345,-0.1524,-0.251,-0.2822,-0.2867,-0.2867,-0.3537,-0.4253,-0.4253,-0.4926,-0.5599,-0.5599,-0.5644,-0.5644,-0.5644,-0.5688,-0.5688,-0.5688,-0.5688,-0.5777,-0.6038,-0.6083,-0.626,-0.6704,-0.6795,-0.6836,-0.7051,-0.7095,-0.7095,-0.7095,-0.7095,-0.7095,-0.7095,-0.7095,-0.7095,-0.7095,-0.7092,-0.7088,-0.7088,-0.7085,-0.7082,-0.7082,-0.7082,-0.7082,-0.7082,-0.7082,-0.7082,-0.7082,-0.7088,-0.7088,0.0,0.0,-1.2203,-1.1866,-1.1699,-1.1527,-1.1354,-1.1305,-1.1305,-1.1305,-1.1305,-1.1305,-1.1305,-1.1305,-1.0868,-0.9641,-0.8894,-0.8061,-0.6789,-0.6086,-0.5688,-0.5688,-0.5688,0.0,0.0,0.0,0.0,-0.5688,-0.5688,-0.5688,-0.5688,-0.5644,-0.5552,-0.5416,-0.5146,-0.434,-0.2996,-0.286,-0.192,-0.009,0.0448,0.0538,0.0224,0.0404,0.0359,0.0135,0.0135,0.009,0.0,0.0,-0.0359,-0.0942,-0.0942,-0.1346,-0.1973,-0.2285,-0.2196,-0.1928,-0.1928,-0.1928,-0.1973,-0.2286,-0.2374,-0.2465,-0.2778,-0.3315,-0.3851,-0.3851,-0.4523,-0.524,-0.524,-0.5466,-0.5688,-0.5688,-0.5688,-0.5688,-0.5688,-0.5688,-0.5733,-0.5952,-0.5952,-0.6038,-0.6257,-0.6435,-0.6659,-0.6966,-0.701,-0.701,-0.7095,-0.7095,-0.7095,-0.7095,-0.7095,-0.7095,-0.7095,-0.7095,-0.7095,-0.7095,-0.7095,-0.7095,-0.7095,-0.7095,-0.7095,-0.7095,-0.7095,-0.7095,-0.7095,-0.7095,-0.7095,-0.7095,-0.7095,-0.7095,0.0,-1.2448,-1.2277,-1.1909,-1.1742,-1.1613,-1.1348,-1.1305,-1.1305,-1.1305,-1.1305,-1.1305,-1.1305,-1.1305,-1.0868,-0.9593,-0.8894,-0.8061,-0.6789,-0.6086,-0.5688,-0.5688,-0.5688,0.0,0.0,0.0,0.0,-0.5688,-0.5688,-0.5688,-0.5688,-0.5688,-0.5644,-0.5508,-0.5644,-0.5057,-0.371,-0.3933,-0.3173,-0.1477,-0.0896,-0.0762,-0.1032,-0.0852,-0.0852,-0.1032,-0.1032,-0.1032,-0.1032,-0.1032,-0.1391,-0.1928,-0.1928,-0.2331,-0.2957,-0.3269,-0.3403,-0.336,-0.3001,-0.2911,-0.2957,-0.3269,-0.3403,-0.3449,-0.3807,-0.4344,-0.479,-0.479,-0.524,-0.5688,-0.5688,-0.5688,-0.5688,-0.5688,-0.5688,-0.5688,-0.5688,-0.5777,-0.5908,-0.6083,-0.6171,-0.6257,-0.6523,-0.6745,-0.6966,-0.7098,-0.7095,-0.7095,-0.7095,-0.7095,-0.7095,-0.7095,-0.7095,-0.7095,-0.7095,-0.7095,-0.7095,-0.7095,-0.7095,-0.7095,-0.7095,-0.7095,-0.7095,-0.7095,-0.7095,-0.7095,-0.7095,-0.7095,-0.7095,-0.7095,-0.7095,-0.7095,-1.2687,-1.2565,-1.2369,-1.208,-1.1871,-1.1656,-1.1397,-1.1311,-1.1305,-1.1305,-1.1305,-1.1305,0.0,0.0,-1.0646,-0.8851,-0.85,-0.7797,-0.6041,-0.5733,-0.5688,0.0,0.0,0.0,0.0,0.0,0.0,-0.5688,0.0,-0.5688,-0.5688,-0.5688,-0.5688,-0.5688,-0.5688,-0.5146,-0.4018,-0.4206,-0.3851,-0.2956,-0.2913,-0.2911,-0.2911,-0.2911,-0.2911,-0.2911,-0.2911,-0.2911,-0.2911,-0.2911,-0.2913,-0.2956,-0.2956,-0.3001,-0.3135,-0.403,-0.4389,-0.4253,-0.336,-0.3045,-0.3181,-0.4076,-0.4389,-0.4523,-0.5419,-0.5688,-0.5688,-0.5688,-0.5688,-0.5688,-0.5688,-0.5688,-0.5688,-0.5688,-0.5688,-0.5733,-0.5733,-0.5908,-0.6127,-0.6127,-0.6302,-0.652,-0.6792,-0.6966,-0.7095,-0.7095,-0.7095,-0.7095,-0.7095,-0.7095,-0.7095,-0.7095,-0.7095,-0.7095,-0.7095,-0.7095,-0.7095,-0.7095,-0.7095,-0.7095,-0.7095,-0.7095,-0.7139,-0.7183,-0.7183,-0.7183,-0.7224,-0.7224,-0.7228,-0.7183,-0.7183,-0.7139,-1.2415,-1.2512,-1.2577,-1.2369,-1.2118,-1.1871,-1.1656,-1.1435,-1.1305,-1.1305,-1.1305,-1.1305,0.0,0.0,0.0,-0.9637,-0.8368,0.0,-0.6789,-0.613,0.0,-0.5688,0.0,-0.5688,-0.5688,-0.5688,0.0,0.0,-0.5688,-0.5688,-0.5688,-0.5688,-0.5688,-0.5688,-0.5688,-0.5552,-0.5235,-0.4612,-0.4164,-0.3941,-0.3226,-0.2911,-0.2911,-0.2911,-0.2911,-0.2911,-0.2911,-0.2911,-0.2911,-0.2911,-0.3315,-0.3941,-0.3941,-0.4387,-0.5015,-0.524,-0.5329,-0.5329,-0.5062,-0.4971,-0.5015,-0.5285,-0.5329,-0.5374,-0.5644,-0.5688,-0.5688,-0.5688,-0.5688,-0.5688,-0.5688,-0.5688,-0.5688,-0.5688,-0.5863,-0.5997,-0.5997,-0.6169,-0.639,-0.6571,-0.6789,-0.6962,-0.701,-0.7051,-0.7095,-0.7095,-0.7095,-0.7095,-0.7095,-0.7095,-0.7095,-0.7095,-0.7095,-0.7095,-0.7095,-0.7095,-0.7095,-0.7095,-0.7095,-0.7095,-0.7095,-0.7095,-0.7448,-0.8149,-0.8149,-0.8496,-0.9183,-0.9183,-0.8838,-0.8149,-0.8149,-0.7753,-1.2282,-1.2421,-1.2518,-1.2419,-1.2283,-1.2123,-1.1866,-1.1656,-1.1483,-1.1483,-1.1397,0.0,0.0,0.0,0.0,0.0,0.0,0.0,-0.653,-0.6007,-0.5688,0.0,-0.5688,0.0,-0.5688,-0.5688,-0.5688,0.0,-0.5688,-0.5688,-0.5688,-0.5688,-0.5688,-0.5688,-0.5688,-0.5688,-0.5688,-0.5196,-0.4926,-0.4926,-0.4389,-0.4119,-0.4119,-0.4119,-0.4119,-0.4119,0.0,-0.4119,-0.4119,-0.4119,-0.4433,-0.4926,-0.4926,-0.524,-0.5688,-0.5688,-0.5688,-0.5688,-0.5688,-0.5688,-0.5688,-0.5688,-0.5688,-0.5688,-0.5688,-0.5688,-0.5688,-0.5688,-0.5777,-0.5863,-0.5733,-0.5863,-0.5994,-0.5908,-0.6038,-0.6213,-0.6213,-0.6435,-0.6656,-0.6877,-0.701,-0.7095,-0.7095,-0.7095,-0.7095,-0.7095,-0.7095,-0.7095,-0.7095,-0.7095,-0.7095,-0.7095,-0.7095,-0.7095,-0.7095,-0.7095,-0.7095,-0.7095,-0.7095,-0.7272,-0.7709,-0.7709,-0.8145,-0.9104,-0.91,-0.9362,-0.9879,-0.9879,-0.9405,-0.85,-0.85,-0.8017,-1.2192,-1.2288,-1.2337,-1.2426,-1.2406,-1.2326,-1.2123,-1.1871,-1.1699,-1.1699,0.0,-1.1305,-1.1305,-1.1219,-1.0532,-0.8687,0.0,-0.7654,-0.578,-0.5613,-0.5688,-0.5688,-0.5688,-0.5688,-0.5688,-0.5688,-0.5688,-0.5688,-0.5688,-0.5688,-0.5688,-0.5688,-0.5688,-0.5688,-0.5688,-0.5688,-0.5688,-0.5688,-0.5688,-0.5688,-0.5688,-0.5688,-0.5688,-0.5688,-0.5688,-0.5688,0.0,0.0,-0.5688,-0.5688,-0.5688,-0.5688,-0.5688,-0.5688,-0.5688,-0.5688,-0.5688,-0.5688,-0.5688,-0.5733,-0.5733,-0.5733,-0.5733,-0.5733,-0.5733,-0.5777,-0.5774,-0.5774,-0.5952,-0.6083,-0.5863,-0.6083,-0.6343,-0.6169,-0.6302,-0.6432,-0.6432,-0.6656,-0.6881,-0.7051,-0.7095,-0.7095,-0.7095,-0.7183,-0.7228,-0.7139,-0.7316,-0.7445,-0.7316,-0.7183,-0.7095,-0.7095,-0.7095,-0.7095,-0.7095,-0.7095,-0.7095,-0.7095,-0.7228,-0.7665,-0.8456,-0.8632,-0.9148,-1.0053,-0.9966,-0.9966,-1.0096,-1.0096,-0.9623,-0.8671,-0.8803,-0.8364,-1.192,-1.2149,-1.2379,-1.2596,-1.2534,-1.2406,-1.2326,-1.1989,0.0,0.0,-1.1483,-1.1305,-1.1305,-1.0651,-0.9746,-0.8602,0.0,0.0,0.0,0.0,-0.5688,0.0,0.0,0.0,0.0,0.0,0.0,0.0,0.0,0.0,-0.5688,-0.5688,-0.5688,-0.5688,-0.5688,-0.5688,-0.5688,-0.5688,-0.5688,-0.5688,-0.5688,-0.5688,-0.5688,-0.5688,-0.5688,-0.5688,0.0,0.0,-0.5688,-0.5688,-0.5688,-0.5688,-0.5688,-0.5688,-0.5688,-0.5688,-0.5688,-0.5688,-0.5688,-0.5863,-0.5997,-0.5777,-0.5863,-0.6041,-0.6041,-0.6124,-0.6299,-0.6299,-0.6299,-0.6343,-0.6299,-0.6343,-0.6384,-0.6343,-0.6523,-0.6748,-0.6748,-0.6877,-0.7051,-0.7095,-0.7095,-0.7095,-0.7095,-0.7753,-0.7973,-0.7228,-0.84,-0.9144,-0.8364,-0.758,-0.7095,-0.7095,-0.7095,-0.7095,-0.7095,-0.7095,-0.7095,-0.7095,-0.7841,-0.8324,-0.85,-0.9231,-1.0101,-1.102,-1.0318,-1.0274,-1.1063,-1.1063,-1.0577,-0.9666,-1.0453,-1.0323,-1.1609,-1.1772,-1.1968,-1.2234,-1.2218,-1.2171,-1.2302,0.0,0.0,0.0,-1.157,-1.1305,-1.1305,-1.0911,0.0,0.0,0.0,0.0,0.0,0.0,0.0,0.0,0.0,0.0,0.0,0.0,0.0,0.0,0.0,0.0,-0.5688,-0.5688,-0.5688,-0.5688,-0.5688,-0.5688,-0.5688,-0.5688,-0.5688,-0.5688,-0.5688,-0.5688,-0.5688,-0.5688,-0.5688,-0.5688,0.0,0.0,-0.5688,-0.5688,-0.5688,-0.5688,-0.5688,-0.5688,-0.5733,-0.5863,-0.5822,-0.5733,-0.5994,-0.6083,-0.6083,-0.6083,-0.6169,-0.6257,-0.6127,-0.6257,-0.6384,-0.6384,-0.652,-0.6567,-0.6432,-0.6561,-0.6741,-0.6612,-0.6789,-0.6966,-0.6966,-0.7054,-0.7095,-0.7095,-0.7095,-0.7272,-0.7753,-0.8193,-0.8368,-0.7885,-0.9013,-0.9579,-0.8632,-0.8536,-0.8575,-0.8575,-0.8575,-0.8575,-0.8575,-0.8575,-0.8575,-0.8575,-0.8969,-0.9449,-0.9932,-1.0409,-1.1058,-1.2015,-1.1574,-1.1574,-1.2015,-1.2015,-1.1537,-1.0621,-1.1106,-1.0799,-1.1417,-1.1495,-1.1555,-1.182,-1.188,-1.1952,-1.2252,-1.1981,0.0,0.0,-1.1656,-1.1348,-1.1311,0.0,-1.0952,0.0,-0.9012,0.0,0.0,0.0,0.0,0.0,0.0,0.0,0.0,0.0,0.0,0.0,0.0,0.0,0.0,-0.5688,-0.5688,-0.5688,-0.5688,-0.5688,-0.5688,-0.5688,-0.5688,-0.5688,-0.5688,-0.5688,-0.5688,-0.5688,-0.5688,-0.5688,0.0,0.0,0.0,-0.5688,-0.5733,-0.5777,-0.5777,-0.5822,-0.5863,-0.6083,-0.6038,-0.5908,-0.6254,-0.6343,-0.626,-0.6387,-0.6432,-0.6476,-0.6305,-0.639,-0.6564,-0.6564,-0.67,-0.6836,-0.6609,-0.683,-0.7051,-0.6881,-0.6966,-0.7095,-0.7095,-0.7095,-0.7095,-0.7095,-0.7272,-0.7625,-0.8368,-0.8846,-0.9021,-0.8846,-0.9753,-1.0144,-0.924,-0.9927,-1.0486,-1.0486,-1.0139,-0.9879,-0.9879,-0.9879,-0.9879,-0.9879,-1.0096,-1.0534,-1.1284,-1.1494,-1.1929,-1.2705,-1.2491,-1.2406,-1.2406,-1.2406,-1.2015,-1.1284,-1.1499,-1.1187,-1.1417,-1.1495,-1.1555,-1.182,-1.188,-1.1952,-1.2252,0.0,0.0,-1.1986,-1.1828,-1.157,-1.1354,-1.1305,-1.0899,0.0,0.0,-0.7981,0.0,0.0,0.0,0.0,0.0,0.0,0.0,0.0,0.0,0.0,0.0,0.0,0.0,-0.5688,-0.5688,-0.5688,-0.5688,-0.5688,-0.5688,-0.5688,-0.5688,-0.5688,-0.5688,-0.5688,-0.5688,-0.5688,-0.5688,-0.5688,0.0,0.0,0.0,-0.5688,-0.5863,-0.6083,-0.6083,-0.6169,-0.6343,-0.6343,-0.6343,-0.6343,-0.6384,-0.6567,-0.6704,-0.6476,-0.6567,-0.6748,-0.6751,-0.6877,-0.7051,-0.7051,-0.7051,-0.7051,-0.7051,-0.7051,-0.7095,-0.7098,-0.7095,-0.7095,-0.7095,-0.7095,-0.7095,-0.7095,-0.7797,-0.8412,-0.85,-0.9937,-1.0755,-0.9879,-1.1311,-1.2095,-1.1149,-1.1837,-1.2443,-1.2443,-1.0923,-0.9879,-0.9879,-0.9879,-0.9879,-0.9879,-1.0712,-1.1192,-1.1284,-1.21,-1.2619,-1.2705,-1.1843,-1.1408,-1.1408,-1.1408,-1.137,-1.1322,-1.2186,-1.2534,-1.1244,-1.1242,-1.1266,-1.1369,-1.1437,-1.151,-1.1781,0.0,-1.1519,-1.1576,-1.1379,-1.1172,-1.0918,-1.0882,-1.0688,0.0,0.0,0.0,-0.7609,0.0,0.0,0.0,0.0,0.0,0.0,0.0,0.0,0.0,0.0,0.0,0.0,-0.5688,-0.5688,-0.5688,-0.5688,-0.5688,-0.5688,-0.5688,-0.5688,-0.5688,-0.5688,-0.5688,-0.5688,-0.5688,-0.5688,-0.5688,0.0,0.0,0.0,-0.5952,-0.6083,-0.6299,-0.6299,-0.6343,-0.6432,-0.6567,-0.6915,-0.7261,-0.7573,-0.8013,-0.8492,-0.8484,-0.8185,-0.7713,-0.7013,-0.6922,-0.7095,-0.7095,-0.7095,-0.7095,-0.7095,-0.7095,-0.7095,-0.7095,-0.7536,-0.7929,-0.7929,-0.8404,-0.8794,-0.8794,-0.91,-0.9536,-1.0106,-1.0804,-1.1149,-1.0799,-1.188,-1.2357,-1.1413,-1.21,-1.2705,-1.2705,-1.2052,-1.1574,-1.1574,-1.1574,-1.1574,-1.1574,-1.1923,-1.2143,-1.2143,-1.2491,-1.2705,-1.2705,-1.2314,-1.2143,-1.2143,-1.2143,-1.2143,-1.2143,-1.2534,-1.2705,-1.1111,-1.1111,-1.1111,-1.1111,-1.1111,-1.1184,0.0,0.0,-1.1294,-1.1312,-1.1163,-1.0915,-1.0632,-1.0597,-1.0571,-1.0506,0.0,-0.7979,-0.8078,0.0,0.0,0.0,0.0,0.0,0.0,0.0,0.0,0.0,0.0,0.0,0.0,-0.5688,-0.5688,-0.5688,-0.5688,-0.5688,-0.5688,-0.5688,-0.5688,-0.5688,-0.5688,-0.5688,-0.5688,-0.5777,-0.5822,0.0,0.0,0.0,0.0,-0.6169,-0.6302,-0.6564,-0.6823,-0.6956,-0.7092,-0.7533,-0.8009,-0.8488,-0.8798,-0.9235,-0.971,-0.9836,-0.9449,-0.8759,-0.7973,-0.7621,-0.7533,-0.7533,-0.7705,-0.7921,-0.7921,-0.7921,-0.7921,-0.7921,-0.8448,-0.893,-0.893,-0.9449,-0.9879,-0.9879,-1.0139,-1.0534,-1.1192,-1.1537,-1.1714,-1.1714,-1.2272,-1.2448,-1.18,-1.2272,-1.2705,-1.2705,-1.2705,-1.2705,-1.2705,-1.2705,-1.2705,-1.2705,-1.2705,-1.2705,-1.2705,-1.2705,-1.2705,-1.2705,-1.2705,-1.2705,-1.2705,-1.2705,-1.2705,-1.2705,-1.2705,-1.2705,-1.1111,-1.1111,-1.1111,-1.1111,-1.1111,-1.1184,0.0,0.0,-1.145,-1.1312,-1.1284,-1.1163,-1.0678,-1.0597,-1.0522,-1.0336,-0.8897,0.0,-0.782,0.0,0.0,0.0,0.0,0.0,0.0,0.0,0.0,0.0,0.0,0.0,0.0,0.0,-0.5688,-0.5688,-0.5688,-0.5688,-0.5688,-0.5688,-0.5688,-0.5688,-0.5688,-0.5688,-0.5688,-0.5997,0.0,0.0,0.0,0.0,0.0,-0.6384,-0.6567,-0.6881,-0.7834,-0.8317,-0.8584,-0.9536,-0.9879,-0.9879,-0.9879,-0.9879,-0.9879,-0.9879,-0.9879,-0.9879,-0.9879,-0.9231,-0.85,-0.85,-0.9144,-0.9879,-0.9879,-0.9879,-0.9879,-0.9879,-0.9879,-0.9879,-0.9879,-0.9879,-0.9879,-0.9879,-1.0669,-1.1278,-1.1284,-1.2057,-1.2705,-1.2705,-1.2705,-1.2705,-1.2705,-1.2705,-1.2705,-1.2705,-1.2705,-1.2705,-1.2705,-1.2705,-1.2705,-1.2705,-1.2705,-1.2705,-1.2705,-1.2705,-1.2705,-1.2705,-1.2705,-1.2705,-1.2705,-1.2705,-1.2705,-1.2705,-1.2705,-1.2705,-1.1111,-1.1111,-1.1111,-1.1111,-1.1111,-1.1135,-1.1226,0.0,-1.1193,-1.1009,-1.0835,-1.0682,-1.0374,-1.022,-1.0083,-1.0051,-0.8673,0.0,0.0,0.0,0.0,0.0,0.0,0.0,0.0,0.0,0.0,0.0,0.0,0.0,0.0,0.0,-0.5688,-0.5688,-0.5688,-0.5688,-0.5688,-0.5688,-0.5688,-0.5688,-0.5688,-0.5777,-0.5997,-0.6038,0.0,0.0,0.0,0.0,0.0,-0.6659,-0.7183,-0.7977,-0.8277,-0.8842,-0.9492,-0.9792,-1.0318,-1.0842,-1.0842,-1.1273,-1.1789,-1.1789,-1.1359,-1.0842,-1.0842,-1.0188,-0.9449,-0.9449,-0.9666,-0.9879,-0.9879,-0.9879,-0.9879,-0.9879,-1.0404,-1.0842,-1.0842,-1.1359,-1.1789,-1.1789,-1.2052,-1.2272,-1.2272,-1.2491,-1.2705,-1.2705,-1.2705,-1.2705,-1.2705,-1.2705,-1.2705,-1.2705,-1.2705,-1.2705,-1.2705,-1.2705,-1.2705,-1.2705,-1.2705,-1.2705,-1.2705,-1.2705,-1.2705,-1.2705,-1.2705,-1.2705,-1.2705,-1.2705,-1.2705,-1.2705,-1.2705,-1.2705,0.0,-1.1111,-1.1111,-1.1111,-1.1111,0.0,0.0,-1.1111,-1.1037,-1.085,-1.0625,-1.0443,-1.0255,-1.003,-0.9884,-0.9884,-0.8808,0.0,0.0,0.0,0.0,0.0,0.0,0.0,0.0,0.0,0.0,0.0,0.0,0.0,0.0,0.0,-0.5688,-0.5688,-0.5688,-0.5688,-0.5688,-0.5688,-0.5688,-0.5688,-0.5688,-0.5819,-0.6083,0.0,0.0,0.0,0.0,0.0,0.0,-0.7452,-0.8061,-0.9061,-0.9414,-0.9932,-1.0491,-1.0832,-1.1316,-1.1843,-1.1843,-1.2229,-1.2705,-1.2705,-1.2314,-1.1843,-1.1843,-1.1187,-1.0491,-1.0875,-1.0966,-1.0966,-1.0966,-1.0966,-1.0966,-1.0966,-1.1402,-1.1843,-1.1843,-1.2272,-1.2705,-1.2705,-1.2705,-1.2705,-1.2705,-1.2705,-1.2705,-1.2705,-1.2705,-1.2705,-1.2705,-1.2705,-1.2705,-1.2705,-1.2705,-1.2705,-1.2705,-1.2705,-1.2705,-1.2705,-1.2705,-1.2705,-1.2705,-1.2705,-1.2705,-1.2705,-1.2705,-1.2705,-1.2705,-1.2705,-1.2705,-1.2705,-1.2705,-1.2705,0.0,0.0,0.0,0.0,0.0,0.0,0.0,-1.1111,0.0,-1.085,-1.0663,-1.0475,-1.0255,-1.0067,-0.9916,-0.9922,0.0,0.0,0.0,0.0,0.0,0.0,0.0,0.0,0.0,0.0,0.0,0.0,0.0,0.0,0.0,0.0,0.0,-0.5688,-0.5688,-0.5688,-0.5688,-0.5688,-0.5688,-0.5733,-0.5733,-0.5863,-0.6171,0.0,0.0,0.0,0.0,0.0,0.0,-0.8584,-0.9148,-1.0096,-1.0971,-1.1327,-1.1499,-1.2357,-1.2705,-1.2705,-1.2705,-1.2705,-1.2705,-1.2705,-1.2705,-1.2705,-1.2705,-1.21,-1.1585,-1.2443,-1.2705,-1.2705,-1.2705,-1.2705,-1.2705,-1.2705,-1.2705,-1.2705,-1.2705,-1.2705,-1.2705,-1.2705,-1.2705,-1.2705,-1.2705,-1.2705,-1.2705,-1.2705,-1.2705,-1.2705,-1.2705,-1.2705,-1.2705,-1.2705,-1.2705,-1.2705,-1.2705,-1.2705,-1.2705,-1.2705,-1.2705,-1.2705,-1.2705,-1.2705,-1.2705,-1.2705,-1.2705,-1.2705,-1.2705,-1.2705,-1.2705,-1.2705,-1.2705,-1.2705,0.0,0.0,0.0,0.0,0.0,0.0,0.0,-1.1111,-1.1074,-1.1037,0.0,-1.0663,-1.0481,-1.0255,-1.0067,-0.9916,0.0,0.0,0.0,0.0,0.0,0.0,0.0,0.0,0.0,0.0,0.0,0.0,0.0,0.0,0.0,0.0,0.0,-0.5688,-0.5688,-0.5688,-0.5688,-0.5688,-0.5819,-0.5994,-0.5994,-0.6219,-0.6615,0.0,0.0,0.0,0.0,0.0,-0.9575,-0.9575,-1.0101,-1.0977,-1.1192,-1.1752,-1.2406,-1.2619,-1.2705,-1.2705,-1.2705,-1.2705,-1.2705,-1.2705,-1.2705,-1.2705,-1.2705,-1.2528,-1.24,-1.2619,-1.2705,-1.2705,-1.2705,-1.2705,-1.2705,-1.2705,-1.2705,-1.2705,-1.2705,-1.2705,-1.2705,-1.2705,-1.2705,-1.2705,-1.2705,-1.2705,-1.2705,-1.2705,-1.2705,-1.2705,-1.2705,-1.2705,-1.2705,-1.2705,-1.2705,-1.2705,-1.2705,-1.2705,-1.2705,-1.2705,-1.2705,-1.2705,-1.2705,-1.2705,-1.2705,-1.2705,-1.2705,-1.2705,-1.2705,-1.2705,-1.2705,-1.2705,-1.2705,-1.2705,0.0,-1.1372,-1.1111,-1.1111,-1.1111,-1.1111,-1.1111,-1.1111,-1.1111,-1.1111,0.0,-1.0738,-1.0556,-1.0406,-1.0255,0.0,0.0,0.0,0.0,0.0,0.0,0.0,0.0,0.0,0.0,0.0,0.0,0.0,0.0,0.0,0.0,0.0,0.0,0.0,-0.5688,-0.5688,-0.5688,-0.5688,-0.5822,-0.6083,-0.6083,-0.6567,-0.7445,0.0,0.0,0.0,0.0,0.0,-1.0534,-1.0534,-1.1101,-1.1929,-1.1929,-1.2229,-1.2705,-1.2705,-1.2705,-1.2705,-1.2705,-1.2705,-1.2705,-1.2705,-1.2705,-1.2705,-1.2705,-1.2705,-1.2705,-1.2705,-1.2705,-1.2705,-1.2705,-1.2705,-1.2705,-1.2705,-1.2705,-1.2705,-1.2705,-1.2705,-1.2705,-1.2705,-1.2705,-1.2705,-1.2705,-1.2705,-1.2705,-1.2705,-1.2705,-1.2705,-1.2705,-1.2705,-1.2705,-1.2705,-1.2705,-1.2705,-1.2705,-1.2705,-1.2705,-1.2705,-1.2705,-1.2705,-1.2705,-1.2705,-1.2705,-1.2705,-1.2705,-1.2705,-1.2705,-1.2705,-1.2705,-1.2705,-1.2705,-1.2705,-1.2342,-1.1781,-1.126,-1.1149,-1.1111,-1.1111,-1.1111,-1.1111,-1.1111,-1.1111,0.0,-1.0775,-1.0588,-1.055,0.0,0.0,0.0,0.0,0.0,0.0,0.0,0.0,0.0,0.0,0.0,0.0,0.0,0.0,0.0,0.0,0.0,0.0,0.0,0.0,-0.5866,-0.5952,-0.5952,-0.5952,-0.6216,-0.6653,-0.6653,-0.7265,-0.844,-0.844,0.0,0.0,0.0,0.0,-1.1499,-1.1499,-1.1972,-1.2705,-1.2705,-1.2705,-1.2705,-1.2705,-1.2705,-1.2705,-1.2705,-1.2705,-1.2705,-1.2705,-1.2705,-1.2705,-1.2705,-1.2705,-1.2705,-1.2705,-1.2705,-1.2705,-1.2705,-1.2705,-1.2705,-1.2705,-1.2705,-1.2705,-1.2705,-1.2705,-1.2705,-1.2705,-1.2705,-1.2705,-1.2705,-1.2705,-1.2705,-1.2705,-1.2705,-1.2705,-1.2705,-1.2833,-1.2912,-1.2912,-1.3039,-1.3124,-1.3124,-1.3124,-1.3124,-1.3124,-1.2869,-1.2747,-1.2869,-1.279,-1.2747,-1.2912,-1.279,-1.2705,-1.2705,-1.2705,-1.2705,-1.2705,-1.2705,-1.2705,-1.2482,-1.2224,-1.1966,-1.126,-1.1111,-1.1111,-1.1111,-1.1111,-1.1111,-1.1111,0.0,0.0,0.0,-1.0738,-1.0625,0.0,0.0,0.0,0.0,0.0,0.0,0.0,0.0,0.0,0.0,0.0,0.0,0.0,0.0,0.0,0.0,0.0,0.0,0.0,0.0,-0.7224,-0.7224,-0.7224,-0.7837,-0.9056,-0.9056,-0.9274,-0.9662,-0.9662,-1.0188,0.0,0.0,0.0,-1.2491,-1.2491,-1.2577,-1.2705,-1.2705,-1.2705,-1.2705,-1.2705,-1.2705,-1.2705,-1.2705,-1.2705,-1.2705,-1.2705,-1.2705,-1.2705,-1.2705,-1.2705,-1.2705,-1.2705,-1.2705,-1.2705,-1.2705,-1.2705,-1.2705,-1.2705,-1.2705,-1.2705,-1.2705,-1.2705,-1.2705,-1.2705,-1.2705,-1.2705,-1.2705,-1.2705,-1.2705,-1.2705,-1.2705,-1.2705,-1.2705,-1.333,-1.3795,-1.3795,-1.451,-1.497,-1.497,-1.497,-1.497,-1.497,-1.3548,-1.3039,-1.3753,-1.3082,-1.3039,-1.3795,-1.3082,-1.2705,-1.2705,-1.2705,-1.2705,-1.2705,-1.2705,-1.2705,-1.3062,-1.2291,-1.1558,-1.1186,-1.1111,-1.1111,-1.1111,-1.1111,-1.1111,-1.1111,0.0,0.0,0.0,0.0,0.0,0.0,0.0,0.0,0.0,0.0,0.0,0.0,0.0,0.0,0.0,0.0,0.0,0.0,0.0,0.0,0.0,0.0,0.0,0.0,0.0,0.0,-0.9401,-0.9396,-0.9444,-0.9579,-0.9579,-0.9971,-1.0669,-1.0669,-1.1187,0.0,0.0,-1.2314,-1.2705,-1.2705,-1.2705,-1.2705,-1.2705,-1.2705,-1.2705,-1.2705,-1.2705,-1.2705,-1.2705,-1.2705,-1.2705,-1.2705,-1.2705,-1.2705,-1.2705,-1.2705,-1.2705,-1.2705,-1.2705,-1.2705,-1.2705,-1.2705,-1.2705,-1.2705,-1.2705,-1.2705,-1.2705,-1.2705,-1.2705,-1.2705,-1.3082,-1.3415,-1.3415,-1.3837,-1.4174,-1.4174,-1.4174,-1.4174,-1.4174,-1.451,-1.4761,-1.4761,-1.5137,-1.5394,-1.5394,-1.5394,-1.5394,-1.5394,-1.4636,-1.4342,-1.472,-1.4384,-1.4342,-1.4761,-1.4342,-1.3922,-1.3415,-1.3415,-1.3167,-1.2705,-1.2705,-1.2705,-1.3608,-1.2615,-1.1589,-1.118,-1.1111,-1.1111,-1.1111,-1.1111,-1.1111,-1.1111,0.0,0.0,0.0,0.0,0.0,0.0,0.0,0.0,0.0,0.0,0.0,0.0,0.0,0.0,0.0,0.0,0.0,0.0,0.0,0.0,0.0,0.0,0.0,0.0,0.0,0.0,-1.0999,-1.1262,-1.1047,-1.0318,-1.0318,-1.0799,-1.1628,-1.1628,-1.2015,-1.2705,-1.2705,-1.2705,-1.2705,-1.2705,-1.2705,-1.2705,-1.2705,-1.2705,-1.2705,-1.2705,-1.2705,-1.2705,-1.2705,-1.2705,-1.2705,-1.2705,-1.2705,-1.2705,-1.2705,-1.2705,-1.2747,-1.2954,-1.2997,-1.2954,-1.2747,-1.2705,-1.2705,-1.2705,-1.2875,-1.2997,-1.2997,-1.3167,-1.3336,-1.3336,-1.388,-1.4336,-1.4336,-1.4929,-1.5394,-1.5394,-1.5394,-1.5416,-1.5496,-1.5713,-1.5838,-1.5838,-1.6046,-1.6099,-1.6023,-1.6015,-1.6015,-1.6015,-1.5643,-1.5477,-1.5718,-1.5519,-1.5519,-1.5718,-1.5519,-1.5061,-1.4336,-1.4336,-1.3957,-1.3336,-1.3336,-1.3336,-1.3897,-1.3426,-1.2981,-1.1477,-1.1111,-1.1111,-1.1111,-1.1111,-1.1111,-1.1111,0.0,0.0,0.0,0.0,0.0,0.0,0.0,0.0,0.0,0.0,0.0,0.0,0.0,0.0,0.0,0.0,0.0,0.0,0.0,0.0,0.0,0.0,0.0,0.0,0.0,0.0,-1.0999,-1.2046,-1.2528,-1.2485,-1.2485,-1.2528,-1.2619,-1.2619,-1.2619,-1.2705,-1.2705,-1.2705,-1.2705,-1.2705,-1.2705,-1.2705,-1.2705,-1.2705,-1.2705,-1.2705,-1.2705,-1.2705,-1.2705,-1.2705,-1.2705,-1.2705,-1.2705,-1.2705,-1.2705,-1.2705,-1.2875,-1.3669,-1.3922,-1.3711,-1.2912,-1.2705,-1.2705,-1.2705,-1.333,-1.3922,-1.3922,-1.4594,-1.5228,-1.5228,-1.5269,-1.5311,-1.5311,-1.5352,-1.5394,-1.5394,-1.5394,-1.5496,-1.5817,-1.6634,-1.7165,-1.7165,-1.787,-1.8235,-1.7863,-1.7789,-1.7789,-1.7789,-1.6304,-1.576,-1.6576,-1.5842,-1.5801,-1.6576,-1.5801,-1.5352,-1.5311,-1.5311,-1.5269,-1.5228,-1.5228,-1.5228,-1.3781,-1.3135,-1.2482,-1.1372,-1.1111,-1.1111,-1.1111,-1.1111,-1.1111,-1.1111,-1.1111,0.0,0.0,0.0,0.0,0.0,0.0,0.0,0.0,0.0,0.0,0.0,0.0,0.0,0.0,0.0,0.0,0.0,0.0,0.0,0.0,0.0,0.0,0.0,0.0,0.0,0.0,-1.2485,-1.2705,-1.2705,-1.2705,-1.2705,-1.2705,-1.2705,-1.2705,-1.2705,-1.2705,-1.2705,-1.2705,-1.2705,-1.2705,-1.2705,-1.2705,-1.2705,-1.2705,-1.2705,-1.3039,-1.3499,-1.3499,-1.388,-1.4384,-1.4384,-1.4384,-1.4384,-1.4384,-1.4384,-1.4468,-1.4761,-1.4887,-1.4803,-1.4468,-1.4384,-1.4384,-1.4384,-1.4636,-1.4887,-1.4887,-1.5144,-1.5394,-1.5394,-1.5842,-1.6214,-1.6214,-1.6665,-1.7114,-1.7333,-1.7407,-1.7537,-1.7902,-1.8258,-1.848,-1.848,-1.8566,-1.8434,-1.8025,-1.8,-1.8,-1.8,-1.7375,-1.7164,-1.7497,-1.7212,-1.7164,-1.7489,-1.7164,-1.6796,-1.6378,-1.6378,-1.6165,-1.5771,-1.5771,-1.5771,-1.3789,-1.3098,-1.2402,-1.1372,-1.1111,-1.1111,-1.1111,-1.1111,-1.1111,-1.1111,-1.1111,-1.1111,-1.1111,0.0,0.0,0.0,0.0,0.0,0.0,0.0,0.0,0.0,0.0,0.0,0.0,0.0,0.0,0.0,0.0,0.0,0.0,0.0,0.0,0.0,0.0,0.0,0.0,-1.2705,-1.2705,-1.2705,-1.2705,-1.2705,-1.2705,-1.2705,-1.2705,-1.2705,-1.2705,-1.2705,-1.2705,-1.2997,-1.3294,-1.3542,-1.3542,-1.3542,-1.3542,-1.3542,-1.3922,-1.442,-1.442,-1.4845,-1.5394,-1.5394,-1.5394,-1.5394,-1.5394,-1.5394,-1.5477,-1.5718,-1.5801,-1.5884,-1.6139,-1.5809,-1.5394,-1.5394,-1.5594,-1.5801,-1.5801,-1.6015,-1.6221,-1.6221,-1.6706,-1.7115,-1.7115,-1.7711,-1.8297,-1.8687,-1.8825,-1.9031,-1.9428,-1.9566,-1.9566,-1.9402,-1.9038,-1.8648,-1.8276,-1.8201,-1.8201,-1.8201,-1.8201,-1.8161,-1.8,-1.8,-1.8,-1.8,-1.808,-1.791,-1.7448,-1.7497,-1.7318,-1.6838,-1.6838,-1.6838,-1.3934,-1.3499,-1.3127,-1.1515,-1.1111,-1.1111,-1.1111,-1.1111,-1.1111,-1.1111,-1.1111,-1.1111,-1.1111,0.0,0.0,0.0,0.0,0.0,0.0,0.0,0.0,0.0,0.0,0.0,0.0,0.0,0.0,0.0,0.0,0.0,0.0,0.0,0.0,0.0,0.0,0.0,0.0,-1.2705,-1.2705,-1.2705,-1.2705,-1.2705,-1.2705,-1.2705,-1.2705,-1.2705,-1.2705,-1.2705,-1.279,-1.3669,-1.4552,-1.5394,-1.5394,-1.5394,-1.5394,-1.5394,-1.5394,-1.5436,-1.5436,-1.5436,-1.5436,-1.5436,-1.5436,-1.5436,-1.5436,-1.5436,-1.5602,-1.6453,-1.6698,-1.6911,-1.7781,-1.6714,-1.5436,-1.5436,-1.609,-1.6698,-1.6698,-1.7408,-1.8,-1.8,-1.8,-1.8,-1.8,-1.834,-1.868,-1.8955,-1.9268,-1.9643,-2.0053,-2.036,-2.0297,-1.9855,-1.9507,-1.9158,-1.8727,-1.87,-1.87,-1.87,-1.87,-1.8491,-1.804,-1.8,-1.8,-1.8,-1.8282,-1.8402,-1.8402,-1.8612,-1.87,-1.87,-1.87,-1.87,-1.3934,-1.3499,0.0,-1.1515,0.0,0.0,0.0,-1.1111,-1.1111,0.0,-1.1111,-1.1111,-1.1111,0.0,0.0,0.0,0.0,0.0,0.0,0.0,0.0,0.0,0.0,0.0,0.0,0.0,0.0,0.0,0.0,0.0,0.0,0.0,0.0,0.0,0.0,0.0,0.0,0.0,-1.2705,-1.2705,-1.2705,-1.2705,-1.2705,-1.2705,-1.2705,-1.2747,-1.333,-1.3626,-1.3711,-1.4594,-1.5144,-1.5394,-1.5394,-1.5394,-1.5436,-1.5545,-1.6,-1.6542,-1.6542,-1.696,-1.7489,-1.7294,-1.7212,-1.7212,-1.7212,-1.7212,-1.7294,-1.7538,-1.774,-1.7942,-1.8193,-1.7902,-1.7448,-1.7294,-1.7416,-1.7619,-1.7619,-1.7829,-1.8,-1.8,-1.8152,-1.8282,-1.8282,-1.8717,-1.9191,-1.9523,-1.9927,-2.0316,-2.0695,-2.0784,-2.058,-1.9881,-1.9713,-1.9377,-1.8754,-1.87,-1.87,-1.87,-1.87,-1.866,-1.8491,-1.8491,-1.8491,-1.8491,-1.8571,-1.8692,-1.8843,-1.8882,-1.8962,-1.9112,-1.9112,-1.9112,-1.3825,-1.328,0.0,-1.1403,-1.1111,-1.1111,-1.1111,0.0,0.0,0.0,0.0,-1.1111,0.0,0.0,0.0,0.0,0.0,0.0,0.0,0.0,0.0,0.0,0.0,0.0,0.0,0.0,0.0,0.0,0.0,0.0,0.0,0.0,0.0,0.0,0.0,0.0,0.0,0.0,0.0,-1.2705,-1.3039,-1.3209,-1.3209,-1.2875,-1.2869,-1.3288,-1.4174,-1.4754,-1.5123,-1.567,-1.6131,-1.6427,-1.6542,-1.6583,-1.6624,-1.6821,-1.7155,-1.757,-1.757,-1.7861,-1.8233,-1.8201,-1.8161,-1.8161,-1.8241,-1.8282,-1.8282,-1.8282,-1.8402,-1.8523,-1.8523,-1.8523,-1.8442,-1.8241,-1.8161,-1.8161,-1.8161,-1.8201,-1.8282,-1.8282,-1.8411,-1.8575,-1.8725,-1.9159,-1.9674,-2.0107,-2.0552,-2.0979,-2.1248,-2.1186,-2.089,-2.0146,-2.0065,-1.9784,-1.8994,-1.8922,-1.8922,-1.8922,-1.8922,-1.8922,-1.8922,-1.8772,-1.87,-1.87,-1.8772,-1.8891,-1.9002,-1.9073,-1.9192,-1.9301,-1.9301,-1.9301,-1.3709,-1.2952,-1.2187,-1.1335,-1.1111,0.0,-1.1111,-1.1111,-1.1111,-1.1111,0.0,0.0,0.0,0.0,0.0,0.0,0.0,0.0,0.0,0.0,0.0,0.0,0.0,0.0,0.0,0.0,0.0,0.0,0.0,0.0,0.0,0.0,0.0,0.0,0.0,0.0,0.0,0.0,0.0,0.0,-1.3753,-1.4126,-1.4084,-1.3294,-1.3415,-1.4294,-1.5137,-1.6008,-1.6821,-1.6821,-1.7286,-1.808,-1.8322,-1.8402,-1.8442,-1.8652,-1.8612,-1.8434,-1.8434,-1.8322,-1.8121,-1.8362,-1.8442,-1.8442,-1.8652,-1.87,-1.87,-1.87,-1.87,-1.874,-1.874,-1.874,-1.8692,-1.8482,-1.8442,-1.8442,-1.8442,-1.8571,-1.87,-1.87,-1.87,-1.8865,-1.9238,-1.9638,-2.009,-2.077,-2.1193,-2.1482,-2.1696,-2.1526,-2.1174,-2.057,-2.0521,-2.0191,-1.9366,-1.9301,-1.9301,-1.9301,-1.9301,-1.9301,-1.9301,-1.8962,-1.8732,-1.8732,-1.8922,-1.9042,-1.9042,-1.9222,-1.9301,-1.9301,-1.9301,-1.9301,-1.3861,-1.339,0.0,-1.144,-1.1111,-1.1111,-1.1111,-1.1111,-1.1111,-1.1111,0.0,0.0,0.0,0.0,0.0,0.0,0.0,0.0,0.0,0.0,0.0,0.0,0.0,0.0,0.0,0.0,0.0,0.0,0.0,0.0,0.0,0.0,0.0,0.0,0.0,0.0,-1.3711,-1.3711,-1.409,0.0,-1.5012,-1.5103,-1.5095,-1.4887,-1.5296,-1.6116,-1.6329,-1.6911,-1.7708,-1.7708,-1.7951,-1.8322,-1.8402,-1.8482,-1.8652,-1.8851,-1.8922,-1.8873,-1.8873,-1.8834,-1.8763,-1.8652,-1.8652,-1.8652,-1.87,-1.87,-1.87,-1.87,-1.8812,-1.8922,-1.8922,-1.8922,-1.8922,-1.8882,-1.8763,-1.8652,-1.8652,-1.866,-1.87,-1.87,-1.8812,-1.9048,-1.9475,-1.9996,-2.0598,-2.1405,-2.1596,-2.1651,-2.1687,-2.1651,-2.1341,-2.0561,-2.0521,-2.0191,-1.9366,-1.9301,-1.9301,-1.9301,-1.9301,-1.9301,-1.9301,-1.9231,-1.9152,-1.9152,-1.9222,-1.9222,-1.9222,-1.9262,-1.9301,-1.9301,-1.9301,-1.9301,0.0,0.0,0.0,-1.1409,0.0,-1.1111,-1.1111,-1.1111,-1.1111,0.0,0.0,0.0,0.0,0.0,0.0,0.0,0.0,0.0,0.0,0.0,0.0,0.0,0.0,0.0,0.0,0.0,0.0,0.0,0.0,0.0,0.0,0.0,0.0,0.0,0.0,0.0,-1.3999,-1.4468,-1.4929,-1.5394,-1.5842,-1.6255,-1.6632,-1.6214,-1.6247,-1.6739,-1.7155,-1.7578,-1.8,-1.8161,-1.8273,-1.8442,-1.8594,-1.8763,-1.8851,-1.9073,-1.9073,-1.9002,-1.9002,-1.8922,-1.8851,-1.8851,-1.8851,-1.8851,-1.8962,-1.9002,-1.9002,-1.9002,-1.9073,-1.9152,-1.9152,-1.9152,-1.9152,-1.9152,-1.9002,-1.8851,-1.8851,-1.8922,-1.9002,-1.9002,-1.9073,-1.9334,-1.9934,-2.0983,-2.204,-2.2916,-2.3028,-2.3028,-2.3028,-2.3028,-2.2645,-2.1584,-2.162,-2.1154,-1.969,-1.9769,-1.9883,-1.9883,-1.9883,-2.007,-2.0489,-2.0489,-2.0304,-1.9883,-2.0265,-2.0489,-2.0489,-2.007,-1.9883,-1.9883,-1.9499,-1.9301,0.0,-1.36,-1.2335,-1.1521,-1.1329,0.0,-1.1149,-1.1111,-1.1111,0.0,0.0,0.0,0.0,0.0,0.0,0.0,0.0,0.0,0.0,0.0,0.0,0.0,0.0,0.0,0.0,0.0,0.0,0.0,0.0,0.0,0.0,0.0,0.0,0.0,0.0,-1.4168,-1.4455,-1.522,-1.5684,-1.585,-1.6583,-1.7286,-1.8,-1.7245,-1.6903,-1.6952,-1.77,-1.804,-1.808,-1.8322,-1.8442,-1.8563,-1.8873,-1.9002,-1.9073,-1.9222,-1.9183,-1.9042,-1.9042,-1.8922,-1.8812,-1.9002,-1.9042,-1.9073,-1.9262,-1.9301,-1.9301,-1.9301,-1.942,-1.9499,-1.9499,-1.9608,-1.9726,-1.9726,-1.9618,-1.942,-1.9311,-1.9499,-1.9726,-1.9726,-1.9839,-2.0158,-2.0842,-2.2283,-2.3617,-2.437,-2.4498,-2.4498,-2.4498,-2.4498,-2.4057,-2.2849,-2.294,-2.2332,-2.0514,-2.0594,-2.0731,-2.0731,-2.0731,-2.1039,-2.1766,-2.1918,-2.169,-2.0962,-2.1489,-2.1794,-2.1794,-2.1078,-2.0731,-2.0692,-1.9883,-1.9499,0.0,0.0,-1.3273,0.0,-1.2254,-1.2168,0.0,0.0,0.0,0.0,0.0,0.0,0.0,0.0,0.0,0.0,0.0,0.0,0.0,0.0,0.0,0.0,0.0,0.0,0.0,0.0,0.0,0.0,0.0,0.0,0.0,0.0,-1.3039,-1.3795,-1.3957,0.0,-1.6322,-1.6453,-1.6911,-1.7668,-1.7789,-1.787,-1.8,-1.787,-1.7829,-1.7829,-1.7951,-1.8112,-1.8362,-1.8402,-1.8603,-1.8922,-1.8962,-1.9112,-1.9262,-1.9301,-1.9262,-1.9262,-1.9262,-1.9222,-1.9222,-1.9262,-1.9262,-1.9262,-1.9301,-1.9301,-1.9301,-1.9301,-1.9805,-2.0343,-2.0343,-2.0885,-2.1451,-2.1451,-2.1451,-2.1221,-2.0459,-2.0914,-2.1451,-2.1451,-2.2084,-2.2645,-2.2727,-2.3627,-2.436,-2.4498,-2.4498,-2.4498,-2.4498,-2.4498,-2.4312,-2.3763,-2.335,-2.2855,-2.2215,-2.1832,-2.1652,-2.1652,-2.1652,-2.168,-2.1794,-2.2456,-2.2767,-2.2654,-2.2107,-2.1794,-2.1794,-2.168,-2.1652,-2.1614,-2.0731,-2.0343,-1.4974,-1.4645,-1.4322,0.0,-1.2931,-1.2498,-1.2174,0.0,0.0,0.0,0.0,0.0,0.0,0.0,0.0,0.0,0.0,0.0,0.0,0.0,0.0,0.0,0.0,0.0,0.0,0.0,0.0,0.0,0.0,0.0,0.0,-1.2908,-1.3316,-1.4128,-1.4818,0.0,-1.6372,-1.7057,-1.7619,-1.8,-1.8,-1.8,-1.8,-1.8161,-1.8241,-1.8241,-1.8241,-1.8362,-1.8571,-1.8683,-1.8843,-1.9002,-1.9112,-1.9222,-1.9301,-1.9301,-1.9301,-1.9301,-1.9301,-1.9301,-1.9381,-1.9844,-1.9648,-1.949,-2.0421,-2.0031,-1.949,-2.0459,-2.0615,-2.0615,-2.1116,-2.1489,-2.1794,-2.1794,-2.2145,-2.2381,-2.2004,-2.1842,-2.1877,-2.2136,-2.2666,-2.3356,-2.4145,-2.4794,-2.5421,-2.5946,-2.5988,-2.5988,-2.5988,-2.5988,-2.5734,-2.5027,-2.4726,-2.4086,-2.2922,-2.2604,-2.2456,-2.2456,-2.2456,-2.2681,-2.3128,-2.3471,-2.3666,-2.3666,-2.3324,-2.3128,-2.3128,-2.2681,-2.2456,-2.2456,-2.1614,-2.1221,0.0,0.0,-1.5365,-1.4522,-1.3839,-1.3295,0.0,0.0,0.0,0.0,0.0,0.0,0.0,0.0,0.0,0.0,0.0,0.0,0.0,0.0,0.0,0.0,0.0,0.0,0.0,0.0,0.0,0.0,0.0,0.0,-1.3087,-1.3291,-1.3764,-1.4591,-1.549,-1.6134,-1.6467,-1.7483,-1.8,-1.8,-1.808,-1.8121,-1.8121,-1.8585,-1.8825,-1.8856,-1.8594,-1.8612,-1.8772,-1.8922,-1.9152,-1.9381,-1.9301,-1.942,-1.9569,-1.9381,-1.9301,-1.9341,-1.9529,-1.9608,-1.9726,-2.0576,-2.0421,-2.0187,-2.1413,-2.0914,-2.0187,-2.1451,-2.1499,-2.127,-2.1956,-2.2258,-2.2408,-2.2408,-2.2868,-2.3298,-2.3298,-2.283,-2.2547,-2.3015,-2.3445,-2.4153,-2.5337,-2.5894,-2.6393,-2.7097,-2.719,-2.719,-2.719,-2.719,-2.6921,-2.6216,-2.5893,-2.5177,-2.3884,-2.346,-2.3298,-2.3298,-2.3298,-2.3556,-2.4164,-2.42,-2.42,-2.42,-2.42,-2.42,-2.42,-2.3593,-2.3298,-2.3298,-2.2494,-2.2107,0.0,-1.6368,0.0,-1.5374,-1.5259,0.0,0.0,0.0,0.0,0.0,0.0,0.0,0.0,0.0,0.0,0.0,0.0,0.0,0.0,0.0,0.0,0.0,0.0,0.0,0.0,0.0,0.0,0.0,0.0,0.0,-1.3087,-1.3803,-1.463,-1.5504,-1.5597,-1.6205,-1.7427,-1.7803,-1.8,-1.8,-1.8282,-1.8402,-1.8393,-1.9362,-1.9933,-2.0041,-1.9112,-1.8812,-1.9002,-1.9002,-1.9578,-2.0352,-1.9569,-1.9766,-2.0352,-1.9569,-1.9301,-1.942,-2.0148,-2.043,-2.0576,-2.1451,-2.168,-2.169,-2.1766,-2.1728,-2.169,-2.1794,-2.2306,-2.2879,-2.2927,-2.3482,-2.408,-2.408,-2.4116,-2.4152,-2.4152,-2.4116,-2.4228,-2.4659,-2.5184,-2.5748,-2.633,-2.6806,-2.7138,-2.719,-2.719,-2.719,-2.719,-2.719,-2.719,-2.7138,-2.6284,-2.5665,-2.5549,-2.47,-2.4152,-2.4152,-2.4152,-2.4164,-2.42,-2.42,-2.42,-2.42,-2.42,-2.42,-2.42,-2.4164,-2.4152,-2.4116,-2.3298,-2.2927,0.0,0.0,0.0,-1.6368,-1.5895,-1.5428,0.0,0.0,0.0,0.0,0.0,0.0,0.0,0.0,0.0,0.0,0.0,0.0,0.0,0.0,0.0,0.0,0.0,0.0,0.0,0.0,0.0,0.0,0.0,0.0,-1.4052,-1.4356,-1.488,-1.571,-1.6045,-1.6728,-1.767,-1.7682,-1.7871,-1.8282,-1.8353,-1.8745,-1.9362,-1.9855,-2.0391,-2.0971,-2.076,-2.0731,-2.0808,-2.0808,-2.0991,-2.1298,-2.1029,-2.1068,-2.1308,-2.0991,-2.0914,-2.0952,-2.1221,-2.1336,-2.1461,-2.2306,-2.222,-2.1983,-2.3016,-2.2633,-2.2031,-2.3054,-2.3176,-2.3113,-2.3641,-2.397,-2.42,-2.42,-2.42,-2.42,-2.42,-2.42,-2.4441,-2.5268,-2.5578,-2.598,-2.6806,-2.7075,-2.719,-2.719,-2.719,-2.719,-2.719,-2.719,-2.719,-2.719,-2.6324,-2.5716,-2.5716,-2.4786,-2.4273,-2.4381,-2.4381,-2.4454,-2.4574,-2.461,-2.461,-2.461,-2.461,-2.4454,-2.42,-2.42,-2.42,-2.4189,-2.3897,-2.3787,-1.6751,0.0,0.0,0.0,0.0,-1.6,0.0,0.0,0.0,0.0,0.0,0.0,0.0,0.0,0.0,0.0,0.0,0.0,0.0,0.0,0.0,0.0,0.0,0.0,0.0,0.0,0.0,0.0,0.0,0.0,-1.4681,-1.5002,-1.5409,-1.5929,-1.6436,-1.6954,-1.7471,-1.7618,-1.7909,-1.8289,-1.8492,-1.9094,-2.0012,-2.0508,-2.1173,-2.1945,-2.2397,-2.2295,-2.1794,-2.1794,-2.1956,-2.2182,-2.1918,-2.1956,-2.2182,-2.1918,-2.1794,-2.1842,-2.2107,-2.2193,-2.2344,-2.3139,-2.3027,-2.282,-2.3886,-2.3434,-2.283,-2.3897,-2.3824,-2.353,-2.4043,-2.4236,-2.4309,-2.4309,-2.4345,-2.4381,-2.4309,-2.4363,-2.4694,-2.5543,-2.5853,-2.6232,-2.7041,-2.719,-2.7231,-2.7301,-2.7301,-2.7342,-2.7435,-2.7435,-2.7377,-2.7204,-2.6417,-2.5827,-2.5654,-2.4867,-2.4454,-2.461,-2.461,-2.4646,-2.479,-2.479,-2.479,-2.479,-2.479,-2.4682,-2.4381,-2.4381,-2.4381,-2.4381,-2.4381,-2.4381,0.0,0.0,0.0,0.0,0.0,0.0,0.0,0.0,0.0,0.0,0.0,0.0,0.0,0.0,0.0,0.0,0.0,0.0,0.0,0.0,0.0,0.0,0.0,0.0,0.0,0.0,0.0,0.0,0.0,-1.4939,-1.4939,-1.5806,-1.6307,-1.6307,-1.667,-1.69,-1.6918,-1.769,-1.808,-1.8136,-1.8725,-1.945,-2.0275,-2.1364,-2.2258,-2.3075,-2.3861,-2.3313,-2.188,-2.188,-2.2344,-2.2964,-2.2182,-2.2344,-2.2953,-2.2145,-2.188,-2.1993,-2.2767,-2.3038,-2.315,-2.3934,-2.42,-2.42,-2.42,-2.42,-2.42,-2.4236,-2.4236,-2.4236,-2.4236,-2.4345,-2.449,-2.449,-2.4646,-2.4765,-2.4538,-2.4726,-2.5073,-2.5601,-2.6145,-2.6651,-2.7139,-2.7231,-2.7301,-2.7482,-2.751,-2.7615,-2.7893,-2.7893,-2.7693,-2.7176,-2.6623,-2.6094,-2.554,-2.5083,-2.479,-2.479,-2.479,-2.479,-2.479,-2.479,-2.479,-2.479,-2.479,-2.479,-2.479,-2.479,-2.479,-2.479,-2.479,-2.479,-1.6908,0.0,0.0,0.0,0.0,0.0,0.0,0.0,0.0,0.0,0.0,0.0,0.0,0.0,0.0,0.0,0.0,0.0,0.0,0.0,0.0,0.0,0.0,0.0,0.0,0.0,0.0,0.0,0.0,-1.5912,-1.5912,-1.6167,-1.6377,-1.6508,-1.6475,-1.6679,-1.7108,-1.747,-1.7899,-1.8339,-1.9364,-2.0401,-2.1403,-2.2258,-2.3102,-2.3897,-2.4116,-2.397,-2.3545,-2.3545,-2.3666,-2.3861,-2.3618,-2.3666,-2.3824,-2.3629,-2.3545,-2.3593,-2.3787,-2.3861,-2.3897,-2.4127,-2.42,-2.4236,-2.4381,-2.4418,-2.4465,-2.461,-2.4646,-2.4646,-2.4646,-2.4682,-2.4718,-2.4718,-2.4754,-2.479,-2.4718,-2.5031,-2.5485,-2.601,-2.627,-2.6656,-2.7567,-2.7731,-2.7719,-2.7788,-2.78,-2.7841,-2.7881,-2.7893,-2.7693,-2.7176,-2.6623,-2.6094,-2.554,-2.5083,-2.4861,-2.5016,-2.5016,-2.5052,-2.5147,-2.5147,-2.5147,-2.5147,-2.5147,-2.5147,-2.5147,-2.4921,-2.479,-2.479,-2.479,-2.479,0.0,0.0,0.0,0.0,0.0,0.0,0.0,-1.6734,0.0,0.0,0.0,0.0,0.0,0.0,0.0,0.0,0.0,0.0,0.0,0.0,0.0,0.0,0.0,0.0,0.0,0.0,0.0,0.0,-1.6123,-1.6473,-1.656,-1.6551,-1.6586,-1.6716,-1.6621,-1.6738,-1.7079,-1.7651,-1.8239,-1.8798,-1.9973,-2.1154,-2.2306,-2.2804,-2.3446,-2.42,-2.42,-2.42,-2.42,-2.42,-2.42,-2.42,-2.42,-2.42,-2.42,-2.42,-2.42,-2.42,-2.42,-2.4261,-2.4309,-2.4309,-2.4381,-2.4454,-2.461,-2.4646,-2.4646,-2.4754,-2.479,-2.4825,-2.4885,-2.4921,-2.4921,-2.4921,-2.4957,-2.4992,-2.4957,-2.5182,-2.5537,-2.5883,-2.6153,-2.6564,-2.7422,-2.7564,-2.7674,-2.7966,-2.803,-2.807,-2.8122,-2.8163,-2.7878,-2.7103,-2.6735,-2.6237,-2.5479,-2.5158,-2.5052,-2.5182,-2.5182,-2.5206,-2.5312,-2.5312,-2.5441,-2.5756,-2.5453,-2.5312,-2.5312,-2.5123,-2.5016,-2.5016,-2.5016,-2.5016,0.0,0.0,0.0,0.0,0.0,0.0,-1.6908,-1.6872,-1.6844,0.0,0.0,0.0,0.0,0.0,0.0,0.0,0.0,0.0,0.0,0.0,0.0,0.0,0.0,0.0,0.0,0.0,-1.6386,-1.6386,-1.6542,-1.6716,-1.6908,-1.6908,-1.6908,-1.6908,-1.6968,-1.7003,-1.7003,-1.8139,-1.8945,-1.943,-2.06,-2.1776,-2.3001,-2.3075,-2.3519,-2.42,-2.42,-2.42,-2.42,-2.4225,-2.4236,-2.42,-2.42,-2.42,-2.42,-2.42,-2.42,-2.4236,-2.4236,-2.4381,-2.4538,-2.4538,-2.4646,-2.479,-2.4825,-2.4825,-2.4825,-2.4861,-2.4861,-2.4885,-2.5087,-2.5111,-2.5111,-2.5111,-2.5218,-2.5276,-2.5147,-2.5206,-2.5337,-2.5452,-2.5897,-2.6464,-2.698,-2.7074,-2.7317,-2.8052,-2.8136,-2.8239,-2.8459,-2.853,-2.8147,-2.7144,-2.7062,-2.6602,-2.5502,-2.5406,-2.5406,-2.5406,-2.5406,-2.5453,-2.5546,-2.5546,-2.5861,-2.6517,-2.5896,-2.5546,-2.5546,-2.537,-2.5312,-2.5312,-2.5312,-2.5312,0.0,0.0,0.0,0.0,0.0,0.0,-1.6908,-1.6661,-1.6431,0.0,0.0,0.0,0.0,0.0,0.0,0.0,0.0,0.0,0.0,0.0,0.0,0.0,0.0,0.0,0.0,0.0,-1.6769,-1.6769,-1.683,-1.6864,-1.6908,-1.6908,-1.6908,-1.6908,-1.7467,-1.7808,-1.7808,-1.8873,-1.9655,-2.0211,-2.1398,-2.2327,-2.3001,-2.3666,-2.4043,-2.42,-2.42,-2.42,-2.42,-2.4381,-2.4345,-2.42,-2.42,-2.42,-2.42,-2.42,-2.4309,-2.4454,-2.4454,-2.4574,-2.4754,-2.4754,-2.4754,-2.4825,-2.4992,-2.5052,-2.5052,-2.5182,-2.5218,-2.5218,-2.5241,-2.5276,-2.5276,-2.5276,-2.5276,-2.5276,-2.5276,-2.5276,-2.53,-2.5337,-2.578,-2.6319,-2.6844,-2.694,-2.7119,-2.7711,-2.7795,-2.799,-2.845,-2.866,-2.8499,-2.7853,-2.7944,-2.7538,-2.6305,-2.6186,-2.6186,-2.6186,-2.6186,-2.6436,-2.7035,-2.7069,-2.7149,-2.7284,-2.7136,-2.7069,-2.7069,-2.5884,-2.5312,-2.5312,-2.5312,-2.5312,0.0,0.0,0.0,-1.6908,0.0,0.0,0.0,-1.6752,-1.6551,0.0,0.0,0.0,0.0,0.0,0.0,0.0,0.0,0.0,0.0,0.0,0.0,0.0,0.0,0.0,0.0,0.0,-1.6908,-1.6908,-1.6908,-1.6908,-1.6908,-1.6908,-1.7072,-1.7442,-1.7799,-1.8162,-1.8509,-1.9396,-2.023,-2.1002,-2.1989,-2.2865,-2.3593,-2.4007,-2.42,-2.42,-2.42,-2.4467,-2.4862,-2.4969,-2.5004,-2.4945,-2.4622,-2.449,-2.4526,-2.4886,-2.4862,-2.4706,-2.5028,-2.5076,-2.4957,-2.4957,-2.4992,-2.5087,-2.5182,-2.5218,-2.5218,-2.5276,-2.5312,-2.5312,-2.5312,-2.5312,-2.5312,-2.5312,-2.5312,-2.5312,-2.5312,-2.5312,-2.5418,-2.5791,-2.6082,-2.6296,-2.6455,-2.6514,-2.6657,-2.721,-2.7881,-2.8307,-2.8269,-2.8925,-2.9065,-2.8234,-2.8226,-2.7928,-2.7032,-2.6947,-2.6947,-2.6947,-2.6947,-2.7116,-2.7471,-2.7517,-2.7517,-2.7517,-2.7835,-2.7835,-2.7517,-2.6765,-2.6389,-2.6389,-2.6035,-2.607,0.0,0.0,0.0,0.0,0.0,-1.6908,0.0,0.0,0.0,0.0,0.0,0.0,0.0,0.0,0.0,0.0,0.0,0.0,0.0,0.0,0.0,0.0,0.0,0.0,0.0,0.0,-1.6908,-1.6908,-1.6908,-1.6908,-1.6908,-1.7038,-1.7373,-1.7969,-1.8263,-1.8667,-1.921,-1.9933,-2.082,-2.1896,-2.2457,-2.3283,-2.4309,-2.4273,-2.4273,-2.4309,-2.4394,-2.4862,-2.5556,-2.5765,-2.5904,-2.5998,-2.5441,-2.5123,-2.5087,-2.5755,-2.5697,-2.5324,-2.5871,-2.5836,-2.5523,-2.5394,-2.5418,-2.5523,-2.5523,-2.5523,-2.5523,-2.5523,-2.5418,-2.5312,-2.5312,-2.5418,-2.5523,-2.5523,-2.5616,-2.5709,-2.5709,-2.5709,-2.5884,-2.6517,-2.662,-2.6553,-2.6391,-2.6357,-2.6553,-2.7078,-2.8101,-2.8657,-2.8243,-2.9174,-2.9495,-2.861,-2.8549,-2.8318,-2.7743,-2.7703,-2.7703,-2.7703,-2.7703,-2.7769,-2.7914,-2.7901,-2.7901,-2.7901,-2.8454,-2.8454,-2.7901,-2.7901,-2.7782,-2.7484,-2.6879,-2.6913,0.0,0.0,0.0,0.0,-1.6908,0.0,0.0,0.0,0.0,0.0,0.0,0.0,0.0,0.0,0.0,0.0,0.0,0.0,0.0,0.0,0.0,0.0,0.0,0.0,0.0,0.0,0.0,-1.6908,-1.6908,-1.6908,-1.6908,-1.7501,-1.7901,-1.8003,-1.9199,-1.9901,-1.9966,-2.07,-2.1675,-2.2855,-2.2923,-2.3572,-2.4718,-2.4538,-2.4574,-2.4754,-2.517,-2.5498,-2.5812,-2.6659,-2.701,-2.701,-2.6761,-2.6249,-2.5755,-2.6523,-2.6828,-2.6942,-2.701,-2.7124,-2.7116,-2.6449,-2.6242,-2.6277,-2.6277,-2.6277,-2.6277,-2.6277,-2.5791,-2.5312,-2.5312,-2.5791,-2.6277,-2.6277,-2.6778,-2.7237,-2.7237,-2.7237,-2.7271,-2.7351,-2.7384,-2.7364,-2.7361,-2.7341,-2.7535,-2.8071,-2.8283,-2.8512,-2.8918,-2.922,-2.9342,-2.9208,-2.9338,-2.9172,-2.8441,-2.8395,-2.8395,-2.8395,-2.8395,-2.868,-2.9338,-2.9369,-2.9369,-2.9369,-2.9432,-2.9432,-2.9369,-2.9369,-2.8707,-2.7517,-2.7417,-2.7417,0.0,0.0,0.0,0.0,0.0,0.0,0.0,0.0,-1.6798,0.0,0.0,0.0,0.0,0.0,0.0,0.0,0.0,0.0,0.0,0.0,0.0,0.0,0.0,0.0,0.0,0.0,0.0,0.0,0.0,-1.6908,-1.6908,-1.7604,-1.824,-1.8734,-1.9737,-2.0528,-2.1031,-2.1328,-2.2043,-2.3114,-2.3114,-2.3698,-2.479,-2.4718,-2.4945,-2.5406,-2.558,-2.6261,-2.7291,-2.767,-2.7887,-2.8005,-2.8344,-2.7789,-2.6888,-2.7564,-2.7644,-2.7425,-2.7808,-2.7756,-2.7451,-2.7149,-2.7048,-2.7048,-2.7048,-2.7048,-2.7048,-2.7048,-2.6812,-2.6561,-2.6561,-2.6812,-2.7048,-2.7048,-2.7271,-2.7517,-2.7517,-2.7517,-2.7604,-2.7986,-2.8084,-2.8228,-2.8643,-2.8045,-2.7562,-2.7798,-2.8497,-2.8939,-2.8765,-2.9492,-2.9845,-2.95,-2.9568,-2.9463,-2.9153,-2.9153,-2.9153,-2.9153,-2.9153,-2.9293,-2.9571,-2.9602,-2.9602,-2.9602,-2.9602,-2.9602,-2.9602,-2.9602,-2.9306,-2.8707,-2.8293,-2.8325,-1.7012,0.0,0.0,0.0,0.0,0.0,0.0,0.0,0.0,0.0,0.0,0.0,0.0,0.0,0.0,0.0,0.0,0.0,0.0,0.0,0.0,0.0,0.0,0.0,0.0,0.0,0.0,0.0,-1.6982,0.0,-1.7047,-1.7935,-1.8734,-1.9365,-2.0291,-2.1063,-2.1698,-2.1839,-2.2389,-2.3282,-2.3423,-2.4,-2.4957,-2.5087,-2.5453,-2.5963,-2.633,-2.7211,-2.8371,-2.8578,-2.8707,-2.8839,-2.9401,-2.8976,-2.8143,-2.8615,-2.8487,-2.8143,-2.8648,-2.8344,-2.7769,-2.7769,-2.7769,-2.7769,-2.7769,-2.7769,-2.7769,-2.7769,-2.7637,-2.7517,-2.7517,-2.7637,-2.7769,-2.7769,-2.7934,-2.8078,-2.8078,-2.8078,-2.8208,-2.8712,-2.8807,-2.898,-2.9509,-2.8739,-2.8078,-2.8078,-2.8912,-2.9361,-2.8862,-2.9636,-3.0076,-2.9659,-2.9602,-2.9602,-2.9602,-2.9602,-2.9602,-2.9602,-2.9602,-2.9602,-2.9602,-2.9602,-2.9602,-2.9602,-2.9602,-2.9602,-2.9602,-2.9602,-2.9602,-2.9571,-2.9044,-2.9089,0.0,0.0,0.0,0.0,0.0,0.0,0.0,0.0,-1.6899,0.0,0.0,0.0,0.0,0.0,0.0,0.0,0.0,0.0,0.0,0.0,0.0,0.0,0.0,0.0,0.0,0.0,0.0,0.0,-1.7132,0.0,-1.747,-1.8811,-1.9562,-1.9595,-2.0935,-2.1667,-2.1698,-2.2224,-2.2808,-2.3494,-2.4028,-2.4621,-2.5312,-2.5814,-2.6161,-2.6449,-2.7683,-2.8325,-2.8556,-2.9261,-2.9571,-2.9571,-2.9571,-2.9571,-2.954,-2.954,-2.954,-2.954,-2.954,-2.9089,-2.846,-2.846,-2.846,-2.846,-2.846,-2.846,-2.846,-2.846,-2.7986,-2.7517,-2.7517,-2.7986,-2.846,-2.846,-2.9012,-2.954,-2.954,-2.954,-2.954,-2.9571,-2.9571,-2.9571,-2.9602,-2.9571,-2.954,-2.954,-2.9554,-2.9599,-2.9571,-2.9585,-2.9631,-2.9602,-2.9602,-2.9602,-2.9602,-2.9602,-2.9602,-2.9602,-2.9602,-2.9602,-2.9602,-2.9602,-2.9602,-2.9602,-2.9602,-2.9602,-2.9602,-2.9602,-2.9602,-2.9602,-2.9571,-2.9571,0.0,0.0,-1.7358,-1.7141,0.0,0.0,0.0,0.0,0.0,0.0,0.0,0.0,0.0,0.0,0.0,0.0,0.0,0.0,0.0,0.0,0.0,0.0,0.0,0.0,0.0,0.0,0.0,-1.6736,-1.72,-1.7691,0.0,-1.9067,-1.9857,-2.043,-2.1336,-2.1917,-2.2042,-2.2556,-2.3114,-2.3706,-2.4682,-2.5481,-2.6035,-2.6731,-2.7291,-2.7808,-2.8247,-2.8757,-2.9261,-2.9509,-2.9602,-2.9602,-2.9602,-2.9602,-2.9602,-2.9602,-2.9602,-2.9602,-2.9602,-2.9432,-2.923,-2.923,-2.923,-2.923,-2.923,-2.923,-2.923,-2.923,-2.9071,-2.8881,-2.8881,-2.9071,-2.923,-2.923,-2.9432,-2.9602,-2.9602,-2.9602,-2.9602,-2.9602,-2.9602,-2.9602,-2.9602,-2.9602,-2.9602,-2.9602,-2.9602,-2.9602,-2.9602,-2.9602,-2.9602,-2.9602,-2.9602,-2.9602,-2.9602,-2.9602,-2.9602,-2.9602,-2.9602,-2.9602,-2.9602,-2.9602,-2.9602,-2.9602,-2.9602,-2.9602,-2.9602,-2.9602,-2.9602,-2.9602,-2.9602,-2.9602,-1.8011,-1.7916,0.0,0.0,-1.7417,0.0,0.0,0.0,0.0,0.0,0.0,0.0,0.0,0.0,0.0,0.0,0.0,0.0,0.0,0.0,0.0,0.0,0.0,0.0,0.0,0.0,-1.6618,-1.6683,-1.7542,-1.8216,0.0,0.0,-2.0376,-2.0953,-2.162,-2.2061,-2.2197,-2.2939,-2.3469,-2.3806,-2.5215,-2.6076,-2.6414,-2.7404,-2.8084,-2.8524,-2.8776,-2.9153,-2.9602,-2.9602,-2.9602,-2.9602,-2.9602,-2.9602,-2.9602,-2.9602,-2.9602,-2.9602,-2.9602,-2.9602,-2.9602,-2.9602,-2.9602,-2.9602,-2.9602,-2.9602,-2.9602,-2.9602,-2.9602,-2.9602,-2.9602,-2.9602,-2.9602,-2.9602,-2.9634,-2.9682,-2.9682,-2.9727,-2.9772,-2.9682,-2.9727,-2.9772,-2.9682,-2.9682,-2.9651,-2.9602,-2.9602,-2.9602,-2.9602,-2.9602,-2.9602,-2.9602,-2.9602,-2.9602,-2.9602,-2.9602,-2.9602,-2.9602,-2.9602,-2.9602,-2.9602,-2.9602,-2.9715,-2.994,-2.9715,-2.9715,-2.994,-2.9715,-2.9602,-2.9602,-2.9602,-2.9602]},{"header":{"parameterUnit":"m.s-1","parameterCategory":1,"la1":30.6,"la2":29.2853,"lo1":-89.7004,"lo2":-87.6739,"dx":0.0162,"dy":0.0183,"nx":112,"ny":82,"refTime":"2023-01-27T06:00:00:Z","depth":0,"parameterNumber":3,"parameterNumberName":"V-component_of_WINDS"},"data":[0.0,0.0,0.0,0.0,0.0,0.0,0.0,0.0,0.0,0.0,0.0,0.0,0.0,0.0,0.0,0.0,0.0,0.0,0.0,0.0,0.0,0.0,0.0,0.0,0.0,0.0,0.0,0.0,0.0,0.0,0.0,0.0,0.0,0.0,0.0,0.0,0.0,0.0,0.0,0.0,0.0,0.0,0.0,0.0,0.0,0.0,0.0,0.0,0.0,0.0,0.0,0.0,0.0,0.0,0.0,0.0,0.0,0.0,0.0,0.0,0.0,0.0,0.0,0.0,0.0,0.0,0.0,0.0,0.0,0.0,0.0,0.0,0.0,0.0,0.0,0.0,0.0,0.0,0.0,0.0,0.0,0.0,0.0,0.0,0.0,0.0,0.0,0.0,0.0,0.0,0.0,3.0889,3.0823,3.0825,3.0894,3.0894,3.0896,3.0898,0.0,0.0,0.0,0.0,0.0,0.0,0.0,0.0,0.0,0.0,0.0,0.0,0.0,0.0,0.0,0.0,0.0,0.0,0.0,0.0,0.0,0.0,0.0,0.0,0.0,0.0,0.0,0.0,0.0,0.0,0.0,0.0,0.0,0.0,0.0,0.0,0.0,0.0,0.0,0.0,0.0,0.0,0.0,0.0,0.0,0.0,0.0,0.0,0.0,0.0,0.0,0.0,0.0,0.0,0.0,0.0,0.0,0.0,0.0,0.0,0.0,0.0,0.0,0.0,0.0,0.0,0.0,0.0,0.0,0.0,0.0,0.0,0.0,0.0,0.0,0.0,0.0,0.0,0.0,0.0,0.0,0.0,0.0,0.0,0.0,0.0,0.0,0.0,0.0,0.0,0.0,0.0,0.0,0.0,0.0,0.0,0.0,0.0,0.0,0.0,0.0,0.0,0.0,0.0,3.1627,3.0881,3.0801,3.0825,3.0894,3.0894,3.0896,3.0898,0.0,0.0,0.0,0.0,0.0,0.0,0.0,0.0,0.0,0.0,0.0,0.0,0.0,0.0,0.0,0.0,0.0,0.0,0.0,0.0,0.0,0.0,0.0,0.0,0.0,0.0,0.0,0.0,0.0,0.0,0.0,0.0,0.0,0.0,0.0,0.0,0.0,0.0,0.0,0.0,0.0,0.0,0.0,0.0,0.0,0.0,0.0,0.0,0.0,0.0,0.0,0.0,0.0,0.0,0.0,0.0,0.0,0.0,0.0,0.0,0.0,0.0,0.0,0.0,0.0,0.0,0.0,0.0,0.0,0.0,0.0,0.0,0.0,0.0,0.0,0.0,0.0,0.0,0.0,0.0,0.0,0.0,0.0,0.0,0.0,0.0,0.0,0.0,0.0,0.0,0.0,0.0,0.0,0.0,0.0,0.0,0.0,0.0,0.0,0.0,0.0,0.0,0.0,3.2625,3.1953,3.1543,3.1075,3.0825,3.0894,3.0894,3.0896,3.0898,3.0773,0.0,0.0,0.0,0.0,0.0,0.0,0.0,0.0,0.0,0.0,0.0,0.0,0.0,0.0,0.0,0.0,0.0,0.0,0.0,0.0,0.0,0.0,0.0,0.0,0.0,0.0,0.0,0.0,0.0,0.0,0.0,0.0,0.0,0.0,0.0,0.0,0.0,0.0,0.0,0.0,0.0,0.0,0.0,0.0,0.0,0.0,0.0,0.0,0.0,0.0,0.0,0.0,0.0,0.0,0.0,0.0,0.0,0.0,0.0,0.0,0.0,0.0,0.0,0.0,0.0,0.0,0.0,0.0,0.0,0.0,0.0,0.0,0.0,0.0,0.0,0.0,0.0,0.0,0.0,0.0,0.0,0.0,0.0,0.0,0.0,0.0,0.0,0.0,0.0,0.0,0.0,0.0,0.0,0.0,0.0,0.0,0.0,0.0,0.0,0.0,0.0,0.0,3.3124,3.2636,3.2422,3.1818,3.1354,3.1206,3.1188,3.1092,3.0918,3.0773,0.0,0.0,0.0,0.0,0.0,0.0,0.0,0.0,0.0,0.0,0.0,0.0,0.0,0.0,0.0,0.0,0.0,0.0,0.0,0.0,0.0,0.0,0.0,0.0,0.0,0.0,0.0,0.0,0.0,0.0,0.0,0.0,0.0,0.0,0.0,0.0,0.0,0.0,0.0,0.0,0.0,0.0,0.0,0.0,0.0,0.0,0.0,0.0,0.0,0.0,0.0,0.0,0.0,0.0,0.0,0.0,0.0,0.0,0.0,0.0,0.0,0.0,0.0,0.0,0.0,0.0,0.0,0.0,0.0,0.0,0.0,0.0,0.0,0.0,0.0,0.0,0.0,0.0,0.0,0.0,0.0,0.0,0.0,0.0,0.0,0.0,0.0,0.0,0.0,0.0,0.0,0.0,0.0,0.0,0.0,0.0,0.0,0.0,0.0,0.0,0.0,0.0,3.4569,3.4217,3.3396,3.3246,3.29,3.2084,3.2028,3.1698,3.0957,3.0773,0.0,0.0,0.0,0.0,0.0,0.0,0.0,0.0,0.0,0.0,0.0,0.0,0.0,0.0,0.0,0.0,0.0,0.0,0.0,0.0,0.0,0.0,0.0,0.0,0.0,0.0,0.0,0.0,0.0,0.0,0.0,0.0,0.0,0.0,0.0,0.0,0.0,0.0,0.0,0.0,0.0,0.0,0.0,0.0,0.0,0.0,0.0,0.0,0.0,0.0,0.0,0.0,0.0,0.0,0.0,0.0,0.0,0.0,0.0,0.0,0.0,0.0,0.0,0.0,0.0,0.0,0.0,0.0,0.0,0.0,0.0,0.0,0.0,0.0,0.0,0.0,0.0,0.0,0.0,0.0,0.0,0.0,0.0,0.0,0.0,0.0,0.0,0.0,0.0,0.0,0.0,0.0,0.0,0.0,0.0,0.0,0.0,0.0,0.0,0.0,0.0,0.0,3.5037,3.457,0.0,3.3717,3.3272,3.2946,3.2908,3.2577,3.1758,0.0,0.0,0.0,0.0,0.0,0.0,0.0,0.0,0.0,0.0,0.0,0.0,0.0,0.0,0.0,0.0,0.0,0.0,0.0,0.0,0.0,0.0,0.0,0.0,0.0,0.0,0.0,0.0,0.0,0.0,0.0,0.0,0.0,0.0,0.0,0.0,0.0,0.0,0.0,0.0,0.0,0.0,0.0,0.0,0.0,0.0,0.0,0.0,0.0,0.0,0.0,0.0,0.0,0.0,0.0,0.0,0.0,0.0,0.0,0.0,0.0,0.0,0.0,0.0,0.0,0.0,0.0,0.0,0.0,0.0,0.0,0.0,0.0,0.0,0.0,0.0,0.0,0.0,0.0,0.0,0.0,0.0,0.0,0.0,0.0,0.0,0.0,0.0,0.0,0.0,0.0,0.0,0.0,0.0,0.0,0.0,0.0,0.0,0.0,0.0,0.0,0.0,3.5998,3.5472,3.5104,0.0,3.4582,3.4116,3.3846,3.3808,3.3457,3.2637,0.0,0.0,0.0,0.0,0.0,0.0,0.0,0.0,0.0,0.0,0.0,0.0,0.0,0.0,0.0,0.0,0.0,0.0,0.0,0.0,0.0,0.0,0.0,0.0,0.0,0.0,0.0,0.0,0.0,0.0,0.0,0.0,0.0,0.0,0.0,0.0,0.0,0.0,0.0,0.0,0.0,0.0,0.0,0.0,0.0,0.0,0.0,0.0,0.0,0.0,0.0,0.0,0.0,0.0,0.0,0.0,0.0,0.0,0.0,0.0,0.0,0.0,0.0,0.0,0.0,0.0,0.0,0.0,0.0,0.0,0.0,0.0,0.0,0.0,0.0,0.0,0.0,0.0,0.0,0.0,0.0,0.0,0.0,0.0,0.0,0.0,0.0,0.0,0.0,0.0,0.0,0.0,0.0,0.0,0.0,0.0,0.0,0.0,0.0,0.0,0.0,0.0,3.6004,3.6009,3.5991,3.5991,3.5993,3.5643,3.4784,3.4707,3.4336,0.0,0.0,0.0,0.0,0.0,0.0,0.0,0.0,0.0,0.0,0.0,0.0,0.0,0.0,0.0,0.0,0.0,0.0,0.0,0.0,0.0,0.0,0.0,0.0,0.0,0.0,0.0,0.0,0.0,0.0,0.0,0.0,0.0,0.0,0.0,0.0,0.0,0.0,0.0,0.0,0.0,0.0,0.0,0.0,0.0,0.0,0.0,0.0,0.0,0.0,0.0,0.0,0.0,0.0,0.0,0.0,0.0,0.0,0.0,0.0,0.0,0.0,0.0,0.0,0.0,0.0,0.0,0.0,0.0,0.0,0.0,0.0,0.0,0.0,0.0,0.0,0.0,0.0,0.0,0.0,0.0,0.0,0.0,0.0,0.0,0.0,0.0,0.0,0.0,0.0,0.0,0.0,0.0,0.0,0.0,0.0,0.0,0.0,0.0,0.0,0.0,0.0,0.0,3.6005,3.6005,3.6009,3.5993,3.5994,3.5898,3.5644,3.5625,3.5234,3.4375,0.0,0.0,0.0,0.0,0.0,0.0,0.0,0.0,0.0,0.0,0.0,0.0,0.0,0.0,0.0,0.0,0.0,0.0,0.0,0.0,0.0,0.0,0.0,0.0,0.0,0.0,0.0,0.0,0.0,0.0,0.0,0.0,0.0,0.0,0.0,0.0,0.0,0.0,0.0,0.0,0.0,0.0,0.0,0.0,0.0,0.0,0.0,0.0,0.0,0.0,0.0,0.0,0.0,0.0,0.0,0.0,0.0,0.0,0.0,0.0,0.0,0.0,0.0,0.0,0.0,0.0,0.0,0.0,0.0,0.0,0.0,0.0,0.0,0.0,0.0,0.0,0.0,0.0,0.0,0.0,0.0,0.0,0.0,0.0,0.0,0.0,0.0,0.0,0.0,0.0,0.0,0.0,0.0,0.0,0.0,0.0,0.0,0.0,0.0,0.0,0.0,0.0,3.6008,3.5991,3.5993,3.5995,3.5995,3.5996,3.5996,3.5996,3.5781,3.5254,0.0,0.0,0.0,0.0,0.0,0.0,0.0,0.0,0.0,0.0,0.0,0.0,0.0,0.0,0.0,0.0,0.0,0.0,0.0,0.0,0.0,0.0,0.0,0.0,0.0,0.0,0.0,0.0,0.0,0.0,0.0,0.0,0.0,0.0,0.0,0.0,0.0,0.0,0.0,0.0,0.0,0.0,0.0,0.0,0.0,0.0,0.0,0.0,0.0,0.0,0.0,0.0,0.0,0.0,0.0,0.0,0.0,0.0,0.0,0.0,0.0,0.0,0.0,0.0,0.0,0.0,0.0,0.0,0.0,0.0,0.0,0.0,0.0,0.0,0.0,0.0,0.0,0.0,0.0,0.0,0.0,0.0,0.0,0.0,0.0,0.0,0.0,0.0,0.0,0.0,0.0,0.0,0.0,0.0,0.0,0.0,0.0,0.0,0.0,0.0,0.0,0.0,3.5991,3.5995,3.5996,3.5996,3.5996,3.5996,3.5996,3.5996,3.5996,3.5996,0.0,0.0,0.0,0.0,0.0,0.0,0.0,0.0,0.0,0.0,0.0,0.0,0.0,0.0,0.0,0.0,0.0,0.0,0.0,0.0,0.0,0.0,0.0,0.0,0.0,0.0,0.0,0.0,0.0,0.0,0.0,0.0,0.0,0.0,0.0,0.0,0.0,0.0,0.0,0.0,0.0,0.0,0.0,0.0,0.0,0.0,0.0,0.0,0.0,0.0,0.0,0.0,0.0,0.0,0.0,0.0,0.0,0.0,0.0,0.0,3.5992,0.0,0.0,0.0,0.0,0.0,0.0,0.0,0.0,0.0,0.0,0.0,0.0,0.0,0.0,0.0,0.0,0.0,0.0,0.0,0.0,0.0,0.0,0.0,0.0,0.0,0.0,0.0,0.0,0.0,0.0,0.0,0.0,0.0,0.0,0.0,0.0,0.0,0.0,0.0,0.0,0.0,3.5991,3.5994,3.5996,3.5996,3.5996,3.5996,3.5996,3.5996,3.5996,3.5996,0.0,0.0,0.0,0.0,0.0,0.0,0.0,0.0,0.0,0.0,0.0,0.0,0.0,0.0,0.0,0.0,0.0,0.0,0.0,0.0,0.0,0.0,0.0,0.0,0.0,0.0,0.0,0.0,0.0,0.0,0.0,0.0,0.0,0.0,0.0,0.0,0.0,0.0,0.0,0.0,0.0,0.0,0.0,0.0,0.0,0.0,0.0,0.0,0.0,0.0,0.0,0.0,0.0,0.0,0.0,0.0,0.0,0.0,0.0,0.0,0.0,3.5992,0.0,0.0,0.0,0.0,0.0,0.0,0.0,0.0,0.0,0.0,0.0,0.0,0.0,0.0,0.0,0.0,0.0,0.0,0.0,0.0,0.0,0.0,0.0,0.0,0.0,0.0,0.0,0.0,0.0,0.0,0.0,0.0,0.0,0.0,0.0,0.0,0.0,0.0,0.0,0.0,3.5991,3.5994,3.5996,3.5996,3.5996,3.5996,3.5996,3.5996,3.5996,3.5996,3.5897,0.0,0.0,0.0,0.0,0.0,0.0,0.0,0.0,0.0,0.0,0.0,0.0,0.0,0.0,0.0,0.0,0.0,0.0,0.0,0.0,0.0,0.0,0.0,0.0,0.0,0.0,0.0,0.0,0.0,0.0,0.0,0.0,0.0,0.0,0.0,0.0,0.0,0.0,0.0,0.0,0.0,0.0,0.0,0.0,0.0,0.0,0.0,0.0,0.0,0.0,0.0,0.0,0.0,0.0,0.0,3.5992,3.5992,3.5992,3.5992,3.5992,3.5992,3.5992,0.0,0.0,0.0,0.0,0.0,0.0,0.0,0.0,0.0,0.0,0.0,0.0,0.0,0.0,0.0,0.0,0.0,0.0,0.0,0.0,0.0,0.0,0.0,0.0,0.0,3.5994,3.5995,0.0,0.0,0.0,0.0,0.0,0.0,0.0,0.0,0.0,0.0,0.0,0.0,3.5992,3.5995,3.5996,3.5996,3.5996,3.5996,3.5996,3.5996,3.5996,3.5996,3.5948,3.5895,0.0,0.0,0.0,0.0,0.0,0.0,0.0,0.0,0.0,0.0,0.0,0.0,0.0,0.0,0.0,0.0,0.0,0.0,0.0,0.0,0.0,0.0,0.0,0.0,0.0,0.0,0.0,0.0,0.0,0.0,0.0,0.0,3.5704,3.5704,0.0,0.0,0.0,0.0,0.0,0.0,0.0,0.0,0.0,0.0,0.0,0.0,0.0,0.0,3.5898,3.5969,3.5996,3.5992,3.5992,3.5992,3.5992,3.5992,3.5992,3.5992,3.5992,0.0,3.5992,3.5992,0.0,0.0,0.0,0.0,0.0,0.0,0.0,0.0,0.0,0.0,0.0,0.0,0.0,0.0,0.0,0.0,0.0,0.0,0.0,0.0,0.0,0.0,3.5992,3.5992,3.5998,3.6003,0.0,3.5998,3.5995,3.6002,0.0,0.0,0.0,0.0,0.0,0.0,0.0,0.0,3.5995,3.5996,3.5996,3.5996,3.5996,3.5996,3.5996,3.5996,3.5996,3.5996,3.5948,3.5895,3.5895,3.5831,0.0,0.0,0.0,0.0,0.0,0.0,0.0,0.0,0.0,0.0,0.0,0.0,0.0,0.0,0.0,0.0,0.0,0.0,0.0,0.0,0.0,0.0,0.0,0.0,0.0,0.0,0.0,0.0,0.0,3.5704,3.569,3.5706,3.5702,3.5718,0.0,0.0,0.0,0.0,0.0,0.0,0.0,0.0,0.0,3.59,3.5936,3.5955,3.5969,3.5999,3.5992,3.5992,3.5992,3.5992,3.5992,3.5992,3.5992,3.5992,3.5992,3.5992,3.5992,3.5992,3.5992,3.5992,0.0,0.0,0.0,0.0,0.0,3.5992,3.5992,0.0,0.0,0.0,0.0,0.0,0.0,0.0,0.0,0.0,0.0,0.0,0.0,0.0,0.0,3.5992,3.5999,3.6004,3.6004,3.6004,3.6005,0.0,3.6006,3.6007,3.5993,0.0,0.0,0.0,0.0,0.0,3.5995,3.5996,3.5996,3.5996,3.5996,3.5996,3.5996,3.5996,3.5996,3.5996,3.5975,3.5952,3.5952,3.5853,3.5797,0.0,0.0,0.0,0.0,0.0,0.0,0.0,0.0,0.0,0.0,0.0,0.0,0.0,0.0,0.0,0.0,0.0,0.0,0.0,0.0,0.0,0.0,0.0,0.0,0.0,0.0,0.0,0.0,3.5668,3.5695,3.5702,3.5693,3.5737,0.0,0.0,0.0,0.0,0.0,0.0,3.5906,3.5906,3.5901,3.5898,3.5951,3.598,3.5992,3.5992,3.5992,3.5992,3.5992,3.5992,3.5992,3.5992,3.5992,3.5992,3.5992,3.5992,3.5992,3.5992,3.5992,3.5992,3.5992,3.5992,0.0,3.5992,3.5992,3.5992,3.5992,3.5992,3.5992,3.5992,0.0,3.5992,3.5992,0.0,0.0,0.0,0.0,3.5992,3.5992,0.0,3.5992,3.5992,3.6,3.6006,3.6006,3.6009,3.5992,0.0,3.5991,3.5991,3.5995,0.0,0.0,0.0,0.0,3.5996,3.5995,3.5996,3.5996,3.5996,3.5996,3.5996,3.5996,3.5996,3.5996,3.5996,3.5996,3.5996,3.5975,3.5885,3.5819,3.5788,0.0,0.0,0.0,0.0,0.0,0.0,0.0,0.0,0.0,0.0,0.0,0.0,0.0,0.0,0.0,0.0,0.0,0.0,0.0,0.0,0.0,0.0,0.0,0.0,0.0,0.0,0.0,0.0,0.0,3.5702,3.5708,0.0,0.0,0.0,0.0,3.5795,3.5795,3.5834,3.5906,3.5892,3.5898,3.5898,3.5898,3.5934,3.5992,3.5992,3.5992,3.5992,3.5992,3.5992,3.5992,3.5992,3.5992,3.5992,3.5992,3.5992,3.5992,3.5992,3.5992,3.5992,3.5992,3.5992,3.5992,3.5992,3.5992,3.5992,3.5992,3.5992,3.5992,3.5992,3.5992,3.5992,3.5992,3.5992,0.0,0.0,3.5992,3.5992,3.5992,3.5992,3.5992,3.5992,3.6003,3.5991,3.5991,3.5993,3.5995,0.0,3.5995,3.5995,3.5996,0.0,0.0,3.5996,3.5996,3.5996,3.5996,3.5996,3.5996,3.5996,3.5996,3.5996,3.5996,3.5996,3.5996,3.5996,3.5996,3.5975,3.5917,3.5893,3.5836,3.5706,3.5693,0.0,0.0,0.0,0.0,0.0,0.0,0.0,0.0,0.0,0.0,0.0,0.0,0.0,0.0,0.0,0.0,0.0,0.0,0.0,0.0,0.0,0.0,0.0,0.0,0.0,0.0,0.0,0.0,3.5702,3.5689,0.0,0.0,3.5801,3.5795,3.5795,3.5795,3.5833,3.5892,3.5896,3.5925,3.5968,3.5967,3.5983,3.5992,3.5992,3.5992,3.5992,3.5992,3.5992,3.5992,3.5992,3.5992,3.5992,3.5992,3.5992,3.5992,3.5992,3.5992,3.5992,3.5992,3.5992,3.5992,3.5992,3.5992,3.5992,3.5992,3.5992,3.5992,3.5992,3.5992,3.5992,3.5992,3.5992,3.5992,3.5992,3.5992,3.5992,3.5992,3.5996,3.6,3.6,3.6009,3.5994,3.5994,3.5995,3.5996,3.5996,3.5995,3.5995,3.5996,3.5996,3.5996,3.5996,3.5996,3.5996,3.5996,3.5996,3.5996,3.5996,3.5996,3.5996,3.5996,3.5996,3.5996,3.5996,3.5953,3.5924,3.5895,3.5821,3.5755,3.5698,3.5698,3.5707,0.0,0.0,0.0,0.0,0.0,0.0,0.0,0.0,0.0,0.0,0.0,0.0,0.0,0.0,0.0,0.0,0.0,0.0,0.0,0.0,0.0,0.0,0.0,0.0,0.0,0.0,3.5695,3.5702,3.5703,3.5723,3.5766,3.5765,3.5778,3.5801,3.5801,3.584,3.589,3.5895,3.5934,3.5994,3.5992,3.5992,3.5992,3.5992,3.5992,3.5992,3.5992,3.5992,3.5992,3.5992,3.5992,3.5992,3.5992,3.5992,3.5992,3.5992,3.5992,3.5992,3.5992,3.5992,3.5992,3.5992,3.5992,3.5992,3.5992,3.5992,3.5992,3.5992,3.5992,3.6051,3.6344,3.6441,3.6501,3.6797,3.6875,3.6876,3.6878,3.6883,3.6886,3.6886,3.6656,3.6444,3.6444,3.6211,3.5996,3.5996,3.5996,3.5996,3.5996,3.5996,3.5996,3.5996,3.5996,3.5996,3.5996,3.5996,3.5996,3.5974,3.5974,3.5953,3.5928,3.5927,3.5927,3.5927,3.5892,3.5851,3.5836,3.5755,3.5704,3.5693,3.5678,3.5668,3.5676,0.0,0.0,0.0,0.0,0.0,0.0,0.0,0.0,0.0,0.0,0.0,0.0,0.0,0.0,0.0,0.0,0.0,0.0,0.0,0.0,0.0,0.0,0.0,3.5378,3.5571,3.5695,3.5702,3.5707,3.5698,3.5704,3.5704,3.5737,3.5799,3.5799,3.5826,3.5889,3.5893,3.5934,3.5995,3.5992,3.5992,3.5992,3.5992,3.5992,3.5992,3.5992,3.5992,3.5992,3.5992,3.5992,3.5992,3.5992,3.5992,3.5992,3.5992,3.5992,3.5992,3.5992,3.5992,3.5992,3.5992,3.5992,3.5992,3.5992,3.5992,3.5992,3.5992,3.6012,3.6207,3.7048,3.7321,3.7519,3.8365,3.8601,3.8602,3.8607,3.8609,3.8609,3.8609,3.7966,3.7343,3.7343,3.666,3.6035,3.6035,3.6016,3.5996,3.5996,3.5996,3.5996,3.5996,3.5996,0.0,3.5996,3.5996,3.5974,3.5896,3.5893,3.5861,3.5816,3.5791,3.5791,3.5791,3.5808,3.5778,3.5698,3.5693,3.5708,3.5704,3.5637,3.5608,3.5598,0.0,0.0,0.0,0.0,0.0,0.0,0.0,0.0,0.0,0.0,0.0,0.0,0.0,0.0,0.0,0.0,0.0,0.0,0.0,0.0,0.0,0.0,3.535,3.5391,3.5571,3.5709,3.5695,3.5697,3.5693,3.5698,3.5694,3.5708,3.5737,3.577,3.5815,3.5833,3.5878,3.5909,3.5936,3.5963,3.5992,3.5992,3.5992,3.5992,3.5992,3.5992,3.5992,3.5992,3.5992,3.5992,3.5992,3.5992,3.5992,3.5992,3.5992,3.5992,3.5992,3.5992,3.5992,3.5992,3.5992,3.5992,3.5992,3.5992,3.5992,3.5992,3.5992,3.6427,3.6998,3.7232,3.7743,3.8292,3.8528,3.8607,3.8607,3.8608,3.859,3.8592,3.8592,3.8417,3.8242,3.8242,3.7558,3.6934,3.6934,3.6426,3.5996,3.5996,3.5996,3.5996,3.5996,0.0,0.0,3.5927,3.5925,3.5896,3.5838,3.5834,3.5827,3.5794,3.5803,3.58,0.0,3.5702,3.5666,3.5691,3.5644,3.5637,3.5622,3.5616,3.5604,0.0,0.0,0.0,0.0,0.0,0.0,0.0,0.0,0.0,0.0,0.0,0.0,0.0,0.0,0.0,0.0,0.0,0.0,0.0,0.0,0.0,0.0,3.5447,3.5436,3.5872,3.5803,3.582,3.6168,3.6204,3.6345,3.6712,3.6748,3.6739,3.6749,3.6818,3.6863,3.6891,3.6943,3.6824,3.6465,3.6514,3.6363,3.5992,3.5992,3.5992,3.5992,3.5992,3.5992,3.5992,3.5992,3.5992,0.0,3.5992,3.5992,3.5992,3.5992,3.5992,0.0,0.0,0.0,0.0,0.0,3.5992,3.5992,3.5996,3.5998,3.6057,3.6431,3.6884,3.7433,3.8175,3.8743,3.9213,3.9547,3.9645,3.9645,3.9685,3.9687,3.9687,3.9687,3.9414,3.9141,3.9141,3.8457,3.7832,3.7832,0.0,0.0,3.7046,3.6441,3.5953,3.5953,3.5928,3.5897,0.0,3.5853,3.5836,3.5775,3.5768,3.5755,3.5714,3.5717,0.0,0.0,0.0,3.5629,3.5664,3.5626,0.0,0.0,0.0,3.5566,0.0,0.0,0.0,0.0,3.5541,3.5559,0.0,0.0,0.0,0.0,0.0,0.0,0.0,0.0,0.0,0.0,0.0,0.0,0.0,0.0,0.0,0.0,3.539,3.5718,3.6577,3.6285,3.6245,3.6961,3.7058,3.7348,3.8115,3.8193,3.8205,3.8208,3.8266,3.8336,3.8392,0.0,0.0,0.0,0.0,3.7087,3.6305,3.6285,3.6285,3.6285,3.6187,3.6148,3.6148,3.6031,3.5992,3.5992,3.5992,3.5992,3.6012,3.6109,3.6207,3.6265,3.607,3.5992,3.5994,3.5994,3.6052,0.0,0.0,0.0,0.0,3.7201,3.7515,3.7886,3.9428,3.9975,4.0191,4.0916,4.1112,4.1112,4.1172,4.1191,4.1191,4.1191,4.0605,4.0059,4.0059,3.9355,3.875,3.875,3.8602,3.8484,3.8484,3.7216,3.6181,3.6181,3.6131,0.0,3.6072,3.5994,3.5911,3.5845,0.0,0.0,3.5612,3.5595,3.5583,3.5598,3.5591,3.5591,3.5585,3.5585,3.5554,3.5502,3.5502,3.5502,3.55,3.55,3.55,3.55,3.5554,3.5584,0.0,0.0,0.0,0.0,0.0,0.0,0.0,0.0,0.0,0.0,0.0,0.0,0.0,0.0,0.0,3.7257,3.7244,3.7197,3.6764,3.7289,3.7767,3.7922,3.7941,3.7999,3.8174,3.8193,3.8199,3.8205,3.8255,3.8316,3.8321,3.8438,0.0,3.8246,3.8317,3.8279,3.8103,3.8103,3.8103,3.8084,0.0,0.0,3.7028,3.6324,3.5992,3.5992,3.5992,3.5992,3.6051,3.6755,3.7458,3.7966,3.6558,3.5996,3.6002,3.6002,3.6435,3.7044,3.7044,3.7514,3.8119,3.8296,3.8825,3.9452,3.9803,4.039,0.0,4.1133,4.1172,4.1172,4.1191,4.1191,4.1191,4.1191,4.1074,4.0957,4.0957,4.021,3.9574,3.9574,3.8957,3.8427,3.8427,3.8135,3.7918,3.7918,3.7909,3.7884,3.7825,3.7199,3.6733,3.6682,3.6033,3.5604,3.559,3.554,3.5534,3.5598,3.5554,3.5522,3.5527,3.552,3.5501,3.5494,3.5494,3.5507,3.55,3.55,3.55,3.55,3.5514,3.5528,0.0,0.0,0.0,0.0,0.0,0.0,0.0,0.0,0.0,0.0,0.0,3.9543,0.0,0.0,3.8412,3.7844,3.7828,3.7954,3.808,3.853,3.8856,3.8856,3.8856,3.9011,3.9456,3.9495,3.9495,3.9495,3.9536,3.9544,3.9544,3.9652,3.9518,3.9109,3.9179,3.9014,3.8591,3.8591,3.8591,3.8591,3.8162,3.7947,3.7947,3.7497,3.7301,3.7301,3.7301,3.7303,3.7326,3.778,3.8211,3.8503,3.7644,3.7293,3.7293,3.7296,3.7572,3.7945,3.7946,3.8239,3.8669,3.912,3.955,3.998,4.0429,4.0859,4.1191,4.1191,4.1191,4.1191,4.1191,4.1191,4.1191,4.1191,4.117,4.1146,4.1146,4.0755,4.0391,4.0391,3.9991,3.9642,3.9642,3.9624,3.9315,3.8486,3.8322,3.8297,3.8248,3.7864,3.76,3.7544,3.7128,3.6832,3.68,3.6767,3.6773,3.6793,3.6356,3.6105,3.6096,3.5712,3.55,3.55,3.55,3.55,3.55,3.55,3.55,3.5519,3.5904,3.5874,0.0,0.0,0.0,0.0,0.0,0.0,0.0,0.0,3.9533,3.9596,3.9589,3.9449,3.895,3.886,3.8689,3.8232,3.8284,3.8649,3.9405,3.9655,3.9752,3.9752,3.9752,4.0023,4.0739,4.0797,4.0797,4.0797,4.0802,4.0794,4.0794,4.0861,4.0604,3.9945,4.0013,3.9744,3.9088,3.9082,3.9099,3.9079,3.8903,3.8825,3.8825,3.8669,3.8591,3.8591,3.8593,3.8694,3.8856,3.8841,3.894,3.9097,3.9097,3.9096,3.9053,3.8725,3.8708,3.8845,3.8846,3.8964,3.9218,3.9922,4.0156,4.0273,4.0996,4.1191,4.1191,4.1191,4.1191,4.1171,4.1171,4.117,4.1168,4.1168,4.1117,4.1078,4.1078,4.1039,4.097,4.097,4.0924,4.0878,4.0878,4.0843,4.0337,3.8966,3.8709,3.8684,3.8658,3.8524,3.8428,3.8421,3.8215,3.8066,3.7993,3.8003,3.8007,3.8007,3.7334,3.6942,3.6942,3.6327,3.5981,3.5981,3.5981,3.5981,3.5981,3.5981,3.5981,3.6,3.6654,3.6502,3.8525,3.9026,3.9131,3.9341,3.9444,3.9508,0.0,0.0,3.9596,3.9608,3.9589,3.9637,3.9746,3.9751,3.9602,3.9138,3.97,4.0029,3.9579,4.0178,4.0642,4.0642,4.0642,4.07,4.0797,4.0797,4.0797,4.0797,4.0802,4.0794,4.0794,4.0861,4.0854,4.0766,4.0884,4.0918,4.082,4.0828,4.0816,4.0816,4.0034,3.9663,3.9644,3.8923,3.8591,3.8591,3.8598,3.9032,3.9759,3.9759,4.0189,4.0815,4.0817,4.0818,4.0642,3.9158,3.9081,3.9746,3.9746,4.0254,4.0937,4.1016,4.1055,4.1074,4.1172,4.1191,4.1191,4.1191,4.1168,4.1114,4.1114,4.1068,4.1014,4.1014,4.1028,4.1003,4.1003,4.0964,4.0902,4.0902,4.0862,4.0815,4.0815,4.0803,4.0713,4.0475,4.0424,4.0404,4.0338,3.9707,3.9243,3.9177,3.8469,3.8012,3.7995,3.7988,3.8007,3.8007,3.7911,3.7853,3.7853,3.7777,3.7719,3.7719,3.7719,3.7719,3.7719,3.7719,3.7719,3.7719,3.7815,3.7392,3.8186,3.8896,3.9341,0.0,3.9546,3.9571,3.9577,3.9589,3.9589,3.9589,3.9589,3.9656,3.9859,3.9903,3.9916,0.0,4.0258,4.0434,4.0275,4.0565,4.0797,4.0797,4.0797,4.0797,4.0797,4.0797,4.0797,4.0797,4.0803,4.0796,4.0796,4.0823,4.0863,4.091,4.0956,4.101,4.1094,4.1054,4.1068,4.1109,4.0722,4.0566,4.0543,4.0219,4.0047,4.0047,4.0052,4.0269,4.0602,4.0643,4.0858,4.1151,4.1152,4.1152,4.1074,4.0371,4.0332,4.0664,4.0664,4.0898,4.1191,4.1191,4.1191,4.1191,4.1191,4.117,4.1144,4.1144,4.1085,4.103,4.103,4.1011,4.099,4.099,4.0979,4.0945,4.0945,4.0893,4.0834,4.0834,4.0814,4.0797,4.0797,4.0778,4.0713,4.0654,4.0687,4.0687,4.0614,4.0316,4.0075,4.0,3.9665,3.9453,3.9457,3.9457,3.9457,3.9457,3.9008,3.8757,3.8757,3.8277,3.8007,3.8007,3.8007,3.8007,3.8007,3.8007,3.8007,3.8007,3.8527,3.8565,3.8193,0.0,0.0,3.9514,3.9564,3.9589,3.9589,3.9589,3.9589,3.9589,3.9589,3.9631,3.9789,3.9823,3.9956,4.0347,4.0425,4.0504,4.0752,4.0797,4.0797,4.0797,4.0797,4.0797,4.0797,4.0797,4.0797,4.0797,4.0797,4.0797,4.0797,4.0802,4.0826,4.0867,4.0882,4.0953,4.1071,4.1013,4.1035,4.1093,4.1099,4.1099,4.1095,4.1104,4.1108,4.1108,4.1091,4.1112,4.1132,4.1172,4.1191,4.1191,4.1191,4.1191,4.1191,4.1171,4.1171,4.1191,4.1191,4.1191,4.1191,4.1171,4.117,4.1169,4.1146,4.1114,4.1074,4.1074,4.1017,4.0963,4.0963,4.0964,4.0949,4.0949,4.0917,4.0863,4.0863,4.0837,4.0797,4.0797,4.0797,4.079,4.0784,4.0739,4.0687,4.06,4.0633,4.066,4.0586,4.0576,4.0546,4.0516,4.0496,4.0496,4.0496,4.0496,4.0496,4.0496,3.9958,3.9631,3.9631,3.9008,3.8681,3.8681,3.8681,3.8681,3.8681,3.8681,3.8681,3.87,3.9342,3.9631,0.0,0.0,3.9405,3.9405,3.9489,3.9589,3.9589,3.9589,3.9589,3.9589,3.9589,3.9589,3.9602,3.9602,3.9731,4.0148,4.0214,4.0347,4.0739,4.0797,4.0797,4.0797,4.0797,4.0797,0.0,4.0797,4.0797,4.0797,4.0797,4.0797,4.0797,4.0802,4.08,4.0806,4.0878,4.0926,4.0998,4.1003,4.1035,4.1098,4.1104,4.1107,4.1107,4.1107,4.1109,4.1092,4.1092,4.1132,4.1191,4.1191,4.1191,4.1191,4.1191,4.1191,4.1191,4.1139,4.1145,4.1191,4.1191,4.1191,4.1191,4.1119,4.1091,4.1085,4.1037,4.0997,4.0994,4.0994,4.0941,4.0893,4.0893,4.0856,4.0809,4.0809,4.0803,4.0803,4.0803,4.0797,4.0797,4.0797,4.0797,4.0784,4.0707,4.07,4.0673,4.0603,4.0607,4.058,4.0504,4.0496,4.0496,4.0496,4.0496,4.0496,4.0496,4.0496,4.0496,4.0496,4.0477,4.0458,4.0458,4.0439,4.0419,4.0419,4.0419,4.0419,4.0419,4.0419,4.0419,4.0419,4.0458,4.0458,0.0,0.0,3.9301,3.9425,3.9495,3.9546,3.9596,3.9589,3.9589,3.9589,3.9589,3.9589,3.9589,3.9589,3.9691,3.9967,4.012,4.0295,4.0569,4.072,4.0797,4.0797,4.0797,0.0,0.0,0.0,0.0,4.0797,4.0797,4.0797,4.0797,4.0803,4.0796,4.0794,4.0809,4.0864,4.0926,4.0896,4.0912,4.1035,4.1072,4.1129,4.1152,4.1111,4.1112,4.1172,4.1172,4.1172,4.1191,4.1191,4.117,4.1122,4.1122,4.1111,4.1066,4.103,4.1054,4.1068,4.1068,4.1068,4.1066,4.105,4.1025,4.1039,4.1019,4.0979,4.0932,4.0932,4.0883,4.0837,4.0837,4.0827,4.0797,4.0797,4.0797,4.0797,4.0797,4.0797,4.079,4.0739,4.0739,4.0707,4.0654,4.0626,4.061,4.0539,4.0531,4.0531,4.0496,4.0496,4.0496,4.0496,4.0496,4.0496,4.0496,4.0496,4.0496,4.0496,4.0496,4.0496,4.0496,4.0496,4.0496,4.0496,4.0496,4.0496,4.0496,4.0496,4.0496,4.0496,4.0496,4.0496,0.0,3.9183,3.9237,3.9412,3.9482,3.952,3.9577,3.9589,3.9589,3.9589,3.9589,3.9589,3.9589,3.9589,3.9691,3.9958,4.012,4.0295,4.0569,4.072,4.0797,4.0797,4.0797,0.0,0.0,0.0,0.0,4.0797,4.0797,4.0797,4.0797,4.0797,4.0803,4.0802,4.0803,4.0821,4.0867,4.0846,4.0893,4.1008,4.1045,4.1087,4.1139,4.1085,4.1085,4.1139,4.1139,4.1139,4.1139,4.1139,4.1109,4.1068,4.1068,4.1047,4.1007,4.0963,4.0953,4.0976,4.0984,4.099,4.1007,4.0963,4.0953,4.0968,4.0937,4.0903,4.0853,4.0853,4.0837,4.0797,4.0797,4.0797,4.0797,4.0797,4.0797,4.0797,4.0797,4.0784,4.0746,4.07,4.0687,4.0654,4.0612,4.0576,4.0539,4.0516,4.0496,4.0496,4.0496,4.0496,4.0496,4.0496,4.0496,4.0496,4.0496,4.0496,4.0496,4.0496,4.0496,4.0496,4.0496,4.0496,4.0496,4.0496,4.0496,4.0496,4.0496,4.0496,4.0496,4.0496,4.0496,4.0496,3.9045,3.9105,3.9229,3.936,3.9444,3.9508,3.9583,3.9608,3.9589,3.9589,3.9589,3.9589,0.0,0.0,3.9731,4.0129,4.0205,4.0347,4.0726,4.079,4.0797,0.0,0.0,0.0,0.0,0.0,0.0,4.0797,0.0,4.0797,4.0797,4.0797,4.0797,4.0797,4.0797,4.0809,4.0799,4.0878,4.0932,4.0987,4.101,4.099,4.099,4.099,4.099,4.099,4.099,4.099,4.099,4.099,4.101,4.0987,4.0987,4.0984,4.0974,4.0915,4.0898,4.0893,4.0976,4.0981,4.099,4.093,4.0898,4.0883,4.0814,4.0797,4.0797,4.0797,4.0797,4.0797,4.0797,4.0797,4.0797,4.0797,4.0797,4.079,4.079,4.0746,4.0694,4.0694,4.0647,4.0593,4.0588,4.0539,4.0496,4.0496,4.0496,4.0496,4.0496,4.0496,4.0496,4.0496,4.0496,4.0496,4.0496,4.0496,4.0496,4.0496,4.0496,4.0496,4.0496,4.0496,4.0489,4.0481,4.0481,4.0481,4.0454,4.0454,4.0473,4.0481,4.0481,4.0489,3.8209,3.865,3.9142,3.9229,3.9328,3.9444,3.9508,3.9552,3.9589,3.9589,3.9589,3.9589,0.0,0.0,0.0,3.9948,4.0233,0.0,4.0569,4.0713,0.0,4.0797,0.0,4.0797,4.0797,4.0797,0.0,0.0,4.0797,4.0797,4.0797,4.0797,4.0797,4.0797,4.0797,4.0796,4.0798,4.0873,4.0902,4.0924,4.0986,4.099,4.099,4.099,4.099,4.099,4.099,4.099,4.099,4.099,4.0979,4.0924,4.0924,4.0878,4.0846,4.0837,4.0825,4.0825,4.0859,4.0851,4.0846,4.0831,4.0825,4.082,4.0803,4.0797,4.0797,4.0797,4.0797,4.0797,4.0797,4.0797,4.0797,4.0797,4.0752,4.0733,4.0733,4.0668,4.0633,4.0624,4.0569,4.0519,4.0531,4.0504,4.0496,4.0496,4.0496,4.0496,4.0496,4.0496,4.0496,4.0496,4.0496,4.0496,4.0496,4.0496,4.0496,4.0496,4.0496,4.0496,4.0496,4.0496,4.0433,4.0278,4.0278,4.0186,3.9974,3.9974,4.0072,4.0278,4.0278,4.0356,3.7801,3.8228,3.8669,3.909,3.9256,3.9346,3.9425,3.9508,3.9558,3.9558,3.9583,0.0,0.0,0.0,0.0,0.0,0.0,0.0,4.0097,4.0494,4.0797,0.0,4.0797,0.0,4.0797,4.0797,4.0797,0.0,4.0797,4.0797,4.0797,4.0797,4.0797,4.0797,4.0797,4.0797,4.0797,4.0843,4.0856,4.0856,4.0898,4.0906,4.0906,4.0906,4.0906,4.0906,0.0,4.0906,4.0906,4.0906,4.0893,4.0856,4.0856,4.0837,4.0797,4.0797,4.0797,4.0797,4.0797,4.0797,4.0797,4.0797,4.0797,4.0797,4.0797,4.0797,4.0797,4.0797,4.0784,4.0752,4.079,4.0752,4.0713,4.0746,4.0707,4.0661,4.0661,4.0626,4.0591,4.0554,4.0531,4.0496,4.0496,4.0496,4.0496,4.0496,4.0496,4.0496,4.0496,4.0496,4.0496,4.0496,4.0496,4.0496,4.0496,4.0496,4.0496,4.0496,4.0496,4.0465,4.0364,4.0364,4.0258,4.0032,4.0013,3.9953,3.9808,3.9808,3.9943,4.0205,4.0205,4.0304,3.7522,3.7819,3.8111,3.8965,3.9197,3.9242,3.9346,3.9444,3.9495,3.9495,0.0,3.9589,3.9589,3.9614,3.9479,3.8985,0.0,4.0076,3.956,4.0255,4.0797,4.0797,4.0797,4.0797,4.0797,4.0797,4.0797,4.0797,4.0797,4.0797,4.0797,4.0797,4.0797,4.0797,4.0797,4.0797,4.0797,4.0797,4.0797,4.0797,4.0797,4.0797,4.0797,4.0797,4.0797,4.0797,0.0,0.0,4.0797,4.0797,4.0797,4.0797,4.0797,4.0797,4.0797,4.0797,4.0797,4.0797,4.0797,4.079,4.079,4.079,4.079,4.079,4.079,4.0784,4.0765,4.0765,4.0739,4.07,4.0752,4.07,4.0621,4.0668,4.0647,4.0607,4.0607,4.0591,4.0573,4.0504,4.0496,4.0496,4.0496,4.0481,4.0473,4.0489,4.0457,4.0414,4.0457,4.0481,4.0496,4.0496,4.0496,4.0496,4.0496,4.0496,4.0496,4.0496,4.0473,4.0372,4.0214,4.0177,4.0022,3.9765,3.9786,3.9786,3.9754,3.9754,3.9891,4.0148,4.012,4.0213,3.6686,3.7392,3.8098,3.891,3.9156,3.9197,3.9242,3.9367,0.0,0.0,3.9558,3.9589,3.9589,3.975,3.964,3.9004,0.0,0.0,0.0,0.0,4.0797,0.0,0.0,0.0,0.0,0.0,0.0,0.0,0.0,0.0,4.0797,4.0797,4.0797,4.0797,4.0797,4.0797,4.0797,4.0797,4.0797,4.0797,4.0797,4.0797,4.0797,4.0797,4.0797,4.0797,0.0,0.0,4.0797,4.0797,4.0797,4.0797,4.0797,4.0797,4.0797,4.0797,4.0797,4.0797,4.0797,4.0752,4.0733,4.0784,4.0752,4.0726,4.0726,4.0674,4.0628,4.0628,4.0628,4.0621,4.0628,4.0621,4.0595,4.0621,4.0612,4.0595,4.0595,4.0554,4.0504,4.0496,4.0496,4.0496,4.0496,4.0356,4.0313,4.0473,4.0166,4.0003,4.0213,4.0408,4.0496,4.0496,4.0496,4.0496,4.0496,4.0496,4.0496,4.0496,4.0339,4.0242,4.0205,3.9983,3.9772,3.9568,3.9717,3.9728,3.9556,3.9556,3.9648,3.988,3.9702,3.9736,3.5863,3.6365,3.6835,3.7652,3.7883,3.8021,3.8431,0.0,0.0,0.0,3.9533,3.9589,3.9589,3.9679,0.0,0.0,0.0,0.0,0.0,0.0,0.0,0.0,0.0,0.0,0.0,0.0,0.0,0.0,0.0,0.0,4.0797,4.0797,4.0797,4.0797,4.0797,4.0797,4.0797,4.0797,4.0797,4.0797,4.0797,4.0797,4.0797,4.0797,4.0797,4.0797,0.0,0.0,4.0797,4.0797,4.0797,4.0797,4.0797,4.0797,4.079,4.0752,4.0778,4.079,4.0713,4.07,4.07,4.07,4.0668,4.0654,4.0694,4.0654,4.0595,4.0595,4.0593,4.0605,4.0607,4.0566,4.0557,4.0598,4.0569,4.0539,4.0539,4.0523,4.0496,4.0496,4.0496,4.0465,4.0356,4.0269,4.0233,4.033,4.0033,3.9901,4.0177,4.0157,4.0129,4.0129,4.0129,4.0129,4.0129,4.0129,4.0129,4.0129,4.0043,3.9932,3.9835,3.9713,3.9537,3.9298,3.9389,3.9389,3.9298,3.9298,3.9421,3.9637,3.9544,3.9609,3.5268,3.551,3.5696,3.6513,3.6699,3.6922,3.7708,3.8,0.0,0.0,3.9508,3.9577,3.9608,0.0,3.9324,0.0,3.9232,0.0,0.0,0.0,0.0,0.0,0.0,0.0,0.0,0.0,0.0,0.0,0.0,0.0,0.0,4.0797,4.0797,4.0797,4.0797,4.0797,4.0797,4.0797,4.0797,4.0797,4.0797,4.0797,4.0797,4.0797,4.0797,4.0797,0.0,0.0,0.0,4.0797,4.079,4.0784,4.0784,4.0778,4.0752,4.07,4.0707,4.0746,4.0635,4.0621,4.0673,4.0614,4.0607,4.06,4.0666,4.0633,4.0586,4.0586,4.0583,4.058,4.0579,4.0542,4.0504,4.0573,4.0539,4.0496,4.0496,4.0496,4.0496,4.0496,4.0465,4.04,4.0233,4.011,4.0071,4.011,3.9859,3.9761,4.0021,3.9816,3.9652,3.9652,3.9742,3.9808,3.9808,3.9808,3.9808,3.9808,3.9754,3.966,3.9514,3.9433,3.9324,3.9101,3.917,3.9197,3.9197,3.9197,3.9298,3.9514,3.9452,3.9501,3.5268,3.551,3.5696,3.6513,3.6699,3.6922,3.7708,0.0,0.0,3.9205,3.9457,3.9533,3.9596,3.9589,3.9136,0.0,0.0,3.8797,0.0,0.0,0.0,0.0,0.0,0.0,0.0,0.0,0.0,0.0,0.0,0.0,0.0,4.0797,4.0797,4.0797,4.0797,4.0797,4.0797,4.0797,4.0797,4.0797,4.0797,4.0797,4.0797,4.0797,4.0797,4.0797,0.0,0.0,0.0,4.0797,4.0752,4.07,4.07,4.0668,4.0621,4.0621,4.0621,4.0621,4.0595,4.0605,4.0603,4.06,4.0605,4.0595,4.0615,4.0554,4.0504,4.0504,4.0504,4.0504,4.0504,4.0504,4.0496,4.0516,4.0496,4.0496,4.0496,4.0496,4.0496,4.0496,4.0347,4.0223,4.0205,3.9854,3.9621,3.9808,3.9445,3.9253,3.9532,3.9331,3.9165,3.9165,3.9555,3.9808,3.9808,3.9808,3.9808,3.9808,3.9632,3.952,3.9514,3.9272,3.9129,3.9101,3.935,3.9458,3.9458,3.9458,3.9489,3.9483,3.9245,3.9156,3.4606,3.4729,3.4804,3.512,3.52,3.5423,3.6259,0.0,3.6814,3.7717,3.796,3.8021,3.8075,3.8106,3.7897,0.0,0.0,0.0,3.8473,0.0,0.0,0.0,0.0,0.0,0.0,0.0,0.0,0.0,0.0,0.0,0.0,4.0797,4.0797,4.0797,4.0797,4.0797,4.0797,4.0797,4.0797,4.0797,4.0797,4.0797,4.0797,4.0797,4.0797,4.0797,0.0,0.0,0.0,4.0739,4.07,4.0628,4.0628,4.0621,4.0607,4.0605,4.0508,4.0407,4.037,4.0285,4.0167,4.0129,4.023,4.0383,4.055,4.0546,4.0496,4.0496,4.0496,4.0496,4.0496,4.0496,4.0496,4.0496,4.0417,4.0321,4.0321,4.0185,4.0082,4.0082,4.0013,3.9912,3.9791,3.9628,3.9532,3.9609,3.9318,3.9192,3.9477,3.9272,3.9101,3.9101,3.9266,3.9389,3.9389,3.9389,3.9389,3.9389,3.9305,3.9259,3.9259,3.917,3.9101,3.9101,3.9205,3.9259,3.9259,3.9259,3.9259,3.9259,3.9156,3.9101,3.4197,3.4197,3.4197,3.4197,3.4197,3.442,0.0,0.0,3.582,3.6715,3.6944,3.6998,3.708,3.711,3.7016,3.6791,0.0,3.754,3.8418,0.0,0.0,0.0,0.0,0.0,0.0,0.0,0.0,0.0,0.0,0.0,0.0,4.0797,4.0797,4.0797,4.0797,4.0797,4.0797,4.0797,4.0797,4.0797,4.0797,4.0797,4.0797,4.0784,4.0778,0.0,0.0,0.0,0.0,4.0668,4.0647,4.0586,4.0503,4.0481,4.0477,4.0397,4.0266,4.0148,4.0101,4.0002,3.987,3.9819,3.9932,4.0129,4.0313,4.0381,4.0397,4.0397,4.0345,4.0283,4.0283,4.0283,4.0283,4.0283,4.0176,4.0072,4.0072,3.9932,3.9808,3.9808,3.9742,3.966,3.952,3.9421,3.9389,3.9389,3.9219,3.9183,3.9363,3.9219,3.9101,3.9101,3.9101,3.9101,3.9101,3.9101,3.9101,3.9101,3.9101,3.9101,3.9101,3.9101,3.9101,3.9101,3.9101,3.9101,3.9101,3.9101,3.9101,3.9101,3.9101,3.9101,3.4197,3.4197,3.4197,3.4197,3.4197,3.442,0.0,0.0,3.5771,3.6715,3.6907,3.6944,3.7087,3.711,3.6847,3.6047,3.6188,0.0,3.7594,0.0,0.0,0.0,0.0,0.0,0.0,0.0,0.0,0.0,0.0,0.0,0.0,0.0,4.0797,4.0797,4.0797,4.0797,4.0797,4.0797,4.0797,4.0797,4.0797,4.0797,4.0797,4.0733,0.0,0.0,0.0,0.0,0.0,4.0595,4.0605,4.0573,4.03,4.0203,4.0167,3.9912,3.9808,3.9808,3.9808,3.9808,3.9808,3.9808,3.9808,3.9808,3.9808,3.9983,4.0205,4.0205,4.0003,3.9808,3.9808,3.9808,3.9808,3.9808,3.9808,3.9808,3.9808,3.9808,3.9808,3.9808,3.9644,3.9495,3.9514,3.9285,3.9101,3.9101,3.9101,3.9101,3.9101,3.9101,3.9101,3.9101,3.9101,3.9101,3.9101,3.9101,3.9101,3.9101,3.9101,3.9101,3.9101,3.9101,3.9101,3.9101,3.9101,3.9101,3.9101,3.9101,3.9101,3.9101,3.9101,3.9101,3.4197,3.4197,3.4197,3.4197,3.4197,3.4271,3.455,0.0,3.4705,3.505,3.5165,3.5212,3.5304,3.5349,3.5307,3.5052,3.5278,0.0,0.0,0.0,0.0,0.0,0.0,0.0,0.0,0.0,0.0,0.0,0.0,0.0,0.0,0.0,4.0797,4.0797,4.0797,4.0797,4.0797,4.0797,4.0797,4.0797,4.0797,4.0784,4.0733,4.0707,0.0,0.0,0.0,0.0,0.0,4.061,4.0481,4.0332,4.0232,4.0091,3.9922,3.9829,3.9717,3.9597,3.9597,3.9477,3.9326,3.9326,3.9452,3.9597,3.9597,3.975,3.9932,3.9932,3.988,3.9808,3.9808,3.9808,3.9808,3.9808,3.9694,3.9597,3.9597,3.9452,3.9326,3.9326,3.9266,3.9219,3.9219,3.917,3.9101,3.9101,3.9101,3.9101,3.9101,3.9101,3.9101,3.9101,3.9101,3.9101,3.9101,3.9101,3.9101,3.9101,3.9101,3.9101,3.9101,3.9101,3.9101,3.9101,3.9101,3.9101,3.9101,3.9101,3.9101,3.9101,3.9101,3.9101,0.0,3.4197,3.4197,3.4197,3.4197,0.0,0.0,3.4197,3.4221,3.4281,3.4351,3.4427,3.4484,3.455,3.4612,3.4612,3.4841,0.0,0.0,0.0,0.0,0.0,0.0,0.0,0.0,0.0,0.0,0.0,0.0,0.0,0.0,0.0,4.0797,4.0797,4.0797,4.0797,4.0797,4.0797,4.0797,4.0797,4.0797,4.0759,4.07,0.0,0.0,0.0,0.0,0.0,0.0,4.0452,4.0295,4.0042,3.9981,3.9835,3.9671,3.9559,3.9464,3.935,3.935,3.9232,3.9101,3.9101,3.9205,3.935,3.935,3.9501,3.9671,3.9548,3.9543,3.9543,3.9543,3.9543,3.9543,3.9543,3.9439,3.935,3.935,3.9219,3.9101,3.9101,3.9101,3.9101,3.9101,3.9101,3.9101,3.9101,3.9101,3.9101,3.9101,3.9101,3.9101,3.9101,3.9101,3.9101,3.9101,3.9101,3.9101,3.9101,3.9101,3.9101,3.9101,3.9101,3.9101,3.9101,3.9101,3.9101,3.9101,3.9101,3.9101,3.9101,3.9101,3.9101,0.0,0.0,0.0,0.0,0.0,0.0,0.0,3.4197,0.0,3.4281,3.434,3.4397,3.4484,3.4539,3.4583,3.4602,0.0,0.0,0.0,0.0,0.0,0.0,0.0,0.0,0.0,0.0,0.0,0.0,0.0,0.0,0.0,0.0,0.0,4.0797,4.0797,4.0797,4.0797,4.0797,4.0797,4.079,4.079,4.0752,4.0687,0.0,0.0,0.0,0.0,0.0,0.0,4.0167,4.0022,3.9754,3.9561,3.9502,3.9452,3.9192,3.9101,3.9101,3.9101,3.9101,3.9101,3.9101,3.9101,3.9101,3.9101,3.9272,3.9427,3.9165,3.9101,3.9101,3.9101,3.9101,3.9101,3.9101,3.9101,3.9101,3.9101,3.9101,3.9101,3.9101,3.9101,3.9101,3.9101,3.9101,3.9101,3.9101,3.9101,3.9101,3.9101,3.9101,3.9101,3.9101,3.9101,3.9101,3.9101,3.9101,3.9101,3.9101,3.9101,3.9101,3.9101,3.9101,3.9101,3.9101,3.9101,3.9101,3.9101,3.9101,3.9101,3.9101,3.9101,3.9101,0.0,0.0,0.0,0.0,0.0,0.0,0.0,3.4197,3.4209,3.4221,0.0,3.434,3.4416,3.4484,3.4539,3.4583,0.0,0.0,0.0,0.0,0.0,0.0,0.0,0.0,0.0,0.0,0.0,0.0,0.0,0.0,0.0,0.0,0.0,4.0797,4.0797,4.0797,4.0797,4.0797,4.0759,4.0713,4.0713,4.0699,4.0617,0.0,0.0,0.0,0.0,0.0,3.9882,3.9882,3.9772,3.958,3.952,3.9357,3.9197,3.9129,3.9101,3.9101,3.9101,3.9101,3.9101,3.9101,3.9101,3.9101,3.9101,3.9137,3.9178,3.9129,3.9101,3.9101,3.9101,3.9101,3.9101,3.9101,3.9101,3.9101,3.9101,3.9101,3.9101,3.9101,3.9101,3.9101,3.9101,3.9101,3.9101,3.9101,3.9101,3.9101,3.9101,3.9101,3.9101,3.9101,3.9101,3.9101,3.9101,3.9101,3.9101,3.9101,3.9101,3.9101,3.9101,3.9101,3.9101,3.9101,3.9101,3.9101,3.9101,3.9101,3.9101,3.9101,3.9101,3.9101,0.0,3.4111,3.4197,3.4197,3.4197,3.4197,3.4197,3.4197,3.4197,3.4197,0.0,3.4316,3.4393,3.4439,3.4484,0.0,0.0,0.0,0.0,0.0,0.0,0.0,0.0,0.0,0.0,0.0,0.0,0.0,0.0,0.0,0.0,0.0,0.0,0.0,4.0797,4.0797,4.0797,4.0797,4.0778,4.07,4.07,4.0605,4.0414,0.0,0.0,0.0,0.0,0.0,3.966,3.966,3.9525,3.9324,3.9324,3.9232,3.9101,3.9101,3.9101,3.9101,3.9101,3.9101,3.9101,3.9101,3.9101,3.9101,3.9101,3.9101,3.9101,3.9101,3.9101,3.9101,3.9101,3.9101,3.9101,3.9101,3.9101,3.9101,3.9101,3.9101,3.9101,3.9101,3.9101,3.9101,3.9101,3.9101,3.9101,3.9101,3.9101,3.9101,3.9101,3.9101,3.9101,3.9101,3.9101,3.9101,3.9101,3.9101,3.9101,3.9101,3.9101,3.9101,3.9101,3.9101,3.9101,3.9101,3.9101,3.9101,3.9101,3.9101,3.9101,3.9101,3.9101,3.9101,3.3793,3.3972,3.4148,3.4185,3.4197,3.4197,3.4197,3.4197,3.4197,3.4197,0.0,3.4305,3.4363,3.4374,0.0,0.0,0.0,0.0,0.0,0.0,0.0,0.0,0.0,0.0,0.0,0.0,0.0,0.0,0.0,0.0,0.0,0.0,0.0,0.0,4.0771,4.0739,4.0739,4.0739,4.068,4.0571,4.0571,4.0427,4.0138,4.0138,0.0,0.0,0.0,0.0,3.9452,3.9452,3.9311,3.9101,3.9101,3.9101,3.9101,3.9101,3.9101,3.9101,3.9101,3.9101,3.9101,3.9101,3.9101,3.9101,3.9101,3.9101,3.9101,3.9101,3.9101,3.9101,3.9101,3.9101,3.9101,3.9101,3.9101,3.9101,3.9101,3.9101,3.9101,3.9101,3.9101,3.9101,3.9101,3.9101,3.9101,3.9101,3.9101,3.9101,3.9101,3.9059,3.9013,3.9013,3.897,3.8942,3.8942,3.8942,3.8942,3.8942,3.9027,3.9087,3.9027,3.9073,3.9087,3.9013,3.9073,3.9101,3.9101,3.9101,3.9101,3.9101,3.9101,3.9101,3.3721,3.3815,3.3908,3.4148,3.4197,3.4197,3.4197,3.4197,3.4197,3.4197,0.0,0.0,0.0,3.4316,3.4351,0.0,0.0,0.0,0.0,0.0,0.0,0.0,0.0,0.0,0.0,0.0,0.0,0.0,0.0,0.0,0.0,0.0,0.0,0.0,0.0,4.0454,4.0454,4.0454,4.0319,4.0023,4.0023,3.9973,3.9861,3.9861,3.975,0.0,0.0,0.0,3.917,3.917,3.9142,3.9101,3.9101,3.9101,3.9101,3.9101,3.9101,3.9101,3.9101,3.9101,3.9101,3.9101,3.9101,3.9101,3.9101,3.9101,3.9101,3.9101,3.9101,3.9101,3.9101,3.9101,3.9101,3.9101,3.9101,3.9101,3.9101,3.9101,3.9101,3.9101,3.9101,3.9101,3.9101,3.9101,3.9101,3.9101,3.9101,3.9101,3.9101,3.8851,3.8688,3.8688,3.8426,3.8249,3.8249,3.8249,3.8249,3.8249,3.8796,3.897,3.8703,3.8956,3.897,3.8688,3.8956,3.9101,3.9101,3.9101,3.9101,3.9101,3.9101,3.9101,3.348,3.377,3.4049,3.4173,3.4197,3.4197,3.4197,3.4197,3.4197,3.4197,0.0,0.0,0.0,0.0,0.0,0.0,0.0,0.0,0.0,0.0,0.0,0.0,0.0,0.0,0.0,0.0,0.0,0.0,0.0,0.0,0.0,0.0,0.0,0.0,0.0,0.0,3.9924,3.9905,3.9913,3.9901,3.9901,3.9805,3.9644,3.9644,3.9501,0.0,0.0,3.9205,3.9101,3.9101,3.9101,3.9101,3.9101,3.9101,3.9101,3.9101,3.9101,3.9101,3.9101,3.9101,3.9101,3.9101,3.9101,3.9101,3.9101,3.9101,3.9101,3.9101,3.9101,3.9101,3.9101,3.9101,3.9101,3.9101,3.9101,3.9101,3.9101,3.9101,3.9101,3.9101,3.8956,3.8822,3.8822,3.8673,3.8551,3.8551,3.8551,3.8551,3.8551,3.8426,3.833,3.833,3.8183,3.8101,3.8101,3.8101,3.8101,3.8101,3.8378,3.8489,3.8346,3.8473,3.8489,3.833,3.8489,3.8643,3.8822,3.8822,3.8927,3.9101,3.9101,3.9101,3.3262,3.363,3.4018,3.4154,3.4197,3.4197,3.4197,3.4197,3.4197,3.4197,0.0,0.0,0.0,0.0,0.0,0.0,0.0,0.0,0.0,0.0,0.0,0.0,0.0,0.0,0.0,0.0,0.0,0.0,0.0,0.0,0.0,0.0,0.0,0.0,0.0,0.0,3.9493,3.9439,3.95,3.9717,3.9717,3.9609,3.9414,3.9414,3.9298,3.9101,3.9101,3.9101,3.9101,3.9101,3.9101,3.9101,3.9101,3.9101,3.9101,3.9101,3.9101,3.9101,3.9101,3.9101,3.9101,3.9101,3.9101,3.9101,3.9101,3.9101,3.9087,3.8998,3.8984,3.8998,3.9087,3.9101,3.9101,3.9101,3.9045,3.8984,3.8984,3.8927,3.8869,3.8869,3.8658,3.847,3.847,3.8265,3.8101,3.8101,3.8101,3.8156,3.8355,3.8288,3.8236,3.8236,3.8149,3.8042,3.7862,3.7844,3.7844,3.7844,3.8,3.8068,3.7948,3.8051,3.8051,3.7948,3.8051,3.8234,3.847,3.847,3.8609,3.8869,3.8869,3.8869,3.3142,3.3335,3.349,3.4055,3.4197,3.4197,3.4197,3.4197,3.4197,3.4197,0.0,0.0,0.0,0.0,0.0,0.0,0.0,0.0,0.0,0.0,0.0,0.0,0.0,0.0,0.0,0.0,0.0,0.0,0.0,0.0,0.0,0.0,0.0,0.0,0.0,0.0,3.9493,3.9248,3.9137,3.9151,3.9151,3.9137,3.9129,3.9129,3.9129,3.9101,3.9101,3.9101,3.9101,3.9101,3.9101,3.9101,3.9101,3.9101,3.9101,3.9101,3.9101,3.9101,3.9101,3.9101,3.9101,3.9101,3.9101,3.9101,3.9101,3.9101,3.9045,3.8733,3.8643,3.8718,3.9013,3.9101,3.9101,3.9101,3.8851,3.8643,3.8643,3.8394,3.8168,3.8168,3.8152,3.8135,3.8135,3.8118,3.8101,3.8101,3.8101,3.8355,3.9026,3.8833,3.8666,3.8666,3.8323,3.7805,3.7138,3.7087,3.7087,3.7087,3.7721,3.793,3.756,3.7896,3.7913,3.756,3.7913,3.8118,3.8135,3.8135,3.8152,3.8168,3.8168,3.8168,3.3169,3.3451,3.3721,3.4111,3.4197,3.4197,3.4197,3.4197,3.4197,3.4197,3.4197,0.0,0.0,0.0,0.0,0.0,0.0,0.0,0.0,0.0,0.0,0.0,0.0,0.0,0.0,0.0,0.0,0.0,0.0,0.0,0.0,0.0,0.0,0.0,0.0,0.0,0.0,3.9151,3.9101,3.9101,3.9101,3.9101,3.9101,3.9101,3.9101,3.9101,3.9101,3.9101,3.9101,3.9101,3.9101,3.9101,3.9101,3.9101,3.9101,3.9101,3.897,3.8792,3.8792,3.8658,3.8473,3.8473,3.8473,3.8473,3.8473,3.8473,3.8442,3.833,3.8281,3.8314,3.8442,3.8473,3.8473,3.8473,3.8378,3.8281,3.8281,3.8201,3.8101,3.8101,3.7896,3.7739,3.7739,3.7541,3.7554,3.8033,3.8086,3.837,3.9169,3.9155,3.9073,3.9073,3.8491,3.7795,3.706,3.7007,3.7007,3.7007,3.7261,3.7338,3.7204,3.7337,3.7338,3.7186,3.7338,3.7504,3.7667,3.7667,3.7738,3.7841,3.7841,3.7841,3.3187,3.3465,3.373,3.4111,3.4197,3.4197,3.4197,3.4197,3.4197,3.4197,3.4197,3.4197,3.4197,0.0,0.0,0.0,0.0,0.0,0.0,0.0,0.0,0.0,0.0,0.0,0.0,0.0,0.0,0.0,0.0,0.0,0.0,0.0,0.0,0.0,0.0,0.0,0.0,3.9101,3.9101,3.9101,3.9101,3.9101,3.9101,3.9101,3.9101,3.9101,3.9101,3.9101,3.9101,3.8984,3.8884,3.8778,3.8778,3.8778,3.8778,3.8778,3.8643,3.8439,3.8439,3.8298,3.8101,3.8101,3.8101,3.8101,3.8101,3.8101,3.8068,3.7948,3.7913,3.7879,3.7792,3.7931,3.8101,3.8101,3.7999,3.7913,3.7913,3.7844,3.7756,3.7756,3.7523,3.7339,3.7339,3.7341,3.7514,3.7997,3.8278,3.8698,3.9505,3.9567,3.9458,3.9234,3.8499,3.7711,3.6958,3.6908,3.6908,3.6908,3.6908,3.6928,3.7007,3.7007,3.7007,3.7007,3.6968,3.7029,3.7206,3.7204,3.7245,3.7379,3.7379,3.7379,3.3126,3.3306,3.3433,3.4043,3.4197,3.4197,3.4197,3.4197,3.4197,3.4197,3.4197,3.4197,3.4197,0.0,0.0,0.0,0.0,0.0,0.0,0.0,0.0,0.0,0.0,0.0,0.0,0.0,0.0,0.0,0.0,0.0,0.0,0.0,0.0,0.0,0.0,0.0,0.0,3.9101,3.9101,3.9101,3.9101,3.9101,3.9101,3.9101,3.9101,3.9101,3.9101,3.9101,3.9073,3.8733,3.841,3.8101,3.8101,3.8101,3.8101,3.8101,3.8101,3.8085,3.8085,3.8085,3.8085,3.8085,3.8085,3.8085,3.8085,3.8085,3.8017,3.7614,3.7505,3.7431,3.7069,3.7541,3.8085,3.8085,3.7791,3.7505,3.7505,3.7225,3.7007,3.7007,3.7007,3.7007,3.7007,3.7602,3.8088,3.8017,3.8646,3.9398,4.022,4.0175,3.9834,3.9073,3.8285,3.7499,3.6754,3.6702,3.6702,3.6702,3.6702,3.6786,3.6987,3.7007,3.7007,3.7007,3.6869,3.6809,3.6809,3.6725,3.6702,3.6702,3.6702,3.6702,3.3126,3.3306,0.0,3.4043,0.0,0.0,0.0,3.4197,3.4197,0.0,3.4197,3.4197,3.4197,0.0,0.0,0.0,0.0,0.0,0.0,0.0,0.0,0.0,0.0,0.0,0.0,0.0,0.0,0.0,0.0,0.0,0.0,0.0,0.0,0.0,0.0,0.0,0.0,0.0,3.9101,3.9101,3.9101,3.9101,3.9101,3.9101,3.9101,3.9087,3.8851,3.8748,3.8718,3.8394,3.8201,3.8101,3.8101,3.8101,3.8085,3.7998,3.7808,3.7596,3.7596,3.7431,3.7186,3.7299,3.7337,3.7337,3.7337,3.7337,3.7299,3.7185,3.7089,3.6992,3.6891,3.7011,3.7206,3.7299,3.7242,3.7147,3.7147,3.7068,3.7007,3.7007,3.6911,3.6869,3.6869,3.7437,3.8074,3.8628,3.9321,4.0087,4.0837,4.0901,4.0391,3.9125,3.8794,3.8132,3.6806,3.6702,3.6702,3.6702,3.6702,3.6722,3.6786,3.6786,3.6786,3.6786,3.6745,3.6684,3.6585,3.6564,3.6523,3.6423,3.6423,3.6423,3.3172,3.3394,0.0,3.408,3.4197,3.4197,3.4197,0.0,0.0,0.0,0.0,3.4197,0.0,0.0,0.0,0.0,0.0,0.0,0.0,0.0,0.0,0.0,0.0,0.0,0.0,0.0,0.0,0.0,0.0,0.0,0.0,0.0,0.0,0.0,0.0,0.0,0.0,0.0,0.0,3.9101,3.897,3.8913,3.8913,3.9045,3.9027,3.8865,3.8551,3.8312,3.8147,3.7947,3.7774,3.7667,3.7596,3.7578,3.7559,3.745,3.732,3.7148,3.7148,3.7031,3.6871,3.6908,3.6928,3.6928,3.6888,3.6869,3.6869,3.6869,3.6809,3.6748,3.6748,3.6748,3.6788,3.6888,3.6928,3.6928,3.6928,3.6908,3.6869,3.6869,3.6826,3.6853,3.7149,3.7805,3.8508,3.9251,4.0011,4.0625,4.1036,4.1134,4.0561,3.9011,3.8855,3.8209,3.6683,3.6544,3.6544,3.6544,3.6544,3.6544,3.6544,3.6643,3.6702,3.6702,3.6643,3.6582,3.6502,3.6444,3.6381,3.6301,3.6301,3.6301,3.3199,3.3522,3.3829,3.4124,3.4197,0.0,3.4197,3.4197,3.4197,3.4197,0.0,0.0,0.0,0.0,0.0,0.0,0.0,0.0,0.0,0.0,0.0,0.0,0.0,0.0,0.0,0.0,0.0,0.0,0.0,0.0,0.0,0.0,0.0,0.0,0.0,0.0,0.0,0.0,0.0,0.0,3.8703,3.8548,3.8563,3.8884,3.8822,3.8486,3.8183,3.7826,3.745,3.745,3.7281,3.6968,3.6849,3.6809,3.6788,3.6705,3.6725,3.6771,3.6771,3.6849,3.6948,3.6829,3.6788,3.6788,3.6705,3.6702,3.6702,3.6702,3.6702,3.6681,3.6681,3.6681,3.6684,3.6768,3.6788,3.6788,3.6788,3.6745,3.6702,3.6702,3.6702,3.6925,3.7655,3.8438,3.9216,3.9898,4.0603,4.1047,4.0912,4.1023,4.0458,3.8789,3.8594,3.7974,3.6422,3.6301,3.6301,3.6301,3.6301,3.6301,3.6301,3.6523,3.6664,3.6664,3.6544,3.6482,3.6482,3.6343,3.6301,3.6301,3.6301,3.6301,3.3157,3.335,0.0,3.4068,3.4197,3.4197,3.4197,3.4197,3.4197,3.4197,0.0,0.0,0.0,0.0,0.0,0.0,0.0,0.0,0.0,0.0,0.0,0.0,0.0,0.0,0.0,0.0,0.0,0.0,0.0,0.0,0.0,0.0,0.0,0.0,0.0,0.0,3.8718,3.8718,3.8582,0.0,3.8232,3.8218,3.82,3.8281,3.8099,3.7738,3.7667,3.7431,3.7126,3.7126,3.7009,3.6849,3.6809,3.6768,3.6705,3.6602,3.6544,3.6547,3.6547,3.6568,3.6626,3.6705,3.6705,3.6705,3.6702,3.6702,3.6702,3.6702,3.6623,3.6544,3.6544,3.6544,3.6544,3.6564,3.6626,3.6705,3.6705,3.6722,3.6702,3.6702,3.6623,3.6787,3.7511,3.8209,3.915,4.0469,4.0832,4.0935,4.0894,4.0935,4.0348,3.8772,3.8594,3.7974,3.6422,3.6301,3.6301,3.6301,3.6301,3.6301,3.6301,3.636,3.6402,3.6402,3.6343,3.6343,3.6343,3.6322,3.6301,3.6301,3.6301,3.6301,0.0,0.0,0.0,3.4099,0.0,3.4197,3.4197,3.4197,3.4197,0.0,0.0,0.0,0.0,0.0,0.0,0.0,0.0,0.0,0.0,0.0,0.0,0.0,0.0,0.0,0.0,0.0,0.0,0.0,0.0,0.0,0.0,0.0,0.0,0.0,0.0,0.0,3.8594,3.8442,3.8265,3.8101,3.7896,3.7721,3.7577,3.7739,3.7703,3.7487,3.732,3.7166,3.7007,3.6928,3.6851,3.6788,3.669,3.6626,3.6602,3.6444,3.6444,3.6502,3.6502,3.6544,3.6602,3.6602,3.6602,3.6602,3.6523,3.6502,3.6502,3.6502,3.6444,3.6402,3.6402,3.6402,3.6402,3.6402,3.6502,3.6602,3.6602,3.6544,3.6502,3.6502,3.6444,3.6748,3.7888,3.8746,3.9457,3.9993,4.0087,4.0087,4.0087,4.0087,3.9721,3.8839,3.8214,3.758,3.6935,3.6315,3.5963,3.5963,3.5963,3.5837,3.5577,3.5577,3.5705,3.5963,3.5727,3.5577,3.5577,3.5837,3.5963,3.5963,3.6195,3.6301,0.0,3.3243,3.3775,3.4061,3.4105,0.0,3.4185,3.4197,3.4197,0.0,0.0,0.0,0.0,0.0,0.0,0.0,0.0,0.0,0.0,0.0,0.0,0.0,0.0,0.0,0.0,0.0,0.0,0.0,0.0,0.0,0.0,0.0,0.0,0.0,0.0,3.8533,3.8405,3.815,3.7983,3.7914,3.7578,3.7281,3.7007,3.73,3.7414,3.7413,3.7108,3.6987,3.6968,3.6849,3.6788,3.6728,3.6547,3.6502,3.6444,3.6343,3.6364,3.6482,3.6482,3.6544,3.6623,3.6502,3.6482,3.6444,3.6322,3.6301,3.6301,3.6301,3.6237,3.6195,3.6195,3.6114,3.6049,3.6049,3.6131,3.6237,3.6318,3.6195,3.6049,3.6049,3.6255,3.6838,3.8088,3.9185,3.9697,3.9286,3.9206,3.9206,3.9206,3.9206,3.9066,3.879,3.7711,3.7075,3.7199,3.6124,3.5459,3.5459,3.5459,3.5276,3.4833,3.4738,3.488,3.5322,3.4981,3.4793,3.4793,3.5253,3.5459,3.5481,3.5963,3.6195,0.0,0.0,3.3375,0.0,3.3784,3.3773,0.0,0.0,0.0,0.0,0.0,0.0,0.0,0.0,0.0,0.0,0.0,0.0,0.0,0.0,0.0,0.0,0.0,0.0,0.0,0.0,0.0,0.0,0.0,0.0,0.0,0.0,3.897,3.8688,3.8609,0.0,3.7649,3.7614,3.7431,3.7145,3.7087,3.7048,3.7007,3.7048,3.7068,3.7068,3.7009,3.693,3.6829,3.6809,3.6708,3.6544,3.6523,3.6423,3.6322,3.6301,3.6322,3.6322,3.6322,3.6343,3.6343,3.6322,3.6322,3.6322,3.6301,3.6301,3.6301,3.6301,3.6006,3.5683,3.5683,3.5368,3.5005,3.5005,3.5005,3.5144,3.5616,3.5328,3.5005,3.5005,3.6037,3.6953,3.7178,3.8367,3.9269,3.9206,3.9206,3.9206,3.9206,3.9206,3.8907,3.8214,3.7459,3.6754,3.6163,3.5367,3.4904,3.4904,3.4904,3.4864,3.4793,3.4415,3.4234,3.4308,3.4617,3.4793,3.4793,3.4864,3.4904,3.4927,3.5459,3.5683,3.2669,3.2797,3.2939,0.0,3.3468,3.3652,3.3792,0.0,0.0,0.0,0.0,0.0,0.0,0.0,0.0,0.0,0.0,0.0,0.0,0.0,0.0,0.0,0.0,0.0,0.0,0.0,0.0,0.0,0.0,0.0,0.0,3.7488,3.7345,3.7046,3.7259,0.0,3.6881,3.7107,3.7147,3.7007,3.7007,3.7007,3.7007,3.6928,3.6888,3.6888,3.6888,3.6829,3.6745,3.6667,3.6585,3.6502,3.6423,3.6343,3.6301,3.6301,3.6301,3.6301,3.6301,3.6301,3.6259,3.5985,3.6092,3.6178,3.5638,3.5859,3.6178,3.5616,3.5526,3.5526,3.523,3.4981,3.4793,3.4793,3.4593,3.4464,3.4706,3.4785,3.4925,3.5339,3.6274,3.7017,3.7091,3.7997,3.859,3.8286,3.8258,3.8258,3.8258,3.8258,3.8241,3.8172,3.6918,3.6218,3.6506,3.5227,3.4415,3.4415,3.4415,3.4267,3.3968,3.3755,3.3642,3.3642,3.3857,3.3968,3.3968,3.4267,3.4415,3.4415,3.4927,3.5144,0.0,0.0,3.2487,3.2809,3.3103,3.3325,0.0,0.0,0.0,0.0,0.0,0.0,0.0,0.0,0.0,0.0,0.0,0.0,0.0,0.0,0.0,0.0,0.0,0.0,0.0,0.0,0.0,0.0,0.0,0.0,3.6203,3.6149,3.5972,3.5666,3.5945,3.6132,3.6239,3.6757,3.7007,3.7007,3.6968,3.6948,3.6948,3.6673,3.655,3.6512,3.669,3.6725,3.6643,3.6544,3.6402,3.6259,3.6301,3.6237,3.6135,3.6259,3.6301,3.628,3.6156,3.6114,3.6049,3.5549,3.5638,3.5771,3.5028,3.5328,3.5771,3.5005,3.4998,3.5138,3.4714,3.4521,3.4423,3.4423,3.4143,3.3899,3.3899,3.4168,3.4636,3.5356,3.6102,3.6665,3.6952,3.7589,3.7956,3.7553,3.751,3.751,3.751,3.751,3.7655,3.8055,3.6469,3.5708,3.6516,3.4945,3.3899,3.3899,3.3899,3.372,3.3335,3.3309,3.3309,3.3309,3.3309,3.3309,3.3309,3.3694,3.3899,3.3899,3.4391,3.4617,0.0,3.2037,0.0,3.2505,3.2537,0.0,0.0,0.0,0.0,0.0,0.0,0.0,0.0,0.0,0.0,0.0,0.0,0.0,0.0,0.0,0.0,0.0,0.0,0.0,0.0,0.0,0.0,0.0,0.0,0.0,3.6203,3.5957,3.565,3.5236,3.5238,3.5457,3.583,3.6603,3.7007,3.7007,3.6869,3.6809,3.6791,3.6224,3.5868,3.5786,3.6423,3.6623,3.6502,3.6502,3.6152,3.57,3.6135,3.6028,3.57,3.6135,3.6301,3.6237,3.5793,3.5655,3.5549,3.5005,3.4864,3.488,3.4833,3.4857,3.488,3.4793,3.4513,3.4159,3.4151,3.3771,3.3372,3.3372,3.3346,3.3319,3.3319,3.3346,3.3578,3.4254,3.4983,3.5684,3.6324,3.7065,3.7524,3.751,3.751,3.751,3.751,3.751,3.751,3.7524,3.6261,3.5407,3.549,3.4153,3.3319,3.3319,3.3319,3.3335,3.3309,3.3309,3.3309,3.3309,3.3309,3.3309,3.3309,3.3335,3.3319,3.3346,3.3899,3.4151,0.0,0.0,0.0,3.2037,3.2231,3.2436,0.0,0.0,0.0,0.0,0.0,0.0,0.0,0.0,0.0,0.0,0.0,0.0,0.0,0.0,0.0,0.0,0.0,0.0,0.0,0.0,0.0,0.0,0.0,0.0,3.4029,3.3923,3.3718,3.3404,3.3829,3.4585,3.5733,3.6054,3.6439,3.6869,3.6811,3.6591,3.6224,3.5912,3.5587,3.5249,3.5419,3.5459,3.5413,3.5413,3.5283,3.5098,3.526,3.5237,3.5115,3.5283,3.5328,3.5305,3.5144,3.5075,3.5021,3.4513,3.4545,3.4673,3.4043,3.4276,3.4666,3.4018,3.3958,3.4025,3.3684,3.345,3.3309,3.3309,3.3309,3.3309,3.3309,3.3309,3.364,3.4778,3.5205,3.5758,3.6896,3.7352,3.751,3.751,3.751,3.751,3.751,3.751,3.751,3.751,3.6232,3.5394,3.5394,3.4115,3.3256,3.3176,3.3176,3.3123,3.3058,3.3032,3.3032,3.3032,3.3032,3.3123,3.3309,3.3309,3.3309,3.3293,3.3503,3.3581,3.1839,0.0,0.0,0.0,0.0,3.2179,0.0,0.0,0.0,0.0,0.0,0.0,0.0,0.0,0.0,0.0,0.0,0.0,0.0,0.0,0.0,0.0,0.0,0.0,0.0,0.0,0.0,0.0,0.0,0.0,3.2781,3.2635,3.2488,3.2301,3.2966,3.382,3.485,3.5432,3.592,3.6384,3.6588,3.6388,3.5825,3.552,3.5151,3.4697,3.4407,3.4496,3.4793,3.4793,3.4714,3.4569,3.4738,3.4714,3.4569,3.4738,3.4793,3.4785,3.4617,3.4586,3.4488,3.3984,3.4059,3.4152,3.3487,3.3781,3.4168,3.3503,3.3555,3.3761,3.3398,3.3282,3.3229,3.3229,3.3203,3.3176,3.3229,3.3456,3.3988,3.5157,3.5584,3.6105,3.7304,3.751,3.748,3.7405,3.7405,3.7375,3.7331,3.7331,3.7252,3.7016,3.5946,3.5143,3.4907,3.3837,3.3123,3.3032,3.3032,3.3005,3.2897,3.2897,3.2897,3.2897,3.2897,3.2978,3.3176,3.3176,3.3176,3.3176,3.3176,3.3176,0.0,0.0,0.0,0.0,0.0,0.0,0.0,0.0,0.0,0.0,0.0,0.0,0.0,0.0,0.0,0.0,0.0,0.0,0.0,0.0,0.0,0.0,0.0,0.0,0.0,0.0,0.0,0.0,0.0,3.2685,3.2685,3.2318,3.209,3.209,3.2804,3.3169,3.3204,3.4718,3.5484,3.5499,3.6162,3.6199,3.5654,3.5035,3.4521,3.405,3.3529,3.3841,3.4761,3.4761,3.4488,3.4126,3.4569,3.4488,3.4109,3.4593,3.4761,3.469,3.4234,3.4075,3.4,3.3477,3.3309,3.3309,3.3309,3.3309,3.3309,3.3282,3.3282,3.3282,3.3282,3.3203,3.3096,3.3096,3.3005,3.2939,3.3085,3.3723,3.451,3.5236,3.5903,3.6598,3.7354,3.748,3.7405,3.7224,3.7178,3.715,3.7015,3.7015,3.675,3.6063,3.533,3.4628,3.397,3.3287,3.2897,3.2897,3.2897,3.2897,3.2897,3.2897,3.2897,3.2897,3.2897,3.2897,3.2897,3.2897,3.2897,3.2897,3.2897,3.2897,3.18,0.0,0.0,0.0,0.0,0.0,0.0,0.0,0.0,0.0,0.0,0.0,0.0,0.0,0.0,0.0,0.0,0.0,0.0,0.0,0.0,0.0,0.0,0.0,0.0,0.0,0.0,0.0,0.0,3.2266,3.2266,3.2161,3.2055,3.1966,3.2246,3.2646,3.3128,3.4194,3.494,3.5416,3.5757,3.5604,3.5012,3.4521,3.4009,3.3503,3.3346,3.345,3.3704,3.3704,3.3642,3.3529,3.3652,3.3642,3.3555,3.3668,3.3704,3.3694,3.3581,3.3529,3.3503,3.3361,3.3309,3.3282,3.3176,3.315,3.3139,3.3032,3.3005,3.3005,3.3005,3.2978,3.2951,3.2951,3.2924,3.2897,3.2951,3.3521,3.4206,3.4911,3.518,3.5696,3.6917,3.7136,3.7121,3.7044,3.706,3.703,3.6999,3.7015,3.675,3.6063,3.533,3.4628,3.397,3.3287,3.2843,3.2676,3.2676,3.2648,3.2551,3.2551,3.2551,3.2551,3.2551,3.2551,3.2551,3.2773,3.2897,3.2897,3.2897,3.2897,0.0,0.0,0.0,0.0,0.0,0.0,0.0,3.1472,0.0,0.0,0.0,0.0,0.0,0.0,0.0,0.0,0.0,0.0,0.0,0.0,0.0,0.0,0.0,0.0,0.0,0.0,0.0,0.0,3.2161,3.1984,3.1982,3.1965,3.1947,3.1857,3.1929,3.2154,3.2549,3.3197,3.3856,3.4531,3.4769,3.4774,3.4513,3.4209,3.3797,3.3309,3.3309,3.3309,3.3309,3.3309,3.3309,3.3309,3.3309,3.3309,3.3309,3.3309,3.3309,3.3309,3.3309,3.324,3.3229,3.3229,3.3176,3.3123,3.3032,3.3005,3.3005,3.2924,3.2897,3.287,3.28,3.2773,3.2773,3.2773,3.2746,3.2718,3.2746,3.3041,3.3507,3.4347,3.4706,3.5252,3.6391,3.6578,3.6641,3.6861,3.6862,3.6831,3.6816,3.6785,3.6413,3.5481,3.5,3.4348,3.3355,3.2936,3.2648,3.2523,3.2523,3.248,3.2398,3.2398,3.2272,3.202,3.2287,3.2398,3.2398,3.2594,3.2676,3.2676,3.2676,3.2676,0.0,0.0,0.0,0.0,0.0,0.0,3.18,3.1731,3.1679,0.0,0.0,0.0,0.0,0.0,0.0,0.0,0.0,0.0,0.0,0.0,0.0,0.0,0.0,0.0,0.0,0.0,3.2072,3.2072,3.1948,3.1857,3.18,3.18,3.18,3.18,3.1746,3.1727,3.1727,3.206,3.2566,3.3233,3.3534,3.3855,3.4101,3.405,3.3745,3.3309,3.3309,3.3309,3.3309,3.3266,3.3282,3.3309,3.3309,3.3309,3.3309,3.3309,3.3309,3.3282,3.3282,3.3176,3.3085,3.3085,3.3005,3.2897,3.287,3.287,3.287,3.2843,3.2843,3.28,3.2621,3.2578,3.2578,3.2578,3.2496,3.2425,3.2551,3.248,3.265,3.3547,3.4288,3.4961,3.5722,3.5847,3.6005,3.6476,3.6584,3.6554,3.6507,3.6352,3.5784,3.451,3.4251,3.3669,3.2422,3.2299,3.2299,3.2299,3.2299,3.2287,3.2188,3.2188,3.1936,3.1393,3.1908,3.2188,3.2188,3.2327,3.2398,3.2398,3.2398,3.2398,0.0,0.0,0.0,0.0,0.0,0.0,3.18,3.1334,3.0903,0.0,0.0,0.0,0.0,0.0,0.0,0.0,0.0,0.0,0.0,0.0,0.0,0.0,0.0,0.0,0.0,0.0,3.1873,3.1873,3.1819,3.1801,3.18,3.18,3.18,3.18,3.143,3.1237,3.1237,3.1566,3.2074,3.2741,3.303,3.3494,3.4101,3.3642,3.3398,3.3309,3.3309,3.3309,3.3309,3.3176,3.3203,3.3309,3.3309,3.3309,3.3309,3.3309,3.3229,3.3123,3.3123,3.3058,3.2924,3.2924,3.2924,3.287,3.2718,3.2648,3.2648,3.2523,3.2496,3.2496,3.2453,3.2425,3.2425,3.2425,3.2425,3.2425,3.2425,3.2425,3.2456,3.265,3.3221,3.3915,3.467,3.4793,3.5025,3.5629,3.5737,3.5907,3.6415,3.555,3.4572,3.3789,3.2718,3.196,3.1698,3.1695,3.1695,3.1695,3.1695,3.1436,3.0896,3.0866,3.0822,3.0703,3.0807,3.0866,3.0866,3.1892,3.2398,3.2398,3.2398,3.2398,0.0,0.0,0.0,3.18,0.0,0.0,0.0,3.1507,3.1127,0.0,0.0,0.0,0.0,0.0,0.0,0.0,0.0,0.0,0.0,0.0,0.0,0.0,0.0,0.0,0.0,0.0,3.18,3.18,3.18,3.18,3.18,3.18,3.169,3.1466,3.122,3.0988,3.0804,3.074,3.1226,3.2263,3.2144,3.2654,3.3694,3.3424,3.3309,3.3309,3.3309,3.3065,3.2695,3.2614,3.2586,3.2656,3.2973,3.3096,3.3069,3.2726,3.2769,3.2935,3.2617,3.2605,3.2746,3.2746,3.2718,3.2621,3.2523,3.2496,3.2496,3.2425,3.2398,3.2398,3.2398,3.2398,3.2398,3.2398,3.2398,3.2398,3.2398,3.2398,3.2315,3.1992,3.2209,3.2764,3.3785,3.3937,3.4197,3.4905,3.4973,3.4956,3.4987,3.4396,3.3583,3.2623,3.1904,3.1359,3.1029,3.0999,3.0999,3.0999,3.0999,3.0852,3.051,3.0494,3.0494,3.0494,3.0178,3.0178,3.0494,3.1131,3.145,3.145,3.1794,3.1766,0.0,0.0,0.0,0.0,0.0,3.18,0.0,0.0,0.0,0.0,0.0,0.0,0.0,0.0,0.0,0.0,0.0,0.0,0.0,0.0,0.0,0.0,0.0,0.0,0.0,0.0,3.18,3.18,3.18,3.18,3.18,3.1709,3.1504,3.1123,3.0928,3.0686,3.0372,2.9903,3.0364,3.171,3.1339,3.1899,3.3229,3.3256,3.3256,3.3229,3.3118,3.2695,3.2056,3.1888,3.1775,3.1749,3.2272,3.2594,3.2621,3.1946,3.2018,3.2413,3.1877,3.1905,3.2231,3.2358,3.2315,3.2231,3.2231,3.2231,3.2231,3.2231,3.2315,3.2398,3.2398,3.2315,3.2231,3.2231,3.2132,3.2033,3.2033,3.2033,3.1892,3.1393,3.1306,3.1644,3.2663,3.284,3.3084,3.3814,3.3863,3.3702,3.3362,3.3047,3.2471,3.1428,3.1087,3.0769,3.0342,3.0299,3.0299,3.0299,3.0299,3.0238,3.0131,3.0117,3.0117,3.0117,2.9594,2.9594,3.0117,3.0117,3.0253,3.0524,3.1058,3.1028,0.0,0.0,0.0,0.0,3.18,0.0,0.0,0.0,0.0,0.0,0.0,0.0,0.0,0.0,0.0,0.0,0.0,0.0,0.0,0.0,0.0,0.0,0.0,0.0,0.0,0.0,0.0,3.18,3.18,3.18,3.18,3.1411,3.1162,3.1103,3.0356,2.9924,2.9881,2.9425,2.9832,3.1099,3.1049,3.171,3.2951,3.3085,3.3058,3.2924,3.2434,3.2127,3.1875,3.1145,3.0867,3.0867,3.1057,3.1491,3.1946,3.1261,3.0999,3.0925,3.0867,3.0793,3.0852,3.1451,3.1623,3.1595,3.1595,3.1595,3.1595,3.1595,3.1992,3.2398,3.2398,3.1992,3.1595,3.1595,3.1146,3.0718,3.0718,3.0718,3.0689,3.0644,3.0614,3.0658,3.0791,3.0835,3.1054,3.1728,3.1827,3.2015,3.2543,3.161,3.0853,3.0711,2.966,2.9109,2.958,2.9597,2.9597,2.9597,2.9597,2.9376,2.883,2.8798,2.8798,2.8798,2.8734,2.8734,2.8798,2.8798,2.9404,3.0494,3.0584,3.0584,0.0,0.0,0.0,0.0,0.0,0.0,0.0,0.0,3.1593,0.0,0.0,0.0,0.0,0.0,0.0,0.0,0.0,0.0,0.0,0.0,0.0,0.0,0.0,0.0,0.0,0.0,0.0,0.0,0.0,3.18,3.18,3.1353,3.0965,3.0645,3.0032,2.9522,2.9213,2.9021,2.9586,3.0882,3.0882,3.1592,3.2897,3.2951,3.273,3.2299,3.2086,3.1506,3.0644,3.0329,3.0103,2.9966,2.9673,3.0194,3.0999,3.0346,3.03,3.0525,3.0149,3.0224,3.0554,3.0822,3.0911,3.0911,3.0911,3.0911,3.0911,3.0911,3.1116,3.1305,3.1305,3.1116,3.0911,3.0911,3.0689,3.0494,3.0494,3.0494,3.0389,3.0011,2.9919,2.9811,2.9467,3.0009,3.0611,3.0872,3.0896,3.0831,3.078,3.0275,2.9845,2.95,2.893,2.8702,2.8962,2.8962,2.8962,2.8962,2.8962,2.8849,2.8619,2.8587,2.8587,2.8587,2.8587,2.8587,2.8587,2.8587,2.8862,2.9404,2.9749,2.9718,3.1744,0.0,0.0,0.0,0.0,0.0,0.0,0.0,0.0,0.0,0.0,0.0,0.0,0.0,0.0,0.0,0.0,0.0,0.0,0.0,0.0,0.0,0.0,0.0,0.0,0.0,0.0,0.0,3.1605,0.0,3.1726,3.1142,3.0645,3.0251,2.9661,2.919,2.8794,2.8982,2.9644,3.0756,3.0943,3.1633,3.2746,3.2621,3.2287,3.1777,3.1448,3.0689,2.9701,2.9529,2.9404,2.9219,2.8766,2.9166,2.9917,2.9439,2.9563,2.9917,2.9407,2.9673,3.0238,3.0238,3.0238,3.0238,3.0238,3.0238,3.0238,3.0238,3.0359,3.0494,3.0494,3.0359,3.0238,3.0238,3.0086,2.9979,2.9979,2.9979,2.9856,2.9345,2.9251,2.9107,2.8683,2.9373,2.9979,2.9979,2.994,2.9748,2.9306,2.9251,2.9108,2.8641,2.8587,2.8587,2.8587,2.8587,2.8587,2.8587,2.8587,2.8587,2.8587,2.8587,2.8587,2.8587,2.8587,2.8587,2.8587,2.8587,2.8587,2.8619,2.9044,2.9026,0.0,0.0,0.0,0.0,0.0,0.0,0.0,0.0,3.1783,0.0,0.0,0.0,0.0,0.0,0.0,0.0,0.0,0.0,0.0,0.0,0.0,0.0,0.0,0.0,0.0,0.0,0.0,0.0,3.1146,0.0,3.1517,3.0621,3.0123,3.0102,2.9282,2.8818,2.8794,2.9425,3.0061,3.0618,3.1243,3.1871,3.2398,3.1949,3.1665,3.1451,3.0343,2.9718,2.9442,2.8881,2.8619,2.8619,2.8619,2.8619,2.8651,2.8651,2.8651,2.8651,2.8651,2.9026,2.9535,2.9535,2.9535,2.9535,2.9535,2.9535,2.9535,2.9535,3.0011,3.0494,3.0494,3.0011,2.9535,2.9535,2.9075,2.8651,2.8651,2.8651,2.8651,2.8619,2.8619,2.8619,2.8587,2.8619,2.8651,2.8651,2.8665,2.8646,2.8619,2.8633,2.8614,2.8587,2.8587,2.8587,2.8587,2.8587,2.8587,2.8587,2.8587,2.8587,2.8587,2.8587,2.8587,2.8587,2.8587,2.8587,2.8587,2.8587,2.8587,2.8587,2.8619,2.8619,0.0,0.0,3.1557,3.1653,0.0,0.0,0.0,0.0,0.0,0.0,0.0,0.0,0.0,0.0,0.0,0.0,0.0,0.0,0.0,0.0,0.0,0.0,0.0,0.0,0.0,0.0,0.0,3.0427,3.1109,3.1349,0.0,3.0439,2.993,2.9518,2.8967,2.8628,2.8532,2.9197,2.9852,3.0479,3.0754,3.1187,3.1794,3.116,3.0644,3.0149,2.9766,2.9328,2.8881,2.8683,2.8587,2.8587,2.8587,2.8587,2.8587,2.8587,2.8587,2.8587,2.8587,2.8734,2.8912,2.8912,2.8912,2.8912,2.8912,2.8912,2.8912,2.8912,2.9071,2.9261,2.9261,2.9071,2.8912,2.8912,2.8734,2.8587,2.8587,2.8587,2.8587,2.8587,2.8587,2.8587,2.8587,2.8587,2.8587,2.8587,2.8587,2.8587,2.8587,2.8587,2.8587,2.8587,2.8587,2.8587,2.8587,2.8587,2.8587,2.8587,2.8587,2.8587,2.8587,2.8587,2.8587,2.8587,2.8587,2.8587,2.8587,2.8587,2.8587,2.8587,2.8587,2.8587,3.2244,3.2073,0.0,0.0,3.1747,0.0,0.0,0.0,0.0,0.0,0.0,0.0,0.0,0.0,0.0,0.0,0.0,0.0,0.0,0.0,0.0,0.0,0.0,0.0,0.0,0.0,2.998,2.9943,3.0692,3.1001,0.0,0.0,2.9579,2.9173,2.8756,2.8493,2.8411,2.9294,2.9971,3.0402,3.0724,3.1076,3.148,3.0569,2.9919,2.9473,2.9282,2.8962,2.8587,2.8587,2.8587,2.8587,2.8587,2.8587,2.8587,2.8587,2.8587,2.8587,2.8587,2.8587,2.8587,2.8587,2.8587,2.8587,2.8587,2.8587,2.8587,2.8587,2.8587,2.8587,2.8587,2.8587,2.8587,2.8587,2.8554,2.8476,2.8476,2.8457,2.8438,2.8476,2.8457,2.8438,2.8476,2.8476,2.8509,2.8587,2.8587,2.8587,2.8587,2.8587,2.8587,2.8587,2.8587,2.8587,2.8587,2.8587,2.8587,2.8587,2.8587,2.8587,2.8587,2.8587,2.8695,2.8912,2.8695,2.8695,2.8912,2.8695,2.8587,2.8587,2.8587,2.8587]}]]